<?xml version="1.0" encoding="UTF-8" standalone="no" ?>
<gpx xmlns="http://www.topografix.com/GPX/1/1" xmlns:xsi="http://www.w3.org/2001/XMLSchema-instance" xsi:schemaLocation="http://www.topografix.com/GPX/1/1 http://www.topografix.com/GPX/1/1/gpx.xsd" version="1.1" creator="VisuGPX - https://www.visugpx.com">
  <metadata>
    <name>revanche pedibus</name>
    <desc><![CDATA[tour revanche elancourt]]></desc>
  </metadata>
  <trk>
    <name><![CDATA[revanche elancourt pedibus 12]]></name>
    <trkseg>
      <trkpt lat="48.76288" lon="1.95775">
        <ele>174.80000305176</ele>
        <time>2014-06-07T07:14:53.000Z</time>
      </trkpt>
      <trkpt lat="48.76288" lon="1.95784">
        <ele>174.60000610352</ele>
        <time>2014-06-07T07:14:58.000Z</time>
      </trkpt>
      <trkpt lat="48.7629" lon="1.95793">
        <ele>174.60000610352</ele>
        <time>2014-06-07T07:15:03.000Z</time>
      </trkpt>
      <trkpt lat="48.76291" lon="1.95802">
        <ele>174.60000610352</ele>
        <time>2014-06-07T07:15:08.000Z</time>
      </trkpt>
      <trkpt lat="48.76293" lon="1.95806">
        <ele>174.39999389648</ele>
        <time>2014-06-07T07:15:11.000Z</time>
      </trkpt>
      <trkpt lat="48.76294" lon="1.95816">
        <ele>174.39999389648</ele>
        <time>2014-06-07T07:15:16.000Z</time>
      </trkpt>
      <trkpt lat="48.76298" lon="1.95822">
        <ele>174.39999389648</ele>
        <time>2014-06-07T07:15:22.000Z</time>
      </trkpt>
      <trkpt lat="48.76307" lon="1.95826">
        <ele>174.39999389648</ele>
        <time>2014-06-07T07:15:29.000Z</time>
      </trkpt>
      <trkpt lat="48.76312" lon="1.95826">
        <ele>174.39999389648</ele>
        <time>2014-06-07T07:15:35.000Z</time>
      </trkpt>
      <trkpt lat="48.76318" lon="1.95829">
        <ele>174.60000610352</ele>
        <time>2014-06-07T07:15:40.000Z</time>
      </trkpt>
      <trkpt lat="48.76319" lon="1.95829">
        <ele>174.60000610352</ele>
        <time>2014-06-07T07:15:42.000Z</time>
      </trkpt>
      <trkpt lat="48.76327" lon="1.95827">
        <ele>174.60000610352</ele>
        <time>2014-06-07T07:15:48.000Z</time>
      </trkpt>
      <trkpt lat="48.76329" lon="1.95825">
        <ele>174.60000610352</ele>
        <time>2014-06-07T07:15:50.000Z</time>
      </trkpt>
      <trkpt lat="48.76334" lon="1.95821">
        <ele>174.80000305176</ele>
        <time>2014-06-07T07:15:55.000Z</time>
      </trkpt>
      <trkpt lat="48.76335" lon="1.9582">
        <ele>174.80000305176</ele>
        <time>2014-06-07T07:15:56.000Z</time>
      </trkpt>
      <trkpt lat="48.76341" lon="1.95819">
        <ele>175</ele>
        <time>2014-06-07T07:16:00.000Z</time>
      </trkpt>
      <trkpt lat="48.76345" lon="1.95816">
        <ele>175</ele>
        <time>2014-06-07T07:16:04.000Z</time>
      </trkpt>
      <trkpt lat="48.76353" lon="1.95816">
        <ele>175</ele>
        <time>2014-06-07T07:16:09.000Z</time>
      </trkpt>
      <trkpt lat="48.7636" lon="1.95815">
        <ele>175</ele>
        <time>2014-06-07T07:16:15.000Z</time>
      </trkpt>
      <trkpt lat="48.76364" lon="1.95812">
        <ele>175</ele>
        <time>2014-06-07T07:16:18.000Z</time>
      </trkpt>
      <trkpt lat="48.76368" lon="1.9582">
        <ele>175.19999694824</ele>
        <time>2014-06-07T07:16:23.000Z</time>
      </trkpt>
      <trkpt lat="48.76369" lon="1.95819">
        <ele>175.19999694824</ele>
        <time>2014-06-07T07:16:24.000Z</time>
      </trkpt>
      <trkpt lat="48.76372" lon="1.95816">
        <ele>175.39999389648</ele>
        <time>2014-06-07T07:16:27.000Z</time>
      </trkpt>
      <trkpt lat="48.76375" lon="1.95815">
        <ele>175.39999389648</ele>
        <time>2014-06-07T07:16:29.000Z</time>
      </trkpt>
      <trkpt lat="48.76382" lon="1.95815">
        <ele>175.60000610352</ele>
        <time>2014-06-07T07:16:35.000Z</time>
      </trkpt>
      <trkpt lat="48.76383" lon="1.95818">
        <ele>175.60000610352</ele>
        <time>2014-06-07T07:16:39.000Z</time>
      </trkpt>
      <trkpt lat="48.76379" lon="1.95829">
        <ele>175.39999389648</ele>
        <time>2014-06-07T07:16:44.000Z</time>
      </trkpt>
      <trkpt lat="48.76382" lon="1.95838">
        <ele>175.19999694824</ele>
        <time>2014-06-07T07:16:48.000Z</time>
      </trkpt>
      <trkpt lat="48.76382" lon="1.95845">
        <ele>175</ele>
        <time>2014-06-07T07:16:52.000Z</time>
      </trkpt>
      <trkpt lat="48.76385" lon="1.95855">
        <ele>174.60000610352</ele>
        <time>2014-06-07T07:16:58.000Z</time>
      </trkpt>
      <trkpt lat="48.76386" lon="1.95857">
        <ele>174.60000610352</ele>
        <time>2014-06-07T07:16:59.000Z</time>
      </trkpt>
      <trkpt lat="48.76385" lon="1.95862">
        <ele>174.60000610352</ele>
        <time>2014-06-07T07:17:02.000Z</time>
      </trkpt>
      <trkpt lat="48.76385" lon="1.95872">
        <ele>174.39999389648</ele>
        <time>2014-06-07T07:17:07.000Z</time>
      </trkpt>
      <trkpt lat="48.7638" lon="1.95884">
        <ele>174.19999694824</ele>
        <time>2014-06-07T07:17:11.000Z</time>
      </trkpt>
      <trkpt lat="48.76378" lon="1.95887">
        <ele>174.19999694824</ele>
        <time>2014-06-07T07:17:13.000Z</time>
      </trkpt>
      <trkpt lat="48.76371" lon="1.95894">
        <ele>174.19999694824</ele>
        <time>2014-06-07T07:17:21.000Z</time>
      </trkpt>
      <trkpt lat="48.76371" lon="1.95896">
        <ele>174.19999694824</ele>
        <time>2014-06-07T07:17:22.000Z</time>
      </trkpt>
      <trkpt lat="48.7637" lon="1.95904">
        <ele>174</ele>
        <time>2014-06-07T07:17:26.000Z</time>
      </trkpt>
      <trkpt lat="48.76369" lon="1.95916">
        <ele>174</ele>
        <time>2014-06-07T07:17:31.000Z</time>
      </trkpt>
      <trkpt lat="48.76373" lon="1.95933">
        <ele>174</ele>
        <time>2014-06-07T07:17:38.000Z</time>
      </trkpt>
      <trkpt lat="48.76378" lon="1.95939">
        <ele>173.80000305176</ele>
        <time>2014-06-07T07:17:42.000Z</time>
      </trkpt>
      <trkpt lat="48.76384" lon="1.95936">
        <ele>174</ele>
        <time>2014-06-07T07:17:46.000Z</time>
      </trkpt>
      <trkpt lat="48.76394" lon="1.95931">
        <ele>174</ele>
        <time>2014-06-07T07:17:51.000Z</time>
      </trkpt>
      <trkpt lat="48.76401" lon="1.95932">
        <ele>174</ele>
        <time>2014-06-07T07:17:55.000Z</time>
      </trkpt>
      <trkpt lat="48.76403" lon="1.95933">
        <ele>174</ele>
        <time>2014-06-07T07:17:57.000Z</time>
      </trkpt>
      <trkpt lat="48.76418" lon="1.95937">
        <ele>174</ele>
        <time>2014-06-07T07:18:05.000Z</time>
      </trkpt>
      <trkpt lat="48.76426" lon="1.95936">
        <ele>174</ele>
        <time>2014-06-07T07:18:10.000Z</time>
      </trkpt>
      <trkpt lat="48.76434" lon="1.95938">
        <ele>174</ele>
        <time>2014-06-07T07:18:14.000Z</time>
      </trkpt>
      <trkpt lat="48.76442" lon="1.95939">
        <ele>174</ele>
        <time>2014-06-07T07:18:20.000Z</time>
      </trkpt>
      <trkpt lat="48.76447" lon="1.95936">
        <ele>173.80000305176</ele>
        <time>2014-06-07T07:18:23.000Z</time>
      </trkpt>
      <trkpt lat="48.76458" lon="1.95935">
        <ele>173.80000305176</ele>
        <time>2014-06-07T07:18:30.000Z</time>
      </trkpt>
      <trkpt lat="48.76461" lon="1.95934">
        <ele>173.80000305176</ele>
        <time>2014-06-07T07:18:32.000Z</time>
      </trkpt>
      <trkpt lat="48.76469" lon="1.95934">
        <ele>173.60000610352</ele>
        <time>2014-06-07T07:18:38.000Z</time>
      </trkpt>
      <trkpt lat="48.76479" lon="1.95926">
        <ele>173.80000305176</ele>
        <time>2014-06-07T07:18:43.000Z</time>
      </trkpt>
      <trkpt lat="48.76482" lon="1.95926">
        <ele>173.80000305176</ele>
        <time>2014-06-07T07:18:44.000Z</time>
      </trkpt>
      <trkpt lat="48.76495" lon="1.9593">
        <ele>173.80000305176</ele>
        <time>2014-06-07T07:18:49.000Z</time>
      </trkpt>
      <trkpt lat="48.76503" lon="1.95932">
        <ele>173.80000305176</ele>
        <time>2014-06-07T07:18:54.000Z</time>
      </trkpt>
      <trkpt lat="48.76513" lon="1.95932">
        <ele>173.80000305176</ele>
        <time>2014-06-07T07:18:59.000Z</time>
      </trkpt>
      <trkpt lat="48.76521" lon="1.95932">
        <ele>173.60000610352</ele>
        <time>2014-06-07T07:19:05.000Z</time>
      </trkpt>
      <trkpt lat="48.76525" lon="1.95932">
        <ele>173.60000610352</ele>
        <time>2014-06-07T07:19:08.000Z</time>
      </trkpt>
      <trkpt lat="48.76535" lon="1.95935">
        <ele>173.39999389648</ele>
        <time>2014-06-07T07:19:14.000Z</time>
      </trkpt>
      <trkpt lat="48.76544" lon="1.95937">
        <ele>173</ele>
        <time>2014-06-07T07:19:19.000Z</time>
      </trkpt>
      <trkpt lat="48.76552" lon="1.95939">
        <ele>172.80000305176</ele>
        <time>2014-06-07T07:19:24.000Z</time>
      </trkpt>
      <trkpt lat="48.76555" lon="1.9594">
        <ele>172.80000305176</ele>
        <time>2014-06-07T07:19:26.000Z</time>
      </trkpt>
      <trkpt lat="48.76561" lon="1.9594">
        <ele>172.60000610352</ele>
        <time>2014-06-07T07:19:29.000Z</time>
      </trkpt>
      <trkpt lat="48.76572" lon="1.95938">
        <ele>172.39999389648</ele>
        <time>2014-06-07T07:19:34.000Z</time>
      </trkpt>
      <trkpt lat="48.76577" lon="1.95937">
        <ele>172.39999389648</ele>
        <time>2014-06-07T07:19:36.000Z</time>
      </trkpt>
      <trkpt lat="48.76583" lon="1.95941">
        <ele>172.19999694824</ele>
        <time>2014-06-07T07:19:42.000Z</time>
      </trkpt>
      <trkpt lat="48.76585" lon="1.9594">
        <ele>172</ele>
        <time>2014-06-07T07:19:43.000Z</time>
      </trkpt>
      <trkpt lat="48.76598" lon="1.95938">
        <ele>171.80000305176</ele>
        <time>2014-06-07T07:19:50.000Z</time>
      </trkpt>
      <trkpt lat="48.76606" lon="1.95928">
        <ele>171.80000305176</ele>
        <time>2014-06-07T07:19:57.000Z</time>
      </trkpt>
      <trkpt lat="48.76613" lon="1.95916">
        <ele>171.80000305176</ele>
        <time>2014-06-07T07:20:03.000Z</time>
      </trkpt>
      <trkpt lat="48.76619" lon="1.95904">
        <ele>171.60000610352</ele>
        <time>2014-06-07T07:20:10.000Z</time>
      </trkpt>
      <trkpt lat="48.76624" lon="1.95895">
        <ele>171.60000610352</ele>
        <time>2014-06-07T07:20:15.000Z</time>
      </trkpt>
      <trkpt lat="48.76627" lon="1.9589">
        <ele>171.39999389648</ele>
        <time>2014-06-07T07:20:18.000Z</time>
      </trkpt>
      <trkpt lat="48.76641" lon="1.95885">
        <ele>171.19999694824</ele>
        <time>2014-06-07T07:20:25.000Z</time>
      </trkpt>
      <trkpt lat="48.76651" lon="1.95882">
        <ele>170.80000305176</ele>
        <time>2014-06-07T07:20:29.000Z</time>
      </trkpt>
      <trkpt lat="48.76662" lon="1.95889">
        <ele>170.60000610352</ele>
        <time>2014-06-07T07:20:34.000Z</time>
      </trkpt>
      <trkpt lat="48.76675" lon="1.95904">
        <ele>170.39999389648</ele>
        <time>2014-06-07T07:20:42.000Z</time>
      </trkpt>
      <trkpt lat="48.7669" lon="1.95922">
        <ele>170.19999694824</ele>
        <time>2014-06-07T07:20:52.000Z</time>
      </trkpt>
      <trkpt lat="48.767" lon="1.95934">
        <ele>170.39999389648</ele>
        <time>2014-06-07T07:21:01.000Z</time>
      </trkpt>
      <trkpt lat="48.76702" lon="1.95937">
        <ele>170.60000610352</ele>
        <time>2014-06-07T07:21:03.000Z</time>
      </trkpt>
      <trkpt lat="48.76707" lon="1.95943">
        <ele>170.60000610352</ele>
        <time>2014-06-07T07:21:07.000Z</time>
      </trkpt>
      <trkpt lat="48.76712" lon="1.95944">
        <ele>170.80000305176</ele>
        <time>2014-06-07T07:21:11.000Z</time>
      </trkpt>
      <trkpt lat="48.76721" lon="1.95941">
        <ele>170.80000305176</ele>
        <time>2014-06-07T07:21:17.000Z</time>
      </trkpt>
      <trkpt lat="48.7673" lon="1.95941">
        <ele>171</ele>
        <time>2014-06-07T07:21:22.000Z</time>
      </trkpt>
      <trkpt lat="48.76741" lon="1.95939">
        <ele>171.19999694824</ele>
        <time>2014-06-07T07:21:29.000Z</time>
      </trkpt>
      <trkpt lat="48.7675" lon="1.95942">
        <ele>171.39999389648</ele>
        <time>2014-06-07T07:21:35.000Z</time>
      </trkpt>
      <trkpt lat="48.76751" lon="1.95943">
        <ele>171.60000610352</ele>
        <time>2014-06-07T07:21:36.000Z</time>
      </trkpt>
      <trkpt lat="48.76761" lon="1.95945">
        <ele>171.80000305176</ele>
        <time>2014-06-07T07:21:42.000Z</time>
      </trkpt>
      <trkpt lat="48.7677" lon="1.95945">
        <ele>172</ele>
        <time>2014-06-07T07:21:47.000Z</time>
      </trkpt>
      <trkpt lat="48.76771" lon="1.95945">
        <ele>172</ele>
        <time>2014-06-07T07:21:48.000Z</time>
      </trkpt>
      <trkpt lat="48.7678" lon="1.95946">
        <ele>171.80000305176</ele>
        <time>2014-06-07T07:21:55.000Z</time>
      </trkpt>
      <trkpt lat="48.76789" lon="1.95944">
        <ele>171.80000305176</ele>
        <time>2014-06-07T07:22:01.000Z</time>
      </trkpt>
      <trkpt lat="48.76795" lon="1.95944">
        <ele>171.80000305176</ele>
        <time>2014-06-07T07:22:05.000Z</time>
      </trkpt>
      <trkpt lat="48.76806" lon="1.95942">
        <ele>171.60000610352</ele>
        <time>2014-06-07T07:22:11.000Z</time>
      </trkpt>
      <trkpt lat="48.76818" lon="1.95942">
        <ele>171.60000610352</ele>
        <time>2014-06-07T07:22:17.000Z</time>
      </trkpt>
      <trkpt lat="48.76827" lon="1.95944">
        <ele>171.60000610352</ele>
        <time>2014-06-07T07:22:22.000Z</time>
      </trkpt>
      <trkpt lat="48.76829" lon="1.95956">
        <ele>171.39999389648</ele>
        <time>2014-06-07T07:22:27.000Z</time>
      </trkpt>
      <trkpt lat="48.76829" lon="1.95969">
        <ele>171.39999389648</ele>
        <time>2014-06-07T07:22:32.000Z</time>
      </trkpt>
      <trkpt lat="48.7683" lon="1.95978">
        <ele>171.19999694824</ele>
        <time>2014-06-07T07:22:37.000Z</time>
      </trkpt>
      <trkpt lat="48.76839" lon="1.95978">
        <ele>171.19999694824</ele>
        <time>2014-06-07T07:22:43.000Z</time>
      </trkpt>
      <trkpt lat="48.7684" lon="1.95978">
        <ele>171.19999694824</ele>
        <time>2014-06-07T07:22:44.000Z</time>
      </trkpt>
      <trkpt lat="48.76848" lon="1.95978">
        <ele>171.19999694824</ele>
        <time>2014-06-07T07:22:49.000Z</time>
      </trkpt>
      <trkpt lat="48.76858" lon="1.95976">
        <ele>171</ele>
        <time>2014-06-07T07:22:56.000Z</time>
      </trkpt>
      <trkpt lat="48.76875" lon="1.95974">
        <ele>170.80000305176</ele>
        <time>2014-06-07T07:23:07.000Z</time>
      </trkpt>
      <trkpt lat="48.76878" lon="1.95973">
        <ele>170.60000610352</ele>
        <time>2014-06-07T07:23:09.000Z</time>
      </trkpt>
      <trkpt lat="48.76886" lon="1.9597">
        <ele>170.39999389648</ele>
        <time>2014-06-07T07:23:13.000Z</time>
      </trkpt>
      <trkpt lat="48.76899" lon="1.95969">
        <ele>170.19999694824</ele>
        <time>2014-06-07T07:23:20.000Z</time>
      </trkpt>
      <trkpt lat="48.76906" lon="1.95967">
        <ele>170</ele>
        <time>2014-06-07T07:23:25.000Z</time>
      </trkpt>
      <trkpt lat="48.76912" lon="1.95973">
        <ele>169.80000305176</ele>
        <time>2014-06-07T07:23:31.000Z</time>
      </trkpt>
      <trkpt lat="48.76916" lon="1.95976">
        <ele>169.80000305176</ele>
        <time>2014-06-07T07:23:34.000Z</time>
      </trkpt>
      <trkpt lat="48.76922" lon="1.95984">
        <ele>169.39999389648</ele>
        <time>2014-06-07T07:23:39.000Z</time>
      </trkpt>
      <trkpt lat="48.76928" lon="1.95992">
        <ele>169.19999694824</ele>
        <time>2014-06-07T07:23:44.000Z</time>
      </trkpt>
      <trkpt lat="48.76932" lon="1.95996">
        <ele>169.19999694824</ele>
        <time>2014-06-07T07:23:47.000Z</time>
      </trkpt>
      <trkpt lat="48.76942" lon="1.96005">
        <ele>169</ele>
        <time>2014-06-07T07:23:53.000Z</time>
      </trkpt>
      <trkpt lat="48.76948" lon="1.96017">
        <ele>169</ele>
        <time>2014-06-07T07:23:59.000Z</time>
      </trkpt>
      <trkpt lat="48.76952" lon="1.96021">
        <ele>169</ele>
        <time>2014-06-07T07:24:03.000Z</time>
      </trkpt>
      <trkpt lat="48.76959" lon="1.96022">
        <ele>168.80000305176</ele>
        <time>2014-06-07T07:24:09.000Z</time>
      </trkpt>
      <trkpt lat="48.7696" lon="1.96023">
        <ele>168.80000305176</ele>
        <time>2014-06-07T07:24:11.000Z</time>
      </trkpt>
      <trkpt lat="48.76963" lon="1.96023">
        <ele>168.80000305176</ele>
        <time>2014-06-07T07:24:13.000Z</time>
      </trkpt>
      <trkpt lat="48.76969" lon="1.96027">
        <ele>168.60000610352</ele>
        <time>2014-06-07T07:24:18.000Z</time>
      </trkpt>
      <trkpt lat="48.76974" lon="1.96031">
        <ele>168.60000610352</ele>
        <time>2014-06-07T07:24:21.000Z</time>
      </trkpt>
      <trkpt lat="48.76989" lon="1.96039">
        <ele>168.60000610352</ele>
        <time>2014-06-07T07:24:28.000Z</time>
      </trkpt>
      <trkpt lat="48.76999" lon="1.96047">
        <ele>168.39999389648</ele>
        <time>2014-06-07T07:24:36.000Z</time>
      </trkpt>
      <trkpt lat="48.77008" lon="1.96055">
        <ele>168.39999389648</ele>
        <time>2014-06-07T07:24:41.000Z</time>
      </trkpt>
      <trkpt lat="48.7701" lon="1.96056">
        <ele>168.39999389648</ele>
        <time>2014-06-07T07:24:43.000Z</time>
      </trkpt>
      <trkpt lat="48.77018" lon="1.96053">
        <ele>168.60000610352</ele>
        <time>2014-06-07T07:24:48.000Z</time>
      </trkpt>
      <trkpt lat="48.77029" lon="1.96048">
        <ele>169.19999694824</ele>
        <time>2014-06-07T07:24:54.000Z</time>
      </trkpt>
      <trkpt lat="48.77031" lon="1.96047">
        <ele>169.39999389648</ele>
        <time>2014-06-07T07:24:56.000Z</time>
      </trkpt>
      <trkpt lat="48.7704" lon="1.96042">
        <ele>169.80000305176</ele>
        <time>2014-06-07T07:25:01.000Z</time>
      </trkpt>
      <trkpt lat="48.77045" lon="1.96036">
        <ele>170.19999694824</ele>
        <time>2014-06-07T07:25:05.000Z</time>
      </trkpt>
      <trkpt lat="48.77051" lon="1.9603">
        <ele>170.60000610352</ele>
        <time>2014-06-07T07:25:09.000Z</time>
      </trkpt>
      <trkpt lat="48.77056" lon="1.96025">
        <ele>171</ele>
        <time>2014-06-07T07:25:13.000Z</time>
      </trkpt>
      <trkpt lat="48.77058" lon="1.96023">
        <ele>171.19999694824</ele>
        <time>2014-06-07T07:25:15.000Z</time>
      </trkpt>
      <trkpt lat="48.77061" lon="1.96019">
        <ele>171.19999694824</ele>
        <time>2014-06-07T07:25:18.000Z</time>
      </trkpt>
      <trkpt lat="48.77069" lon="1.96004">
        <ele>171.80000305176</ele>
        <time>2014-06-07T07:25:24.000Z</time>
      </trkpt>
      <trkpt lat="48.7708" lon="1.95986">
        <ele>172.39999389648</ele>
        <time>2014-06-07T07:25:30.000Z</time>
      </trkpt>
      <trkpt lat="48.77084" lon="1.95975">
        <ele>172.60000610352</ele>
        <time>2014-06-07T07:25:34.000Z</time>
      </trkpt>
      <trkpt lat="48.77089" lon="1.95964">
        <ele>172.39999389648</ele>
        <time>2014-06-07T07:25:39.000Z</time>
      </trkpt>
      <trkpt lat="48.77098" lon="1.95955">
        <ele>172.39999389648</ele>
        <time>2014-06-07T07:25:45.000Z</time>
      </trkpt>
      <trkpt lat="48.77108" lon="1.95947">
        <ele>172.39999389648</ele>
        <time>2014-06-07T07:25:50.000Z</time>
      </trkpt>
      <trkpt lat="48.77114" lon="1.95947">
        <ele>172.19999694824</ele>
        <time>2014-06-07T07:25:54.000Z</time>
      </trkpt>
      <trkpt lat="48.77124" lon="1.95956">
        <ele>172.19999694824</ele>
        <time>2014-06-07T07:26:01.000Z</time>
      </trkpt>
      <trkpt lat="48.77135" lon="1.95961">
        <ele>171.80000305176</ele>
        <time>2014-06-07T07:26:08.000Z</time>
      </trkpt>
      <trkpt lat="48.77151" lon="1.95958">
        <ele>171.39999389648</ele>
        <time>2014-06-07T07:26:14.000Z</time>
      </trkpt>
      <trkpt lat="48.77161" lon="1.95955">
        <ele>171.39999389648</ele>
        <time>2014-06-07T07:26:18.000Z</time>
      </trkpt>
      <trkpt lat="48.77175" lon="1.95955">
        <ele>171.19999694824</ele>
        <time>2014-06-07T07:26:23.000Z</time>
      </trkpt>
      <trkpt lat="48.77189" lon="1.95954">
        <ele>171</ele>
        <time>2014-06-07T07:26:30.000Z</time>
      </trkpt>
      <trkpt lat="48.77195" lon="1.95951">
        <ele>171</ele>
        <time>2014-06-07T07:26:37.000Z</time>
      </trkpt>
      <trkpt lat="48.77199" lon="1.95952">
        <ele>170.80000305176</ele>
        <time>2014-06-07T07:26:41.000Z</time>
      </trkpt>
      <trkpt lat="48.77203" lon="1.95955">
        <ele>170.80000305176</ele>
        <time>2014-06-07T07:26:57.000Z</time>
      </trkpt>
      <trkpt lat="48.7721" lon="1.95961">
        <ele>170.80000305176</ele>
        <time>2014-06-07T07:27:04.000Z</time>
      </trkpt>
      <trkpt lat="48.77215" lon="1.95962">
        <ele>170.60000610352</ele>
        <time>2014-06-07T07:27:08.000Z</time>
      </trkpt>
      <trkpt lat="48.77223" lon="1.95956">
        <ele>170.60000610352</ele>
        <time>2014-06-07T07:27:14.000Z</time>
      </trkpt>
      <trkpt lat="48.77225" lon="1.95956">
        <ele>170.60000610352</ele>
        <time>2014-06-07T07:27:15.000Z</time>
      </trkpt>
      <trkpt lat="48.77228" lon="1.95956">
        <ele>170.60000610352</ele>
        <time>2014-06-07T07:27:17.000Z</time>
      </trkpt>
      <trkpt lat="48.77232" lon="1.95952">
        <ele>170.39999389648</ele>
        <time>2014-06-07T07:27:21.000Z</time>
      </trkpt>
      <trkpt lat="48.77235" lon="1.95952">
        <ele>170.39999389648</ele>
        <time>2014-06-07T07:27:24.000Z</time>
      </trkpt>
      <trkpt lat="48.77247" lon="1.95956">
        <ele>170.19999694824</ele>
        <time>2014-06-07T07:27:33.000Z</time>
      </trkpt>
      <trkpt lat="48.77265" lon="1.95955">
        <ele>169.80000305176</ele>
        <time>2014-06-07T07:27:44.000Z</time>
      </trkpt>
      <trkpt lat="48.77268" lon="1.95953">
        <ele>169.60000610352</ele>
        <time>2014-06-07T07:27:46.000Z</time>
      </trkpt>
      <trkpt lat="48.77277" lon="1.9595">
        <ele>169.60000610352</ele>
        <time>2014-06-07T07:27:53.000Z</time>
      </trkpt>
      <trkpt lat="48.77288" lon="1.95948">
        <ele>169.80000305176</ele>
        <time>2014-06-07T07:28:00.000Z</time>
      </trkpt>
      <trkpt lat="48.77297" lon="1.95946">
        <ele>170</ele>
        <time>2014-06-07T07:28:06.000Z</time>
      </trkpt>
      <trkpt lat="48.77308" lon="1.95945">
        <ele>170.39999389648</ele>
        <time>2014-06-07T07:28:12.000Z</time>
      </trkpt>
      <trkpt lat="48.77318" lon="1.95945">
        <ele>170.60000610352</ele>
        <time>2014-06-07T07:28:18.000Z</time>
      </trkpt>
      <trkpt lat="48.77328" lon="1.95944">
        <ele>170.80000305176</ele>
        <time>2014-06-07T07:28:23.000Z</time>
      </trkpt>
      <trkpt lat="48.77329" lon="1.95944">
        <ele>170.80000305176</ele>
        <time>2014-06-07T07:28:24.000Z</time>
      </trkpt>
      <trkpt lat="48.77338" lon="1.95941">
        <ele>171</ele>
        <time>2014-06-07T07:28:30.000Z</time>
      </trkpt>
      <trkpt lat="48.7734" lon="1.95936">
        <ele>171</ele>
        <time>2014-06-07T07:28:33.000Z</time>
      </trkpt>
      <trkpt lat="48.77341" lon="1.95929">
        <ele>171</ele>
        <time>2014-06-07T07:28:36.000Z</time>
      </trkpt>
      <trkpt lat="48.77342" lon="1.95921">
        <ele>170.80000305176</ele>
        <time>2014-06-07T07:28:40.000Z</time>
      </trkpt>
      <trkpt lat="48.77342" lon="1.95915">
        <ele>170.80000305176</ele>
        <time>2014-06-07T07:28:43.000Z</time>
      </trkpt>
      <trkpt lat="48.77348" lon="1.95897">
        <ele>171</ele>
        <time>2014-06-07T07:28:50.000Z</time>
      </trkpt>
      <trkpt lat="48.77358" lon="1.95886">
        <ele>171</ele>
        <time>2014-06-07T07:28:57.000Z</time>
      </trkpt>
      <trkpt lat="48.77372" lon="1.95878">
        <ele>170.80000305176</ele>
        <time>2014-06-07T07:29:06.000Z</time>
      </trkpt>
      <trkpt lat="48.77388" lon="1.95867">
        <ele>170.60000610352</ele>
        <time>2014-06-07T07:29:17.000Z</time>
      </trkpt>
      <trkpt lat="48.77389" lon="1.95865">
        <ele>170.60000610352</ele>
        <time>2014-06-07T07:29:18.000Z</time>
      </trkpt>
      <trkpt lat="48.77397" lon="1.9586">
        <ele>170.60000610352</ele>
        <time>2014-06-07T07:29:24.000Z</time>
      </trkpt>
      <trkpt lat="48.77405" lon="1.95862">
        <ele>170.80000305176</ele>
        <time>2014-06-07T07:29:29.000Z</time>
      </trkpt>
      <trkpt lat="48.77417" lon="1.95872">
        <ele>170.60000610352</ele>
        <time>2014-06-07T07:29:36.000Z</time>
      </trkpt>
      <trkpt lat="48.77427" lon="1.95882">
        <ele>170.39999389648</ele>
        <time>2014-06-07T07:29:43.000Z</time>
      </trkpt>
      <trkpt lat="48.77429" lon="1.95883">
        <ele>170.39999389648</ele>
        <time>2014-06-07T07:29:44.000Z</time>
      </trkpt>
      <trkpt lat="48.77431" lon="1.95885">
        <ele>170.39999389648</ele>
        <time>2014-06-07T07:29:46.000Z</time>
      </trkpt>
      <trkpt lat="48.77437" lon="1.95892">
        <ele>170.39999389648</ele>
        <time>2014-06-07T07:29:51.000Z</time>
      </trkpt>
      <trkpt lat="48.77448" lon="1.95902">
        <ele>169.80000305176</ele>
        <time>2014-06-07T07:29:56.000Z</time>
      </trkpt>
      <trkpt lat="48.77452" lon="1.95907">
        <ele>169.60000610352</ele>
        <time>2014-06-07T07:29:58.000Z</time>
      </trkpt>
      <trkpt lat="48.77467" lon="1.95918">
        <ele>169.60000610352</ele>
        <time>2014-06-07T07:30:04.000Z</time>
      </trkpt>
      <trkpt lat="48.7748" lon="1.95928">
        <ele>169.60000610352</ele>
        <time>2014-06-07T07:30:10.000Z</time>
      </trkpt>
      <trkpt lat="48.77493" lon="1.95939">
        <ele>169.80000305176</ele>
        <time>2014-06-07T07:30:16.000Z</time>
      </trkpt>
      <trkpt lat="48.77503" lon="1.95952">
        <ele>170</ele>
        <time>2014-06-07T07:30:22.000Z</time>
      </trkpt>
      <trkpt lat="48.77507" lon="1.95964">
        <ele>170.39999389648</ele>
        <time>2014-06-07T07:30:28.000Z</time>
      </trkpt>
      <trkpt lat="48.77508" lon="1.95966">
        <ele>170.39999389648</ele>
        <time>2014-06-07T07:30:29.000Z</time>
      </trkpt>
      <trkpt lat="48.77512" lon="1.95973">
        <ele>170.60000610352</ele>
        <time>2014-06-07T07:30:34.000Z</time>
      </trkpt>
      <trkpt lat="48.7752" lon="1.95982">
        <ele>170.80000305176</ele>
        <time>2014-06-07T07:30:40.000Z</time>
      </trkpt>
      <trkpt lat="48.7752" lon="1.95983">
        <ele>170.80000305176</ele>
        <time>2014-06-07T07:30:41.000Z</time>
      </trkpt>
      <trkpt lat="48.77526" lon="1.9599">
        <ele>170.80000305176</ele>
        <time>2014-06-07T07:30:47.000Z</time>
      </trkpt>
      <trkpt lat="48.77527" lon="1.95991">
        <ele>170.80000305176</ele>
        <time>2014-06-07T07:30:49.000Z</time>
      </trkpt>
      <trkpt lat="48.77531" lon="1.95996">
        <ele>170.60000610352</ele>
        <time>2014-06-07T07:30:53.000Z</time>
      </trkpt>
      <trkpt lat="48.77536" lon="1.95996">
        <ele>170.39999389648</ele>
        <time>2014-06-07T07:30:56.000Z</time>
      </trkpt>
      <trkpt lat="48.77543" lon="1.95988">
        <ele>170</ele>
        <time>2014-06-07T07:31:02.000Z</time>
      </trkpt>
      <trkpt lat="48.77546" lon="1.95978">
        <ele>169.60000610352</ele>
        <time>2014-06-07T07:31:07.000Z</time>
      </trkpt>
      <trkpt lat="48.77549" lon="1.95969">
        <ele>169.19999694824</ele>
        <time>2014-06-07T07:31:11.000Z</time>
      </trkpt>
      <trkpt lat="48.77554" lon="1.95951">
        <ele>168.39999389648</ele>
        <time>2014-06-07T07:31:19.000Z</time>
      </trkpt>
      <trkpt lat="48.77557" lon="1.9594">
        <ele>168</ele>
        <time>2014-06-07T07:31:24.000Z</time>
      </trkpt>
      <trkpt lat="48.77558" lon="1.95934">
        <ele>167.80000305176</ele>
        <time>2014-06-07T07:31:29.000Z</time>
      </trkpt>
      <trkpt lat="48.77561" lon="1.95919">
        <ele>167.39999389648</ele>
        <time>2014-06-07T07:32:06.000Z</time>
      </trkpt>
      <trkpt lat="48.77562" lon="1.95918">
        <ele>167.19999694824</ele>
        <time>2014-06-07T07:32:07.000Z</time>
      </trkpt>
      <trkpt lat="48.77565" lon="1.95916">
        <ele>167.19999694824</ele>
        <time>2014-06-07T07:32:09.000Z</time>
      </trkpt>
      <trkpt lat="48.77575" lon="1.95907">
        <ele>166.80000305176</ele>
        <time>2014-06-07T07:32:14.000Z</time>
      </trkpt>
      <trkpt lat="48.77585" lon="1.95899">
        <ele>166.39999389648</ele>
        <time>2014-06-07T07:32:19.000Z</time>
      </trkpt>
      <trkpt lat="48.77589" lon="1.95897">
        <ele>166.39999389648</ele>
        <time>2014-06-07T07:32:22.000Z</time>
      </trkpt>
      <trkpt lat="48.77596" lon="1.95897">
        <ele>166.19999694824</ele>
        <time>2014-06-07T07:32:27.000Z</time>
      </trkpt>
      <trkpt lat="48.77604" lon="1.959">
        <ele>166.19999694824</ele>
        <time>2014-06-07T07:32:32.000Z</time>
      </trkpt>
      <trkpt lat="48.7761" lon="1.95901">
        <ele>166.19999694824</ele>
        <time>2014-06-07T07:32:35.000Z</time>
      </trkpt>
      <trkpt lat="48.77619" lon="1.95902">
        <ele>166.19999694824</ele>
        <time>2014-06-07T07:32:40.000Z</time>
      </trkpt>
      <trkpt lat="48.77627" lon="1.95904">
        <ele>166.39999389648</ele>
        <time>2014-06-07T07:32:45.000Z</time>
      </trkpt>
      <trkpt lat="48.77631" lon="1.95905">
        <ele>166.39999389648</ele>
        <time>2014-06-07T07:32:47.000Z</time>
      </trkpt>
      <trkpt lat="48.77642" lon="1.95911">
        <ele>166.39999389648</ele>
        <time>2014-06-07T07:32:53.000Z</time>
      </trkpt>
      <trkpt lat="48.77644" lon="1.95913">
        <ele>166.39999389648</ele>
        <time>2014-06-07T07:32:55.000Z</time>
      </trkpt>
      <trkpt lat="48.77656" lon="1.95913">
        <ele>166.60000610352</ele>
        <time>2014-06-07T07:33:01.000Z</time>
      </trkpt>
      <trkpt lat="48.77659" lon="1.95913">
        <ele>166.60000610352</ele>
        <time>2014-06-07T07:33:02.000Z</time>
      </trkpt>
      <trkpt lat="48.77672" lon="1.95913">
        <ele>166.80000305176</ele>
        <time>2014-06-07T07:33:09.000Z</time>
      </trkpt>
      <trkpt lat="48.77673" lon="1.95913">
        <ele>166.80000305176</ele>
        <time>2014-06-07T07:33:10.000Z</time>
      </trkpt>
      <trkpt lat="48.77677" lon="1.95912">
        <ele>166.80000305176</ele>
        <time>2014-06-07T07:33:14.000Z</time>
      </trkpt>
      <trkpt lat="48.77683" lon="1.95914">
        <ele>166.80000305176</ele>
        <time>2014-06-07T07:33:18.000Z</time>
      </trkpt>
      <trkpt lat="48.77684" lon="1.95913">
        <ele>166.80000305176</ele>
        <time>2014-06-07T07:33:20.000Z</time>
      </trkpt>
      <trkpt lat="48.7769" lon="1.95913">
        <ele>167</ele>
        <time>2014-06-07T07:33:24.000Z</time>
      </trkpt>
      <trkpt lat="48.77706" lon="1.95915">
        <ele>166.80000305176</ele>
        <time>2014-06-07T07:33:33.000Z</time>
      </trkpt>
      <trkpt lat="48.77728" lon="1.95913">
        <ele>166.80000305176</ele>
        <time>2014-06-07T07:33:44.000Z</time>
      </trkpt>
      <trkpt lat="48.77741" lon="1.95913">
        <ele>166.80000305176</ele>
        <time>2014-06-07T07:33:52.000Z</time>
      </trkpt>
      <trkpt lat="48.77742" lon="1.95913">
        <ele>166.80000305176</ele>
        <time>2014-06-07T07:33:53.000Z</time>
      </trkpt>
      <trkpt lat="48.77752" lon="1.95915">
        <ele>166.80000305176</ele>
        <time>2014-06-07T07:33:58.000Z</time>
      </trkpt>
      <trkpt lat="48.77756" lon="1.95917">
        <ele>166.80000305176</ele>
        <time>2014-06-07T07:34:01.000Z</time>
      </trkpt>
      <trkpt lat="48.77764" lon="1.95924">
        <ele>166.60000610352</ele>
        <time>2014-06-07T07:34:08.000Z</time>
      </trkpt>
      <trkpt lat="48.77772" lon="1.95933">
        <ele>166.39999389648</ele>
        <time>2014-06-07T07:34:15.000Z</time>
      </trkpt>
      <trkpt lat="48.77783" lon="1.95941">
        <ele>166.39999389648</ele>
        <time>2014-06-07T07:34:22.000Z</time>
      </trkpt>
      <trkpt lat="48.77795" lon="1.95954">
        <ele>166.19999694824</ele>
        <time>2014-06-07T07:34:31.000Z</time>
      </trkpt>
      <trkpt lat="48.77796" lon="1.95955">
        <ele>166.19999694824</ele>
        <time>2014-06-07T07:34:32.000Z</time>
      </trkpt>
      <trkpt lat="48.77805" lon="1.95954">
        <ele>166.19999694824</ele>
        <time>2014-06-07T07:34:38.000Z</time>
      </trkpt>
      <trkpt lat="48.77807" lon="1.95951">
        <ele>166.39999389648</ele>
        <time>2014-06-07T07:34:40.000Z</time>
      </trkpt>
      <trkpt lat="48.77817" lon="1.95948">
        <ele>166.39999389648</ele>
        <time>2014-06-07T07:34:45.000Z</time>
      </trkpt>
      <trkpt lat="48.77825" lon="1.95947">
        <ele>166.39999389648</ele>
        <time>2014-06-07T07:34:50.000Z</time>
      </trkpt>
      <trkpt lat="48.77829" lon="1.95947">
        <ele>166.39999389648</ele>
        <time>2014-06-07T07:34:52.000Z</time>
      </trkpt>
      <trkpt lat="48.77832" lon="1.95954">
        <ele>166.19999694824</ele>
        <time>2014-06-07T07:34:56.000Z</time>
      </trkpt>
      <trkpt lat="48.7783" lon="1.95971">
        <ele>166.19999694824</ele>
        <time>2014-06-07T07:35:03.000Z</time>
      </trkpt>
      <trkpt lat="48.77831" lon="1.95987">
        <ele>165.80000305176</ele>
        <time>2014-06-07T07:35:09.000Z</time>
      </trkpt>
      <trkpt lat="48.77831" lon="1.95993">
        <ele>165.80000305176</ele>
        <time>2014-06-07T07:35:11.000Z</time>
      </trkpt>
      <trkpt lat="48.7783" lon="1.96017">
        <ele>166</ele>
        <time>2014-06-07T07:35:17.000Z</time>
      </trkpt>
      <trkpt lat="48.77831" lon="1.96027">
        <ele>166.19999694824</ele>
        <time>2014-06-07T07:35:20.000Z</time>
      </trkpt>
      <trkpt lat="48.77843" lon="1.96038">
        <ele>166.39999389648</ele>
        <time>2014-06-07T07:35:26.000Z</time>
      </trkpt>
      <trkpt lat="48.77853" lon="1.96043">
        <ele>166.60000610352</ele>
        <time>2014-06-07T07:35:32.000Z</time>
      </trkpt>
      <trkpt lat="48.77859" lon="1.96048">
        <ele>166.39999389648</ele>
        <time>2014-06-07T07:35:38.000Z</time>
      </trkpt>
      <trkpt lat="48.77868" lon="1.96054">
        <ele>166</ele>
        <time>2014-06-07T07:35:45.000Z</time>
      </trkpt>
      <trkpt lat="48.77878" lon="1.96058">
        <ele>165.39999389648</ele>
        <time>2014-06-07T07:35:51.000Z</time>
      </trkpt>
      <trkpt lat="48.7789" lon="1.96063">
        <ele>164.80000305176</ele>
        <time>2014-06-07T07:35:59.000Z</time>
      </trkpt>
      <trkpt lat="48.779" lon="1.96071">
        <ele>164.19999694824</ele>
        <time>2014-06-07T07:36:06.000Z</time>
      </trkpt>
      <trkpt lat="48.77908" lon="1.96076">
        <ele>163.80000305176</ele>
        <time>2014-06-07T07:36:12.000Z</time>
      </trkpt>
      <trkpt lat="48.77917" lon="1.96082">
        <ele>163.19999694824</ele>
        <time>2014-06-07T07:36:20.000Z</time>
      </trkpt>
      <trkpt lat="48.77925" lon="1.96085">
        <ele>162.80000305176</ele>
        <time>2014-06-07T07:36:24.000Z</time>
      </trkpt>
      <trkpt lat="48.77928" lon="1.96086">
        <ele>162.60000610352</ele>
        <time>2014-06-07T07:36:26.000Z</time>
      </trkpt>
      <trkpt lat="48.77938" lon="1.96095">
        <ele>162</ele>
        <time>2014-06-07T07:36:33.000Z</time>
      </trkpt>
      <trkpt lat="48.77939" lon="1.96096">
        <ele>162</ele>
        <time>2014-06-07T07:36:34.000Z</time>
      </trkpt>
      <trkpt lat="48.77946" lon="1.96096">
        <ele>161.39999389648</ele>
        <time>2014-06-07T07:36:38.000Z</time>
      </trkpt>
      <trkpt lat="48.7795" lon="1.96096">
        <ele>161</ele>
        <time>2014-06-07T07:36:41.000Z</time>
      </trkpt>
      <trkpt lat="48.77961" lon="1.96105">
        <ele>160</ele>
        <time>2014-06-07T07:36:47.000Z</time>
      </trkpt>
      <trkpt lat="48.77972" lon="1.96113">
        <ele>159.19999694824</ele>
        <time>2014-06-07T07:36:52.000Z</time>
      </trkpt>
      <trkpt lat="48.77982" lon="1.96123">
        <ele>158.19999694824</ele>
        <time>2014-06-07T07:36:57.000Z</time>
      </trkpt>
      <trkpt lat="48.77996" lon="1.96131">
        <ele>157.19999694824</ele>
        <time>2014-06-07T07:37:03.000Z</time>
      </trkpt>
      <trkpt lat="48.78005" lon="1.96138">
        <ele>156.39999389648</ele>
        <time>2014-06-07T07:37:08.000Z</time>
      </trkpt>
      <trkpt lat="48.7802" lon="1.96148">
        <ele>155</ele>
        <time>2014-06-07T07:37:15.000Z</time>
      </trkpt>
      <trkpt lat="48.78035" lon="1.96162">
        <ele>153.80000305176</ele>
        <time>2014-06-07T07:37:23.000Z</time>
      </trkpt>
      <trkpt lat="48.7805" lon="1.96171">
        <ele>152.39999389648</ele>
        <time>2014-06-07T07:37:29.000Z</time>
      </trkpt>
      <trkpt lat="48.78065" lon="1.96183">
        <ele>151.19999694824</ele>
        <time>2014-06-07T07:37:35.000Z</time>
      </trkpt>
      <trkpt lat="48.78074" lon="1.96194">
        <ele>150.39999389648</ele>
        <time>2014-06-07T07:37:40.000Z</time>
      </trkpt>
      <trkpt lat="48.78084" lon="1.96208">
        <ele>149.60000610352</ele>
        <time>2014-06-07T07:37:47.000Z</time>
      </trkpt>
      <trkpt lat="48.78096" lon="1.96217">
        <ele>148.60000610352</ele>
        <time>2014-06-07T07:37:53.000Z</time>
      </trkpt>
      <trkpt lat="48.78111" lon="1.96227">
        <ele>147.19999694824</ele>
        <time>2014-06-07T07:37:59.000Z</time>
      </trkpt>
      <trkpt lat="48.78125" lon="1.96241">
        <ele>146.39999389648</ele>
        <time>2014-06-07T07:38:05.000Z</time>
      </trkpt>
      <trkpt lat="48.78133" lon="1.96248">
        <ele>145.60000610352</ele>
        <time>2014-06-07T07:38:10.000Z</time>
      </trkpt>
      <trkpt lat="48.7814" lon="1.96253">
        <ele>145</ele>
        <time>2014-06-07T07:38:15.000Z</time>
      </trkpt>
      <trkpt lat="48.7815" lon="1.96262">
        <ele>144.19999694824</ele>
        <time>2014-06-07T07:38:23.000Z</time>
      </trkpt>
      <trkpt lat="48.7816" lon="1.96269">
        <ele>143.39999389648</ele>
        <time>2014-06-07T07:38:31.000Z</time>
      </trkpt>
      <trkpt lat="48.78169" lon="1.96274">
        <ele>142.60000610352</ele>
        <time>2014-06-07T07:38:36.000Z</time>
      </trkpt>
      <trkpt lat="48.78177" lon="1.96278">
        <ele>142</ele>
        <time>2014-06-07T07:38:42.000Z</time>
      </trkpt>
      <trkpt lat="48.78178" lon="1.9628">
        <ele>141.80000305176</ele>
        <time>2014-06-07T07:38:43.000Z</time>
      </trkpt>
      <trkpt lat="48.78182" lon="1.96286">
        <ele>141.60000610352</ele>
        <time>2014-06-07T07:38:47.000Z</time>
      </trkpt>
      <trkpt lat="48.78194" lon="1.96292">
        <ele>140.60000610352</ele>
        <time>2014-06-07T07:38:53.000Z</time>
      </trkpt>
      <trkpt lat="48.78203" lon="1.96296">
        <ele>140</ele>
        <time>2014-06-07T07:38:58.000Z</time>
      </trkpt>
      <trkpt lat="48.78212" lon="1.96303">
        <ele>139.60000610352</ele>
        <time>2014-06-07T07:39:04.000Z</time>
      </trkpt>
      <trkpt lat="48.78219" lon="1.96308">
        <ele>139.19999694824</ele>
        <time>2014-06-07T07:39:10.000Z</time>
      </trkpt>
      <trkpt lat="48.78225" lon="1.96312">
        <ele>138.80000305176</ele>
        <time>2014-06-07T07:39:16.000Z</time>
      </trkpt>
      <trkpt lat="48.78234" lon="1.96314">
        <ele>138.19999694824</ele>
        <time>2014-06-07T07:39:22.000Z</time>
      </trkpt>
      <trkpt lat="48.78238" lon="1.96321">
        <ele>138</ele>
        <time>2014-06-07T07:39:26.000Z</time>
      </trkpt>
      <trkpt lat="48.78247" lon="1.96333">
        <ele>137.60000610352</ele>
        <time>2014-06-07T07:39:34.000Z</time>
      </trkpt>
      <trkpt lat="48.78251" lon="1.96336">
        <ele>137.60000610352</ele>
        <time>2014-06-07T07:39:37.000Z</time>
      </trkpt>
      <trkpt lat="48.78252" lon="1.96346">
        <ele>137.60000610352</ele>
        <time>2014-06-07T07:39:42.000Z</time>
      </trkpt>
      <trkpt lat="48.78248" lon="1.96358">
        <ele>138.19999694824</ele>
        <time>2014-06-07T07:39:49.000Z</time>
      </trkpt>
      <trkpt lat="48.78248" lon="1.9636">
        <ele>138.19999694824</ele>
        <time>2014-06-07T07:39:50.000Z</time>
      </trkpt>
      <trkpt lat="48.78247" lon="1.9638">
        <ele>138.80000305176</ele>
        <time>2014-06-07T07:39:58.000Z</time>
      </trkpt>
      <trkpt lat="48.78248" lon="1.96386">
        <ele>138.80000305176</ele>
        <time>2014-06-07T07:40:01.000Z</time>
      </trkpt>
      <trkpt lat="48.78244" lon="1.96394">
        <ele>138.80000305176</ele>
        <time>2014-06-07T07:40:08.000Z</time>
      </trkpt>
      <trkpt lat="48.78243" lon="1.96397">
        <ele>138.80000305176</ele>
        <time>2014-06-07T07:40:11.000Z</time>
      </trkpt>
      <trkpt lat="48.78243" lon="1.96394">
        <ele>138.80000305176</ele>
        <time>2014-06-07T07:41:06.000Z</time>
      </trkpt>
      <trkpt lat="48.78237" lon="1.96417">
        <ele>139</ele>
        <time>2014-06-07T07:41:17.000Z</time>
      </trkpt>
      <trkpt lat="48.78235" lon="1.96425">
        <ele>139</ele>
        <time>2014-06-07T07:41:21.000Z</time>
      </trkpt>
      <trkpt lat="48.78235" lon="1.96428">
        <ele>139.19999694824</ele>
        <time>2014-06-07T07:41:23.000Z</time>
      </trkpt>
      <trkpt lat="48.7824" lon="1.9643">
        <ele>139</ele>
        <time>2014-06-07T07:41:27.000Z</time>
      </trkpt>
      <trkpt lat="48.78249" lon="1.96437">
        <ele>138.80000305176</ele>
        <time>2014-06-07T07:41:34.000Z</time>
      </trkpt>
      <trkpt lat="48.78251" lon="1.96438">
        <ele>138.80000305176</ele>
        <time>2014-06-07T07:41:35.000Z</time>
      </trkpt>
      <trkpt lat="48.78259" lon="1.96439">
        <ele>138.60000610352</ele>
        <time>2014-06-07T07:41:41.000Z</time>
      </trkpt>
      <trkpt lat="48.78267" lon="1.96443">
        <ele>138.60000610352</ele>
        <time>2014-06-07T07:41:46.000Z</time>
      </trkpt>
      <trkpt lat="48.78274" lon="1.96448">
        <ele>138.39999389648</ele>
        <time>2014-06-07T07:41:51.000Z</time>
      </trkpt>
      <trkpt lat="48.78275" lon="1.96449">
        <ele>138.39999389648</ele>
        <time>2014-06-07T07:41:52.000Z</time>
      </trkpt>
      <trkpt lat="48.7828" lon="1.96449">
        <ele>138.19999694824</ele>
        <time>2014-06-07T07:41:56.000Z</time>
      </trkpt>
      <trkpt lat="48.78285" lon="1.96452">
        <ele>138.19999694824</ele>
        <time>2014-06-07T07:42:01.000Z</time>
      </trkpt>
      <trkpt lat="48.78288" lon="1.96453">
        <ele>138.19999694824</ele>
        <time>2014-06-07T07:42:03.000Z</time>
      </trkpt>
      <trkpt lat="48.78294" lon="1.96457">
        <ele>138</ele>
        <time>2014-06-07T07:42:07.000Z</time>
      </trkpt>
      <trkpt lat="48.78304" lon="1.96463">
        <ele>137.80000305176</ele>
        <time>2014-06-07T07:42:14.000Z</time>
      </trkpt>
      <trkpt lat="48.78308" lon="1.96466">
        <ele>137.80000305176</ele>
        <time>2014-06-07T07:42:19.000Z</time>
      </trkpt>
      <trkpt lat="48.78312" lon="1.96479">
        <ele>137.80000305176</ele>
        <time>2014-06-07T07:42:26.000Z</time>
      </trkpt>
      <trkpt lat="48.78312" lon="1.96481">
        <ele>138</ele>
        <time>2014-06-07T07:42:28.000Z</time>
      </trkpt>
      <trkpt lat="48.78313" lon="1.96494">
        <ele>138.19999694824</ele>
        <time>2014-06-07T07:42:35.000Z</time>
      </trkpt>
      <trkpt lat="48.78313" lon="1.96495">
        <ele>138.19999694824</ele>
        <time>2014-06-07T07:42:36.000Z</time>
      </trkpt>
      <trkpt lat="48.78314" lon="1.96498">
        <ele>138.39999389648</ele>
        <time>2014-06-07T07:42:38.000Z</time>
      </trkpt>
      <trkpt lat="48.78314" lon="1.96506">
        <ele>138.80000305176</ele>
        <time>2014-06-07T07:42:42.000Z</time>
      </trkpt>
      <trkpt lat="48.78314" lon="1.96526">
        <ele>140</ele>
        <time>2014-06-07T07:42:50.000Z</time>
      </trkpt>
      <trkpt lat="48.78311" lon="1.96535">
        <ele>140.39999389648</ele>
        <time>2014-06-07T07:42:54.000Z</time>
      </trkpt>
      <trkpt lat="48.7831" lon="1.96545">
        <ele>140.19999694824</ele>
        <time>2014-06-07T07:42:58.000Z</time>
      </trkpt>
      <trkpt lat="48.78304" lon="1.96558">
        <ele>139.80000305176</ele>
        <time>2014-06-07T07:43:04.000Z</time>
      </trkpt>
      <trkpt lat="48.783" lon="1.96564">
        <ele>139.60000610352</ele>
        <time>2014-06-07T07:43:08.000Z</time>
      </trkpt>
      <trkpt lat="48.78297" lon="1.96566">
        <ele>139.39999389648</ele>
        <time>2014-06-07T07:43:11.000Z</time>
      </trkpt>
      <trkpt lat="48.78295" lon="1.96572">
        <ele>139.19999694824</ele>
        <time>2014-06-07T07:43:18.000Z</time>
      </trkpt>
      <trkpt lat="48.78289" lon="1.96575">
        <ele>139</ele>
        <time>2014-06-07T07:43:23.000Z</time>
      </trkpt>
      <trkpt lat="48.78285" lon="1.96579">
        <ele>139</ele>
        <time>2014-06-07T07:43:25.000Z</time>
      </trkpt>
      <trkpt lat="48.78281" lon="1.96589">
        <ele>139</ele>
        <time>2014-06-07T07:43:29.000Z</time>
      </trkpt>
      <trkpt lat="48.78282" lon="1.96597">
        <ele>139.19999694824</ele>
        <time>2014-06-07T07:43:34.000Z</time>
      </trkpt>
      <trkpt lat="48.78285" lon="1.96591">
        <ele>139.39999389648</ele>
        <time>2014-06-07T07:43:39.000Z</time>
      </trkpt>
      <trkpt lat="48.78289" lon="1.96586">
        <ele>139.60000610352</ele>
        <time>2014-06-07T07:43:42.000Z</time>
      </trkpt>
      <trkpt lat="48.78296" lon="1.96581">
        <ele>139.60000610352</ele>
        <time>2014-06-07T07:43:46.000Z</time>
      </trkpt>
      <trkpt lat="48.78303" lon="1.96566">
        <ele>139.60000610352</ele>
        <time>2014-06-07T07:43:52.000Z</time>
      </trkpt>
      <trkpt lat="48.78307" lon="1.96557">
        <ele>140</ele>
        <time>2014-06-07T07:43:57.000Z</time>
      </trkpt>
      <trkpt lat="48.78308" lon="1.96546">
        <ele>140.19999694824</ele>
        <time>2014-06-07T07:44:01.000Z</time>
      </trkpt>
      <trkpt lat="48.7831" lon="1.96529">
        <ele>140.39999389648</ele>
        <time>2014-06-07T07:44:07.000Z</time>
      </trkpt>
      <trkpt lat="48.78309" lon="1.96521">
        <ele>139.80000305176</ele>
        <time>2014-06-07T07:44:12.000Z</time>
      </trkpt>
      <trkpt lat="48.78314" lon="1.96506">
        <ele>138.80000305176</ele>
        <time>2014-06-07T07:44:19.000Z</time>
      </trkpt>
      <trkpt lat="48.78314" lon="1.96493">
        <ele>138</ele>
        <time>2014-06-07T07:44:25.000Z</time>
      </trkpt>
      <trkpt lat="48.78315" lon="1.9649">
        <ele>138</ele>
        <time>2014-06-07T07:44:28.000Z</time>
      </trkpt>
      <trkpt lat="48.78317" lon="1.96485">
        <ele>137.80000305176</ele>
        <time>2014-06-07T07:44:49.000Z</time>
      </trkpt>
      <trkpt lat="48.78323" lon="1.96481">
        <ele>137.60000610352</ele>
        <time>2014-06-07T07:45:03.000Z</time>
      </trkpt>
      <trkpt lat="48.78327" lon="1.96487">
        <ele>137.60000610352</ele>
        <time>2014-06-07T07:45:09.000Z</time>
      </trkpt>
      <trkpt lat="48.78329" lon="1.96493">
        <ele>137.80000305176</ele>
        <time>2014-06-07T07:45:12.000Z</time>
      </trkpt>
      <trkpt lat="48.78336" lon="1.96504">
        <ele>138.19999694824</ele>
        <time>2014-06-07T07:45:18.000Z</time>
      </trkpt>
      <trkpt lat="48.78338" lon="1.96509">
        <ele>138.39999389648</ele>
        <time>2014-06-07T07:45:20.000Z</time>
      </trkpt>
      <trkpt lat="48.78342" lon="1.9652">
        <ele>139</ele>
        <time>2014-06-07T07:45:26.000Z</time>
      </trkpt>
      <trkpt lat="48.78348" lon="1.96526">
        <ele>139.19999694824</ele>
        <time>2014-06-07T07:45:32.000Z</time>
      </trkpt>
      <trkpt lat="48.78348" lon="1.96526">
        <ele>139.19999694824</ele>
        <time>2014-06-07T07:45:33.000Z</time>
      </trkpt>
      <trkpt lat="48.78358" lon="1.96527">
        <ele>139.60000610352</ele>
        <time>2014-06-07T07:45:39.000Z</time>
      </trkpt>
      <trkpt lat="48.78363" lon="1.96529">
        <ele>140.39999389648</ele>
        <time>2014-06-07T07:45:42.000Z</time>
      </trkpt>
      <trkpt lat="48.78372" lon="1.9653">
        <ele>141.80000305176</ele>
        <time>2014-06-07T07:45:49.000Z</time>
      </trkpt>
      <trkpt lat="48.78374" lon="1.9653">
        <ele>142.19999694824</ele>
        <time>2014-06-07T07:45:52.000Z</time>
      </trkpt>
      <trkpt lat="48.78377" lon="1.96533">
        <ele>142.80000305176</ele>
        <time>2014-06-07T07:45:55.000Z</time>
      </trkpt>
      <trkpt lat="48.7838" lon="1.96544">
        <ele>143.80000305176</ele>
        <time>2014-06-07T07:46:00.000Z</time>
      </trkpt>
      <trkpt lat="48.78383" lon="1.96555">
        <ele>144.80000305176</ele>
        <time>2014-06-07T07:46:05.000Z</time>
      </trkpt>
      <trkpt lat="48.78384" lon="1.96565">
        <ele>145.60000610352</ele>
        <time>2014-06-07T07:46:10.000Z</time>
      </trkpt>
      <trkpt lat="48.78385" lon="1.96573">
        <ele>146.19999694824</ele>
        <time>2014-06-07T07:46:14.000Z</time>
      </trkpt>
      <trkpt lat="48.78388" lon="1.96587">
        <ele>147.80000305176</ele>
        <time>2014-06-07T07:46:21.000Z</time>
      </trkpt>
      <trkpt lat="48.78382" lon="1.96595">
        <ele>147.80000305176</ele>
        <time>2014-06-07T07:46:28.000Z</time>
      </trkpt>
      <trkpt lat="48.78383" lon="1.96613">
        <ele>149.19999694824</ele>
        <time>2014-06-07T07:46:36.000Z</time>
      </trkpt>
      <trkpt lat="48.78382" lon="1.96615">
        <ele>149.19999694824</ele>
        <time>2014-06-07T07:46:37.000Z</time>
      </trkpt>
      <trkpt lat="48.78381" lon="1.96622">
        <ele>149.39999389648</ele>
        <time>2014-06-07T07:46:40.000Z</time>
      </trkpt>
      <trkpt lat="48.78376" lon="1.96628">
        <ele>148.80000305176</ele>
        <time>2014-06-07T07:46:44.000Z</time>
      </trkpt>
      <trkpt lat="48.78375" lon="1.96642">
        <ele>149.39999389648</ele>
        <time>2014-06-07T07:46:50.000Z</time>
      </trkpt>
      <trkpt lat="48.78374" lon="1.96652">
        <ele>150</ele>
        <time>2014-06-07T07:46:55.000Z</time>
      </trkpt>
      <trkpt lat="48.7837" lon="1.96663">
        <ele>150</ele>
        <time>2014-06-07T07:47:02.000Z</time>
      </trkpt>
      <trkpt lat="48.7837" lon="1.9667">
        <ele>150.39999389648</ele>
        <time>2014-06-07T07:47:06.000Z</time>
      </trkpt>
      <trkpt lat="48.78367" lon="1.96677">
        <ele>150.80000305176</ele>
        <time>2014-06-07T07:47:11.000Z</time>
      </trkpt>
      <trkpt lat="48.78365" lon="1.96684">
        <ele>151.39999389648</ele>
        <time>2014-06-07T07:47:16.000Z</time>
      </trkpt>
      <trkpt lat="48.7836" lon="1.96697">
        <ele>152.39999389648</ele>
        <time>2014-06-07T07:47:24.000Z</time>
      </trkpt>
      <trkpt lat="48.78355" lon="1.96704">
        <ele>152.60000610352</ele>
        <time>2014-06-07T07:47:30.000Z</time>
      </trkpt>
      <trkpt lat="48.78352" lon="1.96712">
        <ele>153.19999694824</ele>
        <time>2014-06-07T07:47:35.000Z</time>
      </trkpt>
      <trkpt lat="48.78347" lon="1.96716">
        <ele>153.19999694824</ele>
        <time>2014-06-07T07:47:40.000Z</time>
      </trkpt>
      <trkpt lat="48.78345" lon="1.96718">
        <ele>153.19999694824</ele>
        <time>2014-06-07T07:47:42.000Z</time>
      </trkpt>
      <trkpt lat="48.78343" lon="1.96721">
        <ele>153.39999389648</ele>
        <time>2014-06-07T07:47:44.000Z</time>
      </trkpt>
      <trkpt lat="48.78337" lon="1.9673">
        <ele>153.80000305176</ele>
        <time>2014-06-07T07:47:50.000Z</time>
      </trkpt>
      <trkpt lat="48.78336" lon="1.96734">
        <ele>154.19999694824</ele>
        <time>2014-06-07T07:47:53.000Z</time>
      </trkpt>
      <trkpt lat="48.78334" lon="1.96749">
        <ele>155.39999389648</ele>
        <time>2014-06-07T07:48:00.000Z</time>
      </trkpt>
      <trkpt lat="48.78332" lon="1.96756">
        <ele>155.60000610352</ele>
        <time>2014-06-07T07:48:06.000Z</time>
      </trkpt>
      <trkpt lat="48.78333" lon="1.96759">
        <ele>156</ele>
        <time>2014-06-07T07:48:08.000Z</time>
      </trkpt>
      <trkpt lat="48.78338" lon="1.96771">
        <ele>157.39999389648</ele>
        <time>2014-06-07T07:48:14.000Z</time>
      </trkpt>
      <trkpt lat="48.78339" lon="1.9678">
        <ele>158</ele>
        <time>2014-06-07T07:48:17.000Z</time>
      </trkpt>
      <trkpt lat="48.78341" lon="1.9679">
        <ele>159</ele>
        <time>2014-06-07T07:48:23.000Z</time>
      </trkpt>
      <trkpt lat="48.78344" lon="1.96796">
        <ele>159.80000305176</ele>
        <time>2014-06-07T07:48:27.000Z</time>
      </trkpt>
      <trkpt lat="48.78346" lon="1.96802">
        <ele>160.39999389648</ele>
        <time>2014-06-07T07:48:31.000Z</time>
      </trkpt>
      <trkpt lat="48.78349" lon="1.96803">
        <ele>160.80000305176</ele>
        <time>2014-06-07T07:48:34.000Z</time>
      </trkpt>
      <trkpt lat="48.7835" lon="1.96796">
        <ele>160.39999389648</ele>
        <time>2014-06-07T07:48:40.000Z</time>
      </trkpt>
      <trkpt lat="48.78351" lon="1.96792">
        <ele>160.19999694824</ele>
        <time>2014-06-07T07:48:42.000Z</time>
      </trkpt>
      <trkpt lat="48.78355" lon="1.96783">
        <ele>160</ele>
        <time>2014-06-07T07:48:49.000Z</time>
      </trkpt>
      <trkpt lat="48.78356" lon="1.96781">
        <ele>160</ele>
        <time>2014-06-07T07:48:50.000Z</time>
      </trkpt>
      <trkpt lat="48.78356" lon="1.96774">
        <ele>159.39999389648</ele>
        <time>2014-06-07T07:48:54.000Z</time>
      </trkpt>
      <trkpt lat="48.78354" lon="1.96765">
        <ele>158.60000610352</ele>
        <time>2014-06-07T07:48:59.000Z</time>
      </trkpt>
      <trkpt lat="48.78355" lon="1.96761">
        <ele>158.39999389648</ele>
        <time>2014-06-07T07:49:01.000Z</time>
      </trkpt>
      <trkpt lat="48.78357" lon="1.96753">
        <ele>158</ele>
        <time>2014-06-07T07:49:05.000Z</time>
      </trkpt>
      <trkpt lat="48.78362" lon="1.9674">
        <ele>157.80000305176</ele>
        <time>2014-06-07T07:49:11.000Z</time>
      </trkpt>
      <trkpt lat="48.78364" lon="1.96735">
        <ele>157.39999389648</ele>
        <time>2014-06-07T07:49:15.000Z</time>
      </trkpt>
      <trkpt lat="48.7837" lon="1.96731">
        <ele>157.60000610352</ele>
        <time>2014-06-07T07:49:20.000Z</time>
      </trkpt>
      <trkpt lat="48.78373" lon="1.96725">
        <ele>157.39999389648</ele>
        <time>2014-06-07T07:49:25.000Z</time>
      </trkpt>
      <trkpt lat="48.78377" lon="1.96719">
        <ele>157</ele>
        <time>2014-06-07T07:49:29.000Z</time>
      </trkpt>
      <trkpt lat="48.78386" lon="1.96708">
        <ele>156.80000305176</ele>
        <time>2014-06-07T07:49:36.000Z</time>
      </trkpt>
      <trkpt lat="48.78391" lon="1.96705">
        <ele>157</ele>
        <time>2014-06-07T07:49:39.000Z</time>
      </trkpt>
      <trkpt lat="48.78399" lon="1.96696">
        <ele>157.19999694824</ele>
        <time>2014-06-07T07:49:45.000Z</time>
      </trkpt>
      <trkpt lat="48.78404" lon="1.96687">
        <ele>157.39999389648</ele>
        <time>2014-06-07T07:49:50.000Z</time>
      </trkpt>
      <trkpt lat="48.78409" lon="1.9668">
        <ele>157.80000305176</ele>
        <time>2014-06-07T07:49:55.000Z</time>
      </trkpt>
      <trkpt lat="48.78415" lon="1.96681">
        <ele>158.80000305176</ele>
        <time>2014-06-07T07:49:59.000Z</time>
      </trkpt>
      <trkpt lat="48.78422" lon="1.96687">
        <ele>160.39999389648</ele>
        <time>2014-06-07T07:50:04.000Z</time>
      </trkpt>
      <trkpt lat="48.78425" lon="1.9669">
        <ele>161.19999694824</ele>
        <time>2014-06-07T07:50:06.000Z</time>
      </trkpt>
      <trkpt lat="48.78431" lon="1.96704">
        <ele>163.19999694824</ele>
        <time>2014-06-07T07:50:13.000Z</time>
      </trkpt>
      <trkpt lat="48.7843" lon="1.96715">
        <ele>163.80000305176</ele>
        <time>2014-06-07T07:50:17.000Z</time>
      </trkpt>
      <trkpt lat="48.78431" lon="1.96722">
        <ele>164.39999389648</ele>
        <time>2014-06-07T07:50:20.000Z</time>
      </trkpt>
      <trkpt lat="48.78432" lon="1.96728">
        <ele>165</ele>
        <time>2014-06-07T07:50:23.000Z</time>
      </trkpt>
      <trkpt lat="48.78438" lon="1.96732">
        <ele>166.39999389648</ele>
        <time>2014-06-07T07:50:27.000Z</time>
      </trkpt>
      <trkpt lat="48.78442" lon="1.96728">
        <ele>166.39999389648</ele>
        <time>2014-06-07T07:50:33.000Z</time>
      </trkpt>
      <trkpt lat="48.78446" lon="1.96726">
        <ele>166.60000610352</ele>
        <time>2014-06-07T07:50:36.000Z</time>
      </trkpt>
      <trkpt lat="48.78454" lon="1.96719">
        <ele>166.80000305176</ele>
        <time>2014-06-07T07:50:44.000Z</time>
      </trkpt>
      <trkpt lat="48.78463" lon="1.9671">
        <ele>167.19999694824</ele>
        <time>2014-06-07T07:50:53.000Z</time>
      </trkpt>
      <trkpt lat="48.78469" lon="1.96704">
        <ele>167.39999389648</ele>
        <time>2014-06-07T07:51:00.000Z</time>
      </trkpt>
      <trkpt lat="48.78475" lon="1.96698">
        <ele>167.60000610352</ele>
        <time>2014-06-07T07:51:06.000Z</time>
      </trkpt>
      <trkpt lat="48.78476" lon="1.96695">
        <ele>167.39999389648</ele>
        <time>2014-06-07T07:51:08.000Z</time>
      </trkpt>
      <trkpt lat="48.78476" lon="1.96691">
        <ele>167.19999694824</ele>
        <time>2014-06-07T07:51:11.000Z</time>
      </trkpt>
      <trkpt lat="48.78479" lon="1.96679">
        <ele>167.19999694824</ele>
        <time>2014-06-07T07:51:17.000Z</time>
      </trkpt>
      <trkpt lat="48.78479" lon="1.96675">
        <ele>167</ele>
        <time>2014-06-07T07:51:19.000Z</time>
      </trkpt>
      <trkpt lat="48.78478" lon="1.96663">
        <ele>166.39999389648</ele>
        <time>2014-06-07T07:51:24.000Z</time>
      </trkpt>
      <trkpt lat="48.7848" lon="1.96653">
        <ele>166</ele>
        <time>2014-06-07T07:51:28.000Z</time>
      </trkpt>
      <trkpt lat="48.78477" lon="1.96636">
        <ele>164.39999389648</ele>
        <time>2014-06-07T07:51:35.000Z</time>
      </trkpt>
      <trkpt lat="48.78477" lon="1.96626">
        <ele>163.39999389648</ele>
        <time>2014-06-07T07:51:40.000Z</time>
      </trkpt>
      <trkpt lat="48.78474" lon="1.96613">
        <ele>162</ele>
        <time>2014-06-07T07:51:46.000Z</time>
      </trkpt>
      <trkpt lat="48.78472" lon="1.96608">
        <ele>161.39999389648</ele>
        <time>2014-06-07T07:51:48.000Z</time>
      </trkpt>
      <trkpt lat="48.78471" lon="1.96595">
        <ele>160.80000305176</ele>
        <time>2014-06-07T07:51:53.000Z</time>
      </trkpt>
      <trkpt lat="48.78477" lon="1.96579">
        <ele>161.60000610352</ele>
        <time>2014-06-07T07:52:00.000Z</time>
      </trkpt>
      <trkpt lat="48.78479" lon="1.96571">
        <ele>161.60000610352</ele>
        <time>2014-06-07T07:52:04.000Z</time>
      </trkpt>
      <trkpt lat="48.78472" lon="1.9656">
        <ele>159.80000305176</ele>
        <time>2014-06-07T07:52:09.000Z</time>
      </trkpt>
      <trkpt lat="48.78469" lon="1.96549">
        <ele>158.39999389648</ele>
        <time>2014-06-07T07:52:14.000Z</time>
      </trkpt>
      <trkpt lat="48.78467" lon="1.96544">
        <ele>157.60000610352</ele>
        <time>2014-06-07T07:52:17.000Z</time>
      </trkpt>
      <trkpt lat="48.78466" lon="1.96536">
        <ele>157</ele>
        <time>2014-06-07T07:52:20.000Z</time>
      </trkpt>
      <trkpt lat="48.78469" lon="1.96527">
        <ele>157</ele>
        <time>2014-06-07T07:52:24.000Z</time>
      </trkpt>
      <trkpt lat="48.78469" lon="1.96509">
        <ele>156.80000305176</ele>
        <time>2014-06-07T07:52:30.000Z</time>
      </trkpt>
      <trkpt lat="48.78471" lon="1.965">
        <ele>157.39999389648</ele>
        <time>2014-06-07T07:52:35.000Z</time>
      </trkpt>
      <trkpt lat="48.78472" lon="1.965">
        <ele>157.60000610352</ele>
        <time>2014-06-07T07:52:36.000Z</time>
      </trkpt>
      <trkpt lat="48.78477" lon="1.96489">
        <ele>158.80000305176</ele>
        <time>2014-06-07T07:52:43.000Z</time>
      </trkpt>
      <trkpt lat="48.78479" lon="1.96482">
        <ele>158.60000610352</ele>
        <time>2014-06-07T07:52:47.000Z</time>
      </trkpt>
      <trkpt lat="48.78479" lon="1.96479">
        <ele>158.39999389648</ele>
        <time>2014-06-07T07:52:49.000Z</time>
      </trkpt>
      <trkpt lat="48.78478" lon="1.96472">
        <ele>157.60000610352</ele>
        <time>2014-06-07T07:52:52.000Z</time>
      </trkpt>
      <trkpt lat="48.78481" lon="1.96462">
        <ele>157.60000610352</ele>
        <time>2014-06-07T07:52:57.000Z</time>
      </trkpt>
      <trkpt lat="48.78485" lon="1.96457">
        <ele>158.19999694824</ele>
        <time>2014-06-07T07:53:01.000Z</time>
      </trkpt>
      <trkpt lat="48.78486" lon="1.96436">
        <ele>157</ele>
        <time>2014-06-07T07:53:07.000Z</time>
      </trkpt>
      <trkpt lat="48.78488" lon="1.96425">
        <ele>156.80000305176</ele>
        <time>2014-06-07T07:53:13.000Z</time>
      </trkpt>
      <trkpt lat="48.78491" lon="1.96418">
        <ele>157.19999694824</ele>
        <time>2014-06-07T07:53:18.000Z</time>
      </trkpt>
      <trkpt lat="48.78497" lon="1.96404">
        <ele>157.60000610352</ele>
        <time>2014-06-07T07:53:24.000Z</time>
      </trkpt>
      <trkpt lat="48.78497" lon="1.96403">
        <ele>157.60000610352</ele>
        <time>2014-06-07T07:53:25.000Z</time>
      </trkpt>
      <trkpt lat="48.78501" lon="1.96393">
        <ele>158</ele>
        <time>2014-06-07T07:53:31.000Z</time>
      </trkpt>
      <trkpt lat="48.78502" lon="1.96374">
        <ele>157.19999694824</ele>
        <time>2014-06-07T07:53:41.000Z</time>
      </trkpt>
      <trkpt lat="48.78505" lon="1.96362">
        <ele>157.19999694824</ele>
        <time>2014-06-07T07:53:47.000Z</time>
      </trkpt>
      <trkpt lat="48.78503" lon="1.96354">
        <ele>156.19999694824</ele>
        <time>2014-06-07T07:53:52.000Z</time>
      </trkpt>
      <trkpt lat="48.78506" lon="1.96347">
        <ele>156.60000610352</ele>
        <time>2014-06-07T07:53:56.000Z</time>
      </trkpt>
      <trkpt lat="48.78507" lon="1.96341">
        <ele>156.39999389648</ele>
        <time>2014-06-07T07:53:59.000Z</time>
      </trkpt>
      <trkpt lat="48.78503" lon="1.9634">
        <ele>155.19999694824</ele>
        <time>2014-06-07T07:54:04.000Z</time>
      </trkpt>
      <trkpt lat="48.78498" lon="1.96329">
        <ele>153.39999389648</ele>
        <time>2014-06-07T07:54:10.000Z</time>
      </trkpt>
      <trkpt lat="48.78498" lon="1.96323">
        <ele>153</ele>
        <time>2014-06-07T07:54:15.000Z</time>
      </trkpt>
      <trkpt lat="48.785" lon="1.96308">
        <ele>153.60000610352</ele>
        <time>2014-06-07T07:54:21.000Z</time>
      </trkpt>
      <trkpt lat="48.785" lon="1.963">
        <ele>153.60000610352</ele>
        <time>2014-06-07T07:54:24.000Z</time>
      </trkpt>
      <trkpt lat="48.78501" lon="1.96294">
        <ele>153.60000610352</ele>
        <time>2014-06-07T07:54:26.000Z</time>
      </trkpt>
      <trkpt lat="48.78501" lon="1.9629">
        <ele>153.80000305176</ele>
        <time>2014-06-07T07:54:29.000Z</time>
      </trkpt>
      <trkpt lat="48.785" lon="1.96282">
        <ele>153.39999389648</ele>
        <time>2014-06-07T07:54:33.000Z</time>
      </trkpt>
      <trkpt lat="48.78503" lon="1.96271">
        <ele>153.80000305176</ele>
        <time>2014-06-07T07:54:37.000Z</time>
      </trkpt>
      <trkpt lat="48.78505" lon="1.96261">
        <ele>154.19999694824</ele>
        <time>2014-06-07T07:54:42.000Z</time>
      </trkpt>
      <trkpt lat="48.78508" lon="1.96245">
        <ele>154.80000305176</ele>
        <time>2014-06-07T07:54:48.000Z</time>
      </trkpt>
      <trkpt lat="48.7851" lon="1.9624">
        <ele>155.19999694824</ele>
        <time>2014-06-07T07:54:50.000Z</time>
      </trkpt>
      <trkpt lat="48.78512" lon="1.9623">
        <ele>155.60000610352</ele>
        <time>2014-06-07T07:54:56.000Z</time>
      </trkpt>
      <trkpt lat="48.78514" lon="1.96224">
        <ele>155.60000610352</ele>
        <time>2014-06-07T07:55:00.000Z</time>
      </trkpt>
      <trkpt lat="48.78517" lon="1.96218">
        <ele>155.80000305176</ele>
        <time>2014-06-07T07:55:03.000Z</time>
      </trkpt>
      <trkpt lat="48.78523" lon="1.96215">
        <ele>156.60000610352</ele>
        <time>2014-06-07T07:55:09.000Z</time>
      </trkpt>
      <trkpt lat="48.7853" lon="1.96207">
        <ele>157</ele>
        <time>2014-06-07T07:55:16.000Z</time>
      </trkpt>
      <trkpt lat="48.78533" lon="1.96198">
        <ele>156.80000305176</ele>
        <time>2014-06-07T07:55:21.000Z</time>
      </trkpt>
      <trkpt lat="48.78535" lon="1.96193">
        <ele>156.80000305176</ele>
        <time>2014-06-07T07:55:24.000Z</time>
      </trkpt>
      <trkpt lat="48.78532" lon="1.96178">
        <ele>155.60000610352</ele>
        <time>2014-06-07T07:55:32.000Z</time>
      </trkpt>
      <trkpt lat="48.78533" lon="1.96174">
        <ele>155.39999389648</ele>
        <time>2014-06-07T07:55:35.000Z</time>
      </trkpt>
      <trkpt lat="48.78533" lon="1.96166">
        <ele>155</ele>
        <time>2014-06-07T07:55:40.000Z</time>
      </trkpt>
      <trkpt lat="48.78534" lon="1.96156">
        <ele>154.80000305176</ele>
        <time>2014-06-07T07:55:45.000Z</time>
      </trkpt>
      <trkpt lat="48.78539" lon="1.96147">
        <ele>154.39999389648</ele>
        <time>2014-06-07T07:55:50.000Z</time>
      </trkpt>
      <trkpt lat="48.78543" lon="1.96139">
        <ele>154.19999694824</ele>
        <time>2014-06-07T07:55:55.000Z</time>
      </trkpt>
      <trkpt lat="48.78543" lon="1.96138">
        <ele>154</ele>
        <time>2014-06-07T07:55:56.000Z</time>
      </trkpt>
      <trkpt lat="48.78548" lon="1.96121">
        <ele>152.60000610352</ele>
        <time>2014-06-07T07:56:04.000Z</time>
      </trkpt>
      <trkpt lat="48.78553" lon="1.96114">
        <ele>152.80000305176</ele>
        <time>2014-06-07T07:56:09.000Z</time>
      </trkpt>
      <trkpt lat="48.78558" lon="1.96112">
        <ele>153.19999694824</ele>
        <time>2014-06-07T07:56:13.000Z</time>
      </trkpt>
      <trkpt lat="48.78563" lon="1.96102">
        <ele>153.80000305176</ele>
        <time>2014-06-07T07:56:19.000Z</time>
      </trkpt>
      <trkpt lat="48.78564" lon="1.96096">
        <ele>153.80000305176</ele>
        <time>2014-06-07T07:56:23.000Z</time>
      </trkpt>
      <trkpt lat="48.78565" lon="1.96095">
        <ele>153.80000305176</ele>
        <time>2014-06-07T07:56:24.000Z</time>
      </trkpt>
      <trkpt lat="48.78566" lon="1.96096">
        <ele>154.19999694824</ele>
        <time>2014-06-07T07:56:31.000Z</time>
      </trkpt>
      <trkpt lat="48.78568" lon="1.96083">
        <ele>154</ele>
        <time>2014-06-07T07:56:57.000Z</time>
      </trkpt>
      <trkpt lat="48.78569" lon="1.96069">
        <ele>153.19999694824</ele>
        <time>2014-06-07T07:57:04.000Z</time>
      </trkpt>
      <trkpt lat="48.78576" lon="1.96058">
        <ele>153.19999694824</ele>
        <time>2014-06-07T07:57:09.000Z</time>
      </trkpt>
      <trkpt lat="48.78586" lon="1.9605">
        <ele>154</ele>
        <time>2014-06-07T07:57:17.000Z</time>
      </trkpt>
      <trkpt lat="48.78593" lon="1.96047">
        <ele>154.39999389648</ele>
        <time>2014-06-07T07:57:23.000Z</time>
      </trkpt>
      <trkpt lat="48.78596" lon="1.96047">
        <ele>154.80000305176</ele>
        <time>2014-06-07T07:57:25.000Z</time>
      </trkpt>
      <trkpt lat="48.78599" lon="1.96045">
        <ele>154.80000305176</ele>
        <time>2014-06-07T07:57:29.000Z</time>
      </trkpt>
      <trkpt lat="48.78601" lon="1.96042">
        <ele>154.39999389648</ele>
        <time>2014-06-07T07:57:32.000Z</time>
      </trkpt>
      <trkpt lat="48.78607" lon="1.96042">
        <ele>155.19999694824</ele>
        <time>2014-06-07T07:57:36.000Z</time>
      </trkpt>
      <trkpt lat="48.78614" lon="1.96039">
        <ele>155</ele>
        <time>2014-06-07T07:57:41.000Z</time>
      </trkpt>
      <trkpt lat="48.78619" lon="1.96035">
        <ele>154.60000610352</ele>
        <time>2014-06-07T07:57:44.000Z</time>
      </trkpt>
      <trkpt lat="48.78625" lon="1.96033">
        <ele>154.60000610352</ele>
        <time>2014-06-07T07:57:47.000Z</time>
      </trkpt>
      <trkpt lat="48.78635" lon="1.96036">
        <ele>156</ele>
        <time>2014-06-07T07:57:53.000Z</time>
      </trkpt>
      <trkpt lat="48.78641" lon="1.96042">
        <ele>157.60000610352</ele>
        <time>2014-06-07T07:57:57.000Z</time>
      </trkpt>
      <trkpt lat="48.78644" lon="1.96047">
        <ele>159</ele>
        <time>2014-06-07T07:58:00.000Z</time>
      </trkpt>
      <trkpt lat="48.78649" lon="1.96053">
        <ele>160.60000610352</ele>
        <time>2014-06-07T07:58:05.000Z</time>
      </trkpt>
      <trkpt lat="48.7865" lon="1.96054">
        <ele>161</ele>
        <time>2014-06-07T07:58:06.000Z</time>
      </trkpt>
      <trkpt lat="48.78651" lon="1.9607">
        <ele>164.39999389648</ele>
        <time>2014-06-07T07:58:13.000Z</time>
      </trkpt>
      <trkpt lat="48.78648" lon="1.96074">
        <ele>165.19999694824</ele>
        <time>2014-06-07T07:58:17.000Z</time>
      </trkpt>
      <trkpt lat="48.78645" lon="1.96076">
        <ele>165</ele>
        <time>2014-06-07T07:58:21.000Z</time>
      </trkpt>
      <trkpt lat="48.78647" lon="1.9609">
        <ele>165.39999389648</ele>
        <time>2014-06-07T07:58:28.000Z</time>
      </trkpt>
      <trkpt lat="48.7865" lon="1.96093">
        <ele>165.80000305176</ele>
        <time>2014-06-07T07:58:34.000Z</time>
      </trkpt>
      <trkpt lat="48.78656" lon="1.96098">
        <ele>166.19999694824</ele>
        <time>2014-06-07T07:58:52.000Z</time>
      </trkpt>
      <trkpt lat="48.78656" lon="1.96098">
        <ele>166.19999694824</ele>
        <time>2014-06-07T07:58:54.000Z</time>
      </trkpt>
      <trkpt lat="48.78661" lon="1.96101">
        <ele>166.60000610352</ele>
        <time>2014-06-07T07:59:01.000Z</time>
      </trkpt>
      <trkpt lat="48.78665" lon="1.96102">
        <ele>167</ele>
        <time>2014-06-07T07:59:05.000Z</time>
      </trkpt>
      <trkpt lat="48.78671" lon="1.96097">
        <ele>167.19999694824</ele>
        <time>2014-06-07T07:59:10.000Z</time>
      </trkpt>
      <trkpt lat="48.78674" lon="1.96091">
        <ele>167.39999389648</ele>
        <time>2014-06-07T07:59:14.000Z</time>
      </trkpt>
      <trkpt lat="48.78673" lon="1.96079">
        <ele>167</ele>
        <time>2014-06-07T07:59:20.000Z</time>
      </trkpt>
      <trkpt lat="48.78676" lon="1.96073">
        <ele>166.80000305176</ele>
        <time>2014-06-07T07:59:24.000Z</time>
      </trkpt>
      <trkpt lat="48.78676" lon="1.96072">
        <ele>166.60000610352</ele>
        <time>2014-06-07T07:59:25.000Z</time>
      </trkpt>
      <trkpt lat="48.7868" lon="1.96058">
        <ele>164.39999389648</ele>
        <time>2014-06-07T07:59:31.000Z</time>
      </trkpt>
      <trkpt lat="48.78682" lon="1.96056">
        <ele>164.19999694824</ele>
        <time>2014-06-07T07:59:32.000Z</time>
      </trkpt>
      <trkpt lat="48.78687" lon="1.96058">
        <ele>165.19999694824</ele>
        <time>2014-06-07T07:59:37.000Z</time>
      </trkpt>
      <trkpt lat="48.78694" lon="1.96068">
        <ele>165.80000305176</ele>
        <time>2014-06-07T07:59:43.000Z</time>
      </trkpt>
      <trkpt lat="48.78698" lon="1.96079">
        <ele>166.80000305176</ele>
        <time>2014-06-07T07:59:49.000Z</time>
      </trkpt>
      <trkpt lat="48.78707" lon="1.96091">
        <ele>166.60000610352</ele>
        <time>2014-06-07T07:59:55.000Z</time>
      </trkpt>
      <trkpt lat="48.78707" lon="1.96097">
        <ele>167</ele>
        <time>2014-06-07T07:59:57.000Z</time>
      </trkpt>
      <trkpt lat="48.7871" lon="1.96113">
        <ele>167.19999694824</ele>
        <time>2014-06-07T08:00:03.000Z</time>
      </trkpt>
      <trkpt lat="48.78713" lon="1.96125">
        <ele>167.19999694824</ele>
        <time>2014-06-07T08:00:08.000Z</time>
      </trkpt>
      <trkpt lat="48.78712" lon="1.96137">
        <ele>167.39999389648</ele>
        <time>2014-06-07T08:00:12.000Z</time>
      </trkpt>
      <trkpt lat="48.78705" lon="1.96154">
        <ele>168.39999389648</ele>
        <time>2014-06-07T08:00:18.000Z</time>
      </trkpt>
      <trkpt lat="48.78703" lon="1.96164">
        <ele>169.19999694824</ele>
        <time>2014-06-07T08:00:23.000Z</time>
      </trkpt>
      <trkpt lat="48.78701" lon="1.96174">
        <ele>169.80000305176</ele>
        <time>2014-06-07T08:00:28.000Z</time>
      </trkpt>
      <trkpt lat="48.78703" lon="1.9618">
        <ele>169.80000305176</ele>
        <time>2014-06-07T08:00:32.000Z</time>
      </trkpt>
      <trkpt lat="48.78704" lon="1.96181">
        <ele>169.60000610352</ele>
        <time>2014-06-07T08:00:34.000Z</time>
      </trkpt>
      <trkpt lat="48.78709" lon="1.96186">
        <ele>169.60000610352</ele>
        <time>2014-06-07T08:00:39.000Z</time>
      </trkpt>
      <trkpt lat="48.78709" lon="1.96187">
        <ele>169.60000610352</ele>
        <time>2014-06-07T08:00:40.000Z</time>
      </trkpt>
      <trkpt lat="48.78714" lon="1.96197">
        <ele>169.60000610352</ele>
        <time>2014-06-07T08:00:45.000Z</time>
      </trkpt>
      <trkpt lat="48.7872" lon="1.96209">
        <ele>169.39999389648</ele>
        <time>2014-06-07T08:00:50.000Z</time>
      </trkpt>
      <trkpt lat="48.78726" lon="1.96215">
        <ele>169.39999389648</ele>
        <time>2014-06-07T08:00:54.000Z</time>
      </trkpt>
      <trkpt lat="48.7873" lon="1.96219">
        <ele>169.19999694824</ele>
        <time>2014-06-07T08:00:58.000Z</time>
      </trkpt>
      <trkpt lat="48.78731" lon="1.96227">
        <ele>169.19999694824</ele>
        <time>2014-06-07T08:01:02.000Z</time>
      </trkpt>
      <trkpt lat="48.78731" lon="1.96232">
        <ele>169.39999389648</ele>
        <time>2014-06-07T08:01:05.000Z</time>
      </trkpt>
      <trkpt lat="48.78737" lon="1.96233">
        <ele>169.19999694824</ele>
        <time>2014-06-07T08:01:10.000Z</time>
      </trkpt>
      <trkpt lat="48.78738" lon="1.96244">
        <ele>169.19999694824</ele>
        <time>2014-06-07T08:01:15.000Z</time>
      </trkpt>
      <trkpt lat="48.78738" lon="1.96247">
        <ele>169.39999389648</ele>
        <time>2014-06-07T08:01:17.000Z</time>
      </trkpt>
      <trkpt lat="48.7874" lon="1.96255">
        <ele>169.39999389648</ele>
        <time>2014-06-07T08:01:22.000Z</time>
      </trkpt>
      <trkpt lat="48.78743" lon="1.96255">
        <ele>169.39999389648</ele>
        <time>2014-06-07T08:01:26.000Z</time>
      </trkpt>
      <trkpt lat="48.78749" lon="1.96258">
        <ele>169.19999694824</ele>
        <time>2014-06-07T08:01:31.000Z</time>
      </trkpt>
      <trkpt lat="48.78754" lon="1.96256">
        <ele>169</ele>
        <time>2014-06-07T08:01:40.000Z</time>
      </trkpt>
      <trkpt lat="48.78756" lon="1.96258">
        <ele>169</ele>
        <time>2014-06-07T08:01:43.000Z</time>
      </trkpt>
      <trkpt lat="48.7876" lon="1.96259">
        <ele>168.80000305176</ele>
        <time>2014-06-07T08:01:46.000Z</time>
      </trkpt>
      <trkpt lat="48.78767" lon="1.96259">
        <ele>168.60000610352</ele>
        <time>2014-06-07T08:01:50.000Z</time>
      </trkpt>
      <trkpt lat="48.78776" lon="1.96259">
        <ele>168.60000610352</ele>
        <time>2014-06-07T08:01:55.000Z</time>
      </trkpt>
      <trkpt lat="48.78775" lon="1.96267">
        <ele>168.80000305176</ele>
        <time>2014-06-07T08:02:00.000Z</time>
      </trkpt>
      <trkpt lat="48.7877" lon="1.9627">
        <ele>168.80000305176</ele>
        <time>2014-06-07T08:02:04.000Z</time>
      </trkpt>
      <trkpt lat="48.78767" lon="1.96273">
        <ele>169</ele>
        <time>2014-06-07T08:02:08.000Z</time>
      </trkpt>
      <trkpt lat="48.78759" lon="1.96274">
        <ele>169.19999694824</ele>
        <time>2014-06-07T08:02:16.000Z</time>
      </trkpt>
      <trkpt lat="48.78754" lon="1.96279">
        <ele>169.60000610352</ele>
        <time>2014-06-07T08:02:23.000Z</time>
      </trkpt>
      <trkpt lat="48.78745" lon="1.96281">
        <ele>170</ele>
        <time>2014-06-07T08:02:31.000Z</time>
      </trkpt>
      <trkpt lat="48.7874" lon="1.96288">
        <ele>170.19999694824</ele>
        <time>2014-06-07T08:02:36.000Z</time>
      </trkpt>
      <trkpt lat="48.78734" lon="1.9629">
        <ele>170.39999389648</ele>
        <time>2014-06-07T08:02:40.000Z</time>
      </trkpt>
      <trkpt lat="48.78727" lon="1.96287">
        <ele>170.39999389648</ele>
        <time>2014-06-07T08:02:45.000Z</time>
      </trkpt>
      <trkpt lat="48.78727" lon="1.96287">
        <ele>170.39999389648</ele>
        <time>2014-06-07T08:02:46.000Z</time>
      </trkpt>
      <trkpt lat="48.78724" lon="1.96283">
        <ele>170.39999389648</ele>
        <time>2014-06-07T08:02:49.000Z</time>
      </trkpt>
      <trkpt lat="48.78718" lon="1.96271">
        <ele>170.60000610352</ele>
        <time>2014-06-07T08:02:55.000Z</time>
      </trkpt>
      <trkpt lat="48.78713" lon="1.96266">
        <ele>170.60000610352</ele>
        <time>2014-06-07T08:03:00.000Z</time>
      </trkpt>
      <trkpt lat="48.78707" lon="1.96252">
        <ele>170.60000610352</ele>
        <time>2014-06-07T08:03:06.000Z</time>
      </trkpt>
      <trkpt lat="48.78705" lon="1.96245">
        <ele>170.39999389648</ele>
        <time>2014-06-07T08:03:08.000Z</time>
      </trkpt>
      <trkpt lat="48.78701" lon="1.96234">
        <ele>170.39999389648</ele>
        <time>2014-06-07T08:03:12.000Z</time>
      </trkpt>
      <trkpt lat="48.78696" lon="1.96226">
        <ele>170.60000610352</ele>
        <time>2014-06-07T08:03:18.000Z</time>
      </trkpt>
      <trkpt lat="48.78695" lon="1.96211">
        <ele>170.39999389648</ele>
        <time>2014-06-07T08:03:23.000Z</time>
      </trkpt>
      <trkpt lat="48.78686" lon="1.96186">
        <ele>170.19999694824</ele>
        <time>2014-06-07T08:03:30.000Z</time>
      </trkpt>
      <trkpt lat="48.78686" lon="1.96161">
        <ele>170</ele>
        <time>2014-06-07T08:03:37.000Z</time>
      </trkpt>
      <trkpt lat="48.78686" lon="1.96155">
        <ele>169.80000305176</ele>
        <time>2014-06-07T08:03:40.000Z</time>
      </trkpt>
      <trkpt lat="48.78685" lon="1.96152">
        <ele>169.60000610352</ele>
        <time>2014-06-07T08:03:42.000Z</time>
      </trkpt>
      <trkpt lat="48.78676" lon="1.9615">
        <ele>169</ele>
        <time>2014-06-07T08:03:48.000Z</time>
      </trkpt>
      <trkpt lat="48.7867" lon="1.96146">
        <ele>168.60000610352</ele>
        <time>2014-06-07T08:03:52.000Z</time>
      </trkpt>
      <trkpt lat="48.78671" lon="1.96146">
        <ele>168.60000610352</ele>
        <time>2014-06-07T08:03:56.000Z</time>
      </trkpt>
      <trkpt lat="48.78672" lon="1.96142">
        <ele>168.39999389648</ele>
        <time>2014-06-07T08:04:11.000Z</time>
      </trkpt>
      <trkpt lat="48.78672" lon="1.96143">
        <ele>168.60000610352</ele>
        <time>2014-06-07T08:04:12.000Z</time>
      </trkpt>
      <trkpt lat="48.78665" lon="1.9614">
        <ele>168</ele>
        <time>2014-06-07T08:04:23.000Z</time>
      </trkpt>
      <trkpt lat="48.78663" lon="1.96138">
        <ele>167.80000305176</ele>
        <time>2014-06-07T08:04:25.000Z</time>
      </trkpt>
      <trkpt lat="48.7866" lon="1.96135">
        <ele>167.60000610352</ele>
        <time>2014-06-07T08:04:29.000Z</time>
      </trkpt>
      <trkpt lat="48.78659" lon="1.96132">
        <ele>167.39999389648</ele>
        <time>2014-06-07T08:04:31.000Z</time>
      </trkpt>
      <trkpt lat="48.78651" lon="1.96131">
        <ele>167</ele>
        <time>2014-06-07T08:04:37.000Z</time>
      </trkpt>
      <trkpt lat="48.78647" lon="1.96133">
        <ele>166.80000305176</ele>
        <time>2014-06-07T08:04:39.000Z</time>
      </trkpt>
      <trkpt lat="48.78644" lon="1.9614">
        <ele>167</ele>
        <time>2014-06-07T08:04:45.000Z</time>
      </trkpt>
      <trkpt lat="48.7864" lon="1.9615">
        <ele>167.39999389648</ele>
        <time>2014-06-07T08:04:51.000Z</time>
      </trkpt>
      <trkpt lat="48.78634" lon="1.96159">
        <ele>167.39999389648</ele>
        <time>2014-06-07T08:04:54.000Z</time>
      </trkpt>
      <trkpt lat="48.7863" lon="1.96168">
        <ele>167.39999389648</ele>
        <time>2014-06-07T08:04:59.000Z</time>
      </trkpt>
      <trkpt lat="48.78626" lon="1.96181">
        <ele>167.39999389648</ele>
        <time>2014-06-07T08:05:06.000Z</time>
      </trkpt>
      <trkpt lat="48.78617" lon="1.96191">
        <ele>167.19999694824</ele>
        <time>2014-06-07T08:05:11.000Z</time>
      </trkpt>
      <trkpt lat="48.78611" lon="1.96205">
        <ele>167.39999389648</ele>
        <time>2014-06-07T08:05:16.000Z</time>
      </trkpt>
      <trkpt lat="48.7861" lon="1.96207">
        <ele>167.39999389648</ele>
        <time>2014-06-07T08:05:17.000Z</time>
      </trkpt>
      <trkpt lat="48.78611" lon="1.96212">
        <ele>167.60000610352</ele>
        <time>2014-06-07T08:05:20.000Z</time>
      </trkpt>
      <trkpt lat="48.78617" lon="1.96217">
        <ele>167.80000305176</ele>
        <time>2014-06-07T08:05:25.000Z</time>
      </trkpt>
      <trkpt lat="48.78627" lon="1.96224">
        <ele>168.39999389648</ele>
        <time>2014-06-07T08:05:32.000Z</time>
      </trkpt>
      <trkpt lat="48.78632" lon="1.96226">
        <ele>168.60000610352</ele>
        <time>2014-06-07T08:05:34.000Z</time>
      </trkpt>
      <trkpt lat="48.78639" lon="1.96233">
        <ele>169</ele>
        <time>2014-06-07T08:05:39.000Z</time>
      </trkpt>
      <trkpt lat="48.78646" lon="1.96241">
        <ele>169.39999389648</ele>
        <time>2014-06-07T08:05:44.000Z</time>
      </trkpt>
      <trkpt lat="48.78648" lon="1.96243">
        <ele>169.60000610352</ele>
        <time>2014-06-07T08:05:45.000Z</time>
      </trkpt>
      <trkpt lat="48.78653" lon="1.96246">
        <ele>169.60000610352</ele>
        <time>2014-06-07T08:05:47.000Z</time>
      </trkpt>
      <trkpt lat="48.78664" lon="1.96256">
        <ele>169.80000305176</ele>
        <time>2014-06-07T08:05:53.000Z</time>
      </trkpt>
      <trkpt lat="48.78674" lon="1.96266">
        <ele>169.80000305176</ele>
        <time>2014-06-07T08:05:59.000Z</time>
      </trkpt>
      <trkpt lat="48.78682" lon="1.96271">
        <ele>170</ele>
        <time>2014-06-07T08:06:04.000Z</time>
      </trkpt>
      <trkpt lat="48.78688" lon="1.96274">
        <ele>170.19999694824</ele>
        <time>2014-06-07T08:06:08.000Z</time>
      </trkpt>
      <trkpt lat="48.78696" lon="1.96283">
        <ele>170</ele>
        <time>2014-06-07T08:06:14.000Z</time>
      </trkpt>
      <trkpt lat="48.78702" lon="1.96287">
        <ele>170</ele>
        <time>2014-06-07T08:06:18.000Z</time>
      </trkpt>
      <trkpt lat="48.78709" lon="1.96295">
        <ele>170</ele>
        <time>2014-06-07T08:06:24.000Z</time>
      </trkpt>
      <trkpt lat="48.78717" lon="1.96301">
        <ele>170</ele>
        <time>2014-06-07T08:06:30.000Z</time>
      </trkpt>
      <trkpt lat="48.78723" lon="1.96306">
        <ele>169.80000305176</ele>
        <time>2014-06-07T08:06:35.000Z</time>
      </trkpt>
      <trkpt lat="48.78724" lon="1.96307">
        <ele>169.80000305176</ele>
        <time>2014-06-07T08:06:36.000Z</time>
      </trkpt>
      <trkpt lat="48.78732" lon="1.96312">
        <ele>169.80000305176</ele>
        <time>2014-06-07T08:06:40.000Z</time>
      </trkpt>
      <trkpt lat="48.78736" lon="1.96314">
        <ele>169.80000305176</ele>
        <time>2014-06-07T08:06:43.000Z</time>
      </trkpt>
      <trkpt lat="48.78746" lon="1.96307">
        <ele>170.19999694824</ele>
        <time>2014-06-07T08:06:52.000Z</time>
      </trkpt>
      <trkpt lat="48.78756" lon="1.96296">
        <ele>169.80000305176</ele>
        <time>2014-06-07T08:06:59.000Z</time>
      </trkpt>
      <trkpt lat="48.78765" lon="1.9629">
        <ele>169.39999389648</ele>
        <time>2014-06-07T08:07:05.000Z</time>
      </trkpt>
      <trkpt lat="48.78776" lon="1.9628">
        <ele>169.19999694824</ele>
        <time>2014-06-07T08:07:12.000Z</time>
      </trkpt>
      <trkpt lat="48.78787" lon="1.96278">
        <ele>169.60000610352</ele>
        <time>2014-06-07T08:07:18.000Z</time>
      </trkpt>
      <trkpt lat="48.78795" lon="1.96273">
        <ele>169.80000305176</ele>
        <time>2014-06-07T08:07:24.000Z</time>
      </trkpt>
      <trkpt lat="48.78802" lon="1.96267">
        <ele>170</ele>
        <time>2014-06-07T08:07:30.000Z</time>
      </trkpt>
      <trkpt lat="48.78805" lon="1.96263">
        <ele>169.80000305176</ele>
        <time>2014-06-07T08:07:32.000Z</time>
      </trkpt>
      <trkpt lat="48.78815" lon="1.9625">
        <ele>169.39999389648</ele>
        <time>2014-06-07T08:07:39.000Z</time>
      </trkpt>
      <trkpt lat="48.78818" lon="1.96249">
        <ele>169.39999389648</ele>
        <time>2014-06-07T08:07:40.000Z</time>
      </trkpt>
      <trkpt lat="48.78826" lon="1.96238">
        <ele>169.19999694824</ele>
        <time>2014-06-07T08:07:46.000Z</time>
      </trkpt>
      <trkpt lat="48.78835" lon="1.9622">
        <ele>168.39999389648</ele>
        <time>2014-06-07T08:07:54.000Z</time>
      </trkpt>
      <trkpt lat="48.7884" lon="1.9621">
        <ele>168.19999694824</ele>
        <time>2014-06-07T08:07:59.000Z</time>
      </trkpt>
      <trkpt lat="48.78846" lon="1.962">
        <ele>168</ele>
        <time>2014-06-07T08:08:04.000Z</time>
      </trkpt>
      <trkpt lat="48.78853" lon="1.96191">
        <ele>168</ele>
        <time>2014-06-07T08:08:10.000Z</time>
      </trkpt>
      <trkpt lat="48.7886" lon="1.9618">
        <ele>167.80000305176</ele>
        <time>2014-06-07T08:08:15.000Z</time>
      </trkpt>
      <trkpt lat="48.78869" lon="1.96169">
        <ele>167.60000610352</ele>
        <time>2014-06-07T08:08:22.000Z</time>
      </trkpt>
      <trkpt lat="48.78874" lon="1.96153">
        <ele>167.80000305176</ele>
        <time>2014-06-07T08:08:29.000Z</time>
      </trkpt>
      <trkpt lat="48.78883" lon="1.96144">
        <ele>167.80000305176</ele>
        <time>2014-06-07T08:08:36.000Z</time>
      </trkpt>
      <trkpt lat="48.7889" lon="1.96136">
        <ele>167.60000610352</ele>
        <time>2014-06-07T08:08:40.000Z</time>
      </trkpt>
      <trkpt lat="48.78897" lon="1.96131">
        <ele>167.60000610352</ele>
        <time>2014-06-07T08:08:44.000Z</time>
      </trkpt>
      <trkpt lat="48.78906" lon="1.96124">
        <ele>167.80000305176</ele>
        <time>2014-06-07T08:08:51.000Z</time>
      </trkpt>
      <trkpt lat="48.78913" lon="1.96118">
        <ele>168.19999694824</ele>
        <time>2014-06-07T08:08:56.000Z</time>
      </trkpt>
      <trkpt lat="48.78916" lon="1.96115">
        <ele>168.19999694824</ele>
        <time>2014-06-07T08:08:59.000Z</time>
      </trkpt>
      <trkpt lat="48.78923" lon="1.96104">
        <ele>168.60000610352</ele>
        <time>2014-06-07T08:09:06.000Z</time>
      </trkpt>
      <trkpt lat="48.7893" lon="1.96095">
        <ele>169</ele>
        <time>2014-06-07T08:09:12.000Z</time>
      </trkpt>
      <trkpt lat="48.78937" lon="1.96082">
        <ele>169.19999694824</ele>
        <time>2014-06-07T08:09:17.000Z</time>
      </trkpt>
      <trkpt lat="48.78948" lon="1.96069">
        <ele>169</ele>
        <time>2014-06-07T08:09:25.000Z</time>
      </trkpt>
      <trkpt lat="48.78949" lon="1.9607">
        <ele>169</ele>
        <time>2014-06-07T08:09:26.000Z</time>
      </trkpt>
      <trkpt lat="48.78951" lon="1.96068">
        <ele>169</ele>
        <time>2014-06-07T08:09:29.000Z</time>
      </trkpt>
      <trkpt lat="48.78959" lon="1.96059">
        <ele>169</ele>
        <time>2014-06-07T08:09:35.000Z</time>
      </trkpt>
      <trkpt lat="48.78963" lon="1.9606">
        <ele>169.19999694824</ele>
        <time>2014-06-07T08:09:37.000Z</time>
      </trkpt>
      <trkpt lat="48.78968" lon="1.96073">
        <ele>169.39999389648</ele>
        <time>2014-06-07T08:09:43.000Z</time>
      </trkpt>
      <trkpt lat="48.78969" lon="1.96087">
        <ele>169.60000610352</ele>
        <time>2014-06-07T08:09:49.000Z</time>
      </trkpt>
      <trkpt lat="48.78962" lon="1.96102">
        <ele>170</ele>
        <time>2014-06-07T08:09:55.000Z</time>
      </trkpt>
      <trkpt lat="48.78958" lon="1.9611">
        <ele>170.39999389648</ele>
        <time>2014-06-07T08:09:59.000Z</time>
      </trkpt>
      <trkpt lat="48.78955" lon="1.9613">
        <ele>171</ele>
        <time>2014-06-07T08:10:07.000Z</time>
      </trkpt>
      <trkpt lat="48.78951" lon="1.9614">
        <ele>171.39999389648</ele>
        <time>2014-06-07T08:10:12.000Z</time>
      </trkpt>
      <trkpt lat="48.78947" lon="1.96138">
        <ele>171.19999694824</ele>
        <time>2014-06-07T08:10:16.000Z</time>
      </trkpt>
      <trkpt lat="48.78943" lon="1.9614">
        <ele>171.39999389648</ele>
        <time>2014-06-07T08:10:23.000Z</time>
      </trkpt>
      <trkpt lat="48.78937" lon="1.96138">
        <ele>171.19999694824</ele>
        <time>2014-06-07T08:10:28.000Z</time>
      </trkpt>
      <trkpt lat="48.78934" lon="1.96151">
        <ele>171.39999389648</ele>
        <time>2014-06-07T08:10:34.000Z</time>
      </trkpt>
      <trkpt lat="48.78935" lon="1.96158">
        <ele>171.80000305176</ele>
        <time>2014-06-07T08:10:38.000Z</time>
      </trkpt>
      <trkpt lat="48.78926" lon="1.96161">
        <ele>171.19999694824</ele>
        <time>2014-06-07T08:10:44.000Z</time>
      </trkpt>
      <trkpt lat="48.78923" lon="1.96164">
        <ele>171</ele>
        <time>2014-06-07T08:10:46.000Z</time>
      </trkpt>
      <trkpt lat="48.78912" lon="1.96165">
        <ele>170.39999389648</ele>
        <time>2014-06-07T08:10:52.000Z</time>
      </trkpt>
      <trkpt lat="48.78913" lon="1.96175">
        <ele>170.19999694824</ele>
        <time>2014-06-07T08:10:58.000Z</time>
      </trkpt>
      <trkpt lat="48.78916" lon="1.96189">
        <ele>170.39999389648</ele>
        <time>2014-06-07T08:11:04.000Z</time>
      </trkpt>
      <trkpt lat="48.78915" lon="1.96198">
        <ele>170.19999694824</ele>
        <time>2014-06-07T08:11:08.000Z</time>
      </trkpt>
      <trkpt lat="48.78904" lon="1.96201">
        <ele>169.39999389648</ele>
        <time>2014-06-07T08:11:14.000Z</time>
      </trkpt>
      <trkpt lat="48.78891" lon="1.96203">
        <ele>169</ele>
        <time>2014-06-07T08:11:21.000Z</time>
      </trkpt>
      <trkpt lat="48.78882" lon="1.96198">
        <ele>168.80000305176</ele>
        <time>2014-06-07T08:11:28.000Z</time>
      </trkpt>
      <trkpt lat="48.78878" lon="1.96199">
        <ele>168.80000305176</ele>
        <time>2014-06-07T08:11:33.000Z</time>
      </trkpt>
      <trkpt lat="48.78878" lon="1.96199">
        <ele>168.80000305176</ele>
        <time>2014-06-07T08:11:34.000Z</time>
      </trkpt>
      <trkpt lat="48.78879" lon="1.96202">
        <ele>168.80000305176</ele>
        <time>2014-06-07T08:11:39.000Z</time>
      </trkpt>
      <trkpt lat="48.7888" lon="1.96206">
        <ele>169</ele>
        <time>2014-06-07T08:11:43.000Z</time>
      </trkpt>
      <trkpt lat="48.78884" lon="1.9622">
        <ele>169.60000610352</ele>
        <time>2014-06-07T08:11:49.000Z</time>
      </trkpt>
      <trkpt lat="48.78885" lon="1.96226">
        <ele>169.80000305176</ele>
        <time>2014-06-07T08:11:53.000Z</time>
      </trkpt>
      <trkpt lat="48.78884" lon="1.9623">
        <ele>170</ele>
        <time>2014-06-07T08:11:55.000Z</time>
      </trkpt>
      <trkpt lat="48.7888" lon="1.96237">
        <ele>170.19999694824</ele>
        <time>2014-06-07T08:12:01.000Z</time>
      </trkpt>
      <trkpt lat="48.78879" lon="1.96239">
        <ele>170.19999694824</ele>
        <time>2014-06-07T08:12:02.000Z</time>
      </trkpt>
      <trkpt lat="48.78869" lon="1.96255">
        <ele>170</ele>
        <time>2014-06-07T08:12:10.000Z</time>
      </trkpt>
      <trkpt lat="48.78869" lon="1.96257">
        <ele>170.19999694824</ele>
        <time>2014-06-07T08:12:11.000Z</time>
      </trkpt>
      <trkpt lat="48.78871" lon="1.96266">
        <ele>170.39999389648</ele>
        <time>2014-06-07T08:12:16.000Z</time>
      </trkpt>
      <trkpt lat="48.78871" lon="1.96267">
        <ele>170.39999389648</ele>
        <time>2014-06-07T08:12:17.000Z</time>
      </trkpt>
      <trkpt lat="48.78881" lon="1.96275">
        <ele>170.39999389648</ele>
        <time>2014-06-07T08:12:25.000Z</time>
      </trkpt>
      <trkpt lat="48.78882" lon="1.96276">
        <ele>170.39999389648</ele>
        <time>2014-06-07T08:12:27.000Z</time>
      </trkpt>
      <trkpt lat="48.78885" lon="1.96281">
        <ele>170.39999389648</ele>
        <time>2014-06-07T08:12:31.000Z</time>
      </trkpt>
      <trkpt lat="48.78891" lon="1.96285">
        <ele>170.39999389648</ele>
        <time>2014-06-07T08:12:35.000Z</time>
      </trkpt>
      <trkpt lat="48.78896" lon="1.96302">
        <ele>171</ele>
        <time>2014-06-07T08:12:42.000Z</time>
      </trkpt>
      <trkpt lat="48.78894" lon="1.96309">
        <ele>171.39999389648</ele>
        <time>2014-06-07T08:12:45.000Z</time>
      </trkpt>
      <trkpt lat="48.78889" lon="1.96327">
        <ele>172.39999389648</ele>
        <time>2014-06-07T08:12:52.000Z</time>
      </trkpt>
      <trkpt lat="48.78889" lon="1.96329">
        <ele>172.39999389648</ele>
        <time>2014-06-07T08:12:54.000Z</time>
      </trkpt>
      <trkpt lat="48.78885" lon="1.96331">
        <ele>172.60000610352</ele>
        <time>2014-06-07T08:12:56.000Z</time>
      </trkpt>
      <trkpt lat="48.78877" lon="1.96332">
        <ele>173</ele>
        <time>2014-06-07T08:13:00.000Z</time>
      </trkpt>
      <trkpt lat="48.7887" lon="1.96336">
        <ele>173.39999389648</ele>
        <time>2014-06-07T08:13:04.000Z</time>
      </trkpt>
      <trkpt lat="48.78864" lon="1.96339">
        <ele>173.39999389648</ele>
        <time>2014-06-07T08:13:09.000Z</time>
      </trkpt>
      <trkpt lat="48.78861" lon="1.9635">
        <ele>172.80000305176</ele>
        <time>2014-06-07T08:13:15.000Z</time>
      </trkpt>
      <trkpt lat="48.78854" lon="1.96358">
        <ele>172.39999389648</ele>
        <time>2014-06-07T08:13:20.000Z</time>
      </trkpt>
      <trkpt lat="48.78848" lon="1.96355">
        <ele>172.19999694824</ele>
        <time>2014-06-07T08:13:25.000Z</time>
      </trkpt>
      <trkpt lat="48.78845" lon="1.9634">
        <ele>172.80000305176</ele>
        <time>2014-06-07T08:13:31.000Z</time>
      </trkpt>
      <trkpt lat="48.78838" lon="1.96328">
        <ele>173</ele>
        <time>2014-06-07T08:13:39.000Z</time>
      </trkpt>
      <trkpt lat="48.7884" lon="1.96313">
        <ele>173</ele>
        <time>2014-06-07T08:13:47.000Z</time>
      </trkpt>
      <trkpt lat="48.78839" lon="1.96309">
        <ele>172.80000305176</ele>
        <time>2014-06-07T08:13:49.000Z</time>
      </trkpt>
      <trkpt lat="48.78828" lon="1.96306">
        <ele>172.19999694824</ele>
        <time>2014-06-07T08:13:56.000Z</time>
      </trkpt>
      <trkpt lat="48.78819" lon="1.96307">
        <ele>171.80000305176</ele>
        <time>2014-06-07T08:14:02.000Z</time>
      </trkpt>
      <trkpt lat="48.78815" lon="1.96314">
        <ele>171.80000305176</ele>
        <time>2014-06-07T08:14:07.000Z</time>
      </trkpt>
      <trkpt lat="48.78816" lon="1.9632">
        <ele>172</ele>
        <time>2014-06-07T08:14:10.000Z</time>
      </trkpt>
      <trkpt lat="48.78814" lon="1.96323">
        <ele>172</ele>
        <time>2014-06-07T08:14:12.000Z</time>
      </trkpt>
      <trkpt lat="48.78809" lon="1.96332">
        <ele>171.39999389648</ele>
        <time>2014-06-07T08:14:17.000Z</time>
      </trkpt>
      <trkpt lat="48.78809" lon="1.96333">
        <ele>171.39999389648</ele>
        <time>2014-06-07T08:14:18.000Z</time>
      </trkpt>
      <trkpt lat="48.78801" lon="1.96343">
        <ele>170.60000610352</ele>
        <time>2014-06-07T08:14:26.000Z</time>
      </trkpt>
      <trkpt lat="48.78795" lon="1.96348">
        <ele>170</ele>
        <time>2014-06-07T08:14:30.000Z</time>
      </trkpt>
      <trkpt lat="48.78789" lon="1.96357">
        <ele>169.80000305176</ele>
        <time>2014-06-07T08:14:37.000Z</time>
      </trkpt>
      <trkpt lat="48.78786" lon="1.96359">
        <ele>169.80000305176</ele>
        <time>2014-06-07T08:14:41.000Z</time>
      </trkpt>
      <trkpt lat="48.78775" lon="1.96365">
        <ele>169.60000610352</ele>
        <time>2014-06-07T08:14:47.000Z</time>
      </trkpt>
      <trkpt lat="48.78767" lon="1.96369">
        <ele>169.39999389648</ele>
        <time>2014-06-07T08:14:53.000Z</time>
      </trkpt>
      <trkpt lat="48.78765" lon="1.96375">
        <ele>169.39999389648</ele>
        <time>2014-06-07T08:14:57.000Z</time>
      </trkpt>
      <trkpt lat="48.78754" lon="1.96387">
        <ele>169</ele>
        <time>2014-06-07T08:15:07.000Z</time>
      </trkpt>
      <trkpt lat="48.78745" lon="1.96391">
        <ele>169</ele>
        <time>2014-06-07T08:15:13.000Z</time>
      </trkpt>
      <trkpt lat="48.78735" lon="1.96392">
        <ele>169</ele>
        <time>2014-06-07T08:15:18.000Z</time>
      </trkpt>
      <trkpt lat="48.78729" lon="1.96396">
        <ele>169</ele>
        <time>2014-06-07T08:15:23.000Z</time>
      </trkpt>
      <trkpt lat="48.78722" lon="1.96397">
        <ele>169</ele>
        <time>2014-06-07T08:15:28.000Z</time>
      </trkpt>
      <trkpt lat="48.7872" lon="1.96406">
        <ele>169</ele>
        <time>2014-06-07T08:15:34.000Z</time>
      </trkpt>
      <trkpt lat="48.78713" lon="1.96414">
        <ele>169.60000610352</ele>
        <time>2014-06-07T08:15:39.000Z</time>
      </trkpt>
      <trkpt lat="48.78708" lon="1.96417">
        <ele>169.80000305176</ele>
        <time>2014-06-07T08:15:45.000Z</time>
      </trkpt>
      <trkpt lat="48.7871" lon="1.96427">
        <ele>170.60000610352</ele>
        <time>2014-06-07T08:15:51.000Z</time>
      </trkpt>
      <trkpt lat="48.7871" lon="1.96428">
        <ele>170.60000610352</ele>
        <time>2014-06-07T08:15:52.000Z</time>
      </trkpt>
      <trkpt lat="48.78714" lon="1.9643">
        <ele>170.80000305176</ele>
        <time>2014-06-07T08:15:56.000Z</time>
      </trkpt>
      <trkpt lat="48.78725" lon="1.96433">
        <ele>171.19999694824</ele>
        <time>2014-06-07T08:16:04.000Z</time>
      </trkpt>
      <trkpt lat="48.78736" lon="1.96439">
        <ele>171.60000610352</ele>
        <time>2014-06-07T08:16:12.000Z</time>
      </trkpt>
      <trkpt lat="48.78745" lon="1.96448">
        <ele>172.39999389648</ele>
        <time>2014-06-07T08:16:19.000Z</time>
      </trkpt>
      <trkpt lat="48.78753" lon="1.96455">
        <ele>173</ele>
        <time>2014-06-07T08:16:25.000Z</time>
      </trkpt>
      <trkpt lat="48.78763" lon="1.96463">
        <ele>173.60000610352</ele>
        <time>2014-06-07T08:16:32.000Z</time>
      </trkpt>
      <trkpt lat="48.78773" lon="1.96472">
        <ele>174.39999389648</ele>
        <time>2014-06-07T08:16:40.000Z</time>
      </trkpt>
      <trkpt lat="48.78779" lon="1.96477">
        <ele>174.39999389648</ele>
        <time>2014-06-07T08:16:45.000Z</time>
      </trkpt>
      <trkpt lat="48.78787" lon="1.96483">
        <ele>174.19999694824</ele>
        <time>2014-06-07T08:16:51.000Z</time>
      </trkpt>
      <trkpt lat="48.78794" lon="1.9649">
        <ele>174.19999694824</ele>
        <time>2014-06-07T08:16:57.000Z</time>
      </trkpt>
      <trkpt lat="48.78805" lon="1.96497">
        <ele>174.19999694824</ele>
        <time>2014-06-07T08:17:05.000Z</time>
      </trkpt>
      <trkpt lat="48.78815" lon="1.96503">
        <ele>174</ele>
        <time>2014-06-07T08:17:12.000Z</time>
      </trkpt>
      <trkpt lat="48.78822" lon="1.96509">
        <ele>174</ele>
        <time>2014-06-07T08:17:18.000Z</time>
      </trkpt>
      <trkpt lat="48.78828" lon="1.96515">
        <ele>174.19999694824</ele>
        <time>2014-06-07T08:17:23.000Z</time>
      </trkpt>
      <trkpt lat="48.78835" lon="1.96521">
        <ele>174.19999694824</ele>
        <time>2014-06-07T08:17:28.000Z</time>
      </trkpt>
      <trkpt lat="48.78842" lon="1.96525">
        <ele>174.19999694824</ele>
        <time>2014-06-07T08:17:33.000Z</time>
      </trkpt>
      <trkpt lat="48.78844" lon="1.96526">
        <ele>174.19999694824</ele>
        <time>2014-06-07T08:17:35.000Z</time>
      </trkpt>
      <trkpt lat="48.78853" lon="1.96527">
        <ele>173.60000610352</ele>
        <time>2014-06-07T08:17:42.000Z</time>
      </trkpt>
      <trkpt lat="48.78855" lon="1.96527">
        <ele>173.39999389648</ele>
        <time>2014-06-07T08:17:44.000Z</time>
      </trkpt>
      <trkpt lat="48.78865" lon="1.96525">
        <ele>173</ele>
        <time>2014-06-07T08:17:51.000Z</time>
      </trkpt>
      <trkpt lat="48.78873" lon="1.96529">
        <ele>173.19999694824</ele>
        <time>2014-06-07T08:17:57.000Z</time>
      </trkpt>
      <trkpt lat="48.78875" lon="1.96529">
        <ele>173.19999694824</ele>
        <time>2014-06-07T08:17:58.000Z</time>
      </trkpt>
      <trkpt lat="48.78881" lon="1.96535">
        <ele>173.60000610352</ele>
        <time>2014-06-07T08:18:04.000Z</time>
      </trkpt>
      <trkpt lat="48.78883" lon="1.96538">
        <ele>173.80000305176</ele>
        <time>2014-06-07T08:18:07.000Z</time>
      </trkpt>
      <trkpt lat="48.78889" lon="1.96544">
        <ele>174.19999694824</ele>
        <time>2014-06-07T08:18:12.000Z</time>
      </trkpt>
      <trkpt lat="48.78897" lon="1.96551">
        <ele>174.80000305176</ele>
        <time>2014-06-07T08:18:19.000Z</time>
      </trkpt>
      <trkpt lat="48.78905" lon="1.96558">
        <ele>175.19999694824</ele>
        <time>2014-06-07T08:18:25.000Z</time>
      </trkpt>
      <trkpt lat="48.78911" lon="1.96562">
        <ele>175.39999389648</ele>
        <time>2014-06-07T08:18:30.000Z</time>
      </trkpt>
      <trkpt lat="48.78915" lon="1.96564">
        <ele>175.60000610352</ele>
        <time>2014-06-07T08:18:34.000Z</time>
      </trkpt>
      <trkpt lat="48.78917" lon="1.96565">
        <ele>175.60000610352</ele>
        <time>2014-06-07T08:18:38.000Z</time>
      </trkpt>
      <trkpt lat="48.78922" lon="1.96568">
        <ele>175.80000305176</ele>
        <time>2014-06-07T08:18:43.000Z</time>
      </trkpt>
      <trkpt lat="48.78926" lon="1.9657">
        <ele>176</ele>
        <time>2014-06-07T08:18:49.000Z</time>
      </trkpt>
      <trkpt lat="48.78932" lon="1.96563">
        <ele>175.19999694824</ele>
        <time>2014-06-07T08:19:01.000Z</time>
      </trkpt>
      <trkpt lat="48.78941" lon="1.96555">
        <ele>174.60000610352</ele>
        <time>2014-06-07T08:19:10.000Z</time>
      </trkpt>
      <trkpt lat="48.78944" lon="1.96552">
        <ele>174.39999389648</ele>
        <time>2014-06-07T08:19:14.000Z</time>
      </trkpt>
      <trkpt lat="48.78946" lon="1.96548">
        <ele>174</ele>
        <time>2014-06-07T08:19:17.000Z</time>
      </trkpt>
      <trkpt lat="48.78954" lon="1.96551">
        <ele>173.60000610352</ele>
        <time>2014-06-07T08:19:23.000Z</time>
      </trkpt>
      <trkpt lat="48.78966" lon="1.96562">
        <ele>173.60000610352</ele>
        <time>2014-06-07T08:19:31.000Z</time>
      </trkpt>
      <trkpt lat="48.78975" lon="1.96568">
        <ele>173.39999389648</ele>
        <time>2014-06-07T08:19:37.000Z</time>
      </trkpt>
      <trkpt lat="48.78977" lon="1.96583">
        <ele>173.80000305176</ele>
        <time>2014-06-07T08:19:44.000Z</time>
      </trkpt>
      <trkpt lat="48.78979" lon="1.96603">
        <ele>173.80000305176</ele>
        <time>2014-06-07T08:19:52.000Z</time>
      </trkpt>
      <trkpt lat="48.78981" lon="1.96617">
        <ele>174</ele>
        <time>2014-06-07T08:19:59.000Z</time>
      </trkpt>
      <trkpt lat="48.78983" lon="1.96633">
        <ele>176.39999389648</ele>
        <time>2014-06-07T08:20:06.000Z</time>
      </trkpt>
      <trkpt lat="48.78982" lon="1.96649">
        <ele>179.39999389648</ele>
        <time>2014-06-07T08:20:13.000Z</time>
      </trkpt>
      <trkpt lat="48.78984" lon="1.96664">
        <ele>181</ele>
        <time>2014-06-07T08:20:20.000Z</time>
      </trkpt>
      <trkpt lat="48.78988" lon="1.96679">
        <ele>180.80000305176</ele>
        <time>2014-06-07T08:20:28.000Z</time>
      </trkpt>
      <trkpt lat="48.78995" lon="1.96692">
        <ele>180.19999694824</ele>
        <time>2014-06-07T08:20:34.000Z</time>
      </trkpt>
      <trkpt lat="48.78995" lon="1.96693">
        <ele>180.19999694824</ele>
        <time>2014-06-07T08:20:35.000Z</time>
      </trkpt>
      <trkpt lat="48.79" lon="1.96698">
        <ele>179.19999694824</ele>
        <time>2014-06-07T08:20:38.000Z</time>
      </trkpt>
      <trkpt lat="48.79001" lon="1.967">
        <ele>179.19999694824</ele>
        <time>2014-06-07T08:20:40.000Z</time>
      </trkpt>
      <trkpt lat="48.79008" lon="1.96706">
        <ele>178</ele>
        <time>2014-06-07T08:20:46.000Z</time>
      </trkpt>
      <trkpt lat="48.79009" lon="1.96711">
        <ele>178</ele>
        <time>2014-06-07T08:20:48.000Z</time>
      </trkpt>
      <trkpt lat="48.79011" lon="1.96726">
        <ele>178.60000610352</ele>
        <time>2014-06-07T08:20:54.000Z</time>
      </trkpt>
      <trkpt lat="48.79013" lon="1.9674">
        <ele>178.80000305176</ele>
        <time>2014-06-07T08:21:00.000Z</time>
      </trkpt>
      <trkpt lat="48.79013" lon="1.96757">
        <ele>179</ele>
        <time>2014-06-07T08:21:07.000Z</time>
      </trkpt>
      <trkpt lat="48.79013" lon="1.96769">
        <ele>179</ele>
        <time>2014-06-07T08:21:13.000Z</time>
      </trkpt>
      <trkpt lat="48.79011" lon="1.96785">
        <ele>179.39999389648</ele>
        <time>2014-06-07T08:21:20.000Z</time>
      </trkpt>
      <trkpt lat="48.79012" lon="1.96799">
        <ele>179.39999389648</ele>
        <time>2014-06-07T08:21:26.000Z</time>
      </trkpt>
      <trkpt lat="48.79013" lon="1.96812">
        <ele>179</ele>
        <time>2014-06-07T08:21:32.000Z</time>
      </trkpt>
      <trkpt lat="48.79013" lon="1.96816">
        <ele>179.19999694824</ele>
        <time>2014-06-07T08:21:34.000Z</time>
      </trkpt>
      <trkpt lat="48.79014" lon="1.96828">
        <ele>179.19999694824</ele>
        <time>2014-06-07T08:21:40.000Z</time>
      </trkpt>
      <trkpt lat="48.79016" lon="1.96832">
        <ele>178.60000610352</ele>
        <time>2014-06-07T08:21:42.000Z</time>
      </trkpt>
      <trkpt lat="48.79015" lon="1.96846">
        <ele>178.80000305176</ele>
        <time>2014-06-07T08:21:49.000Z</time>
      </trkpt>
      <trkpt lat="48.79013" lon="1.96854">
        <ele>179.19999694824</ele>
        <time>2014-06-07T08:21:53.000Z</time>
      </trkpt>
      <trkpt lat="48.79018" lon="1.96867">
        <ele>177.39999389648</ele>
        <time>2014-06-07T08:21:59.000Z</time>
      </trkpt>
      <trkpt lat="48.79016" lon="1.9687">
        <ele>178.19999694824</ele>
        <time>2014-06-07T08:22:01.000Z</time>
      </trkpt>
      <trkpt lat="48.79018" lon="1.96879">
        <ele>177.39999389648</ele>
        <time>2014-06-07T08:22:06.000Z</time>
      </trkpt>
      <trkpt lat="48.79018" lon="1.96889">
        <ele>177.39999389648</ele>
        <time>2014-06-07T08:22:10.000Z</time>
      </trkpt>
      <trkpt lat="48.79016" lon="1.96902">
        <ele>177.80000305176</ele>
        <time>2014-06-07T08:22:16.000Z</time>
      </trkpt>
      <trkpt lat="48.79019" lon="1.96916">
        <ele>177</ele>
        <time>2014-06-07T08:22:21.000Z</time>
      </trkpt>
      <trkpt lat="48.79018" lon="1.96923">
        <ele>177.19999694824</ele>
        <time>2014-06-07T08:22:24.000Z</time>
      </trkpt>
      <trkpt lat="48.79011" lon="1.96932">
        <ele>179.39999389648</ele>
        <time>2014-06-07T08:22:30.000Z</time>
      </trkpt>
      <trkpt lat="48.79005" lon="1.96936">
        <ele>181.39999389648</ele>
        <time>2014-06-07T08:22:35.000Z</time>
      </trkpt>
      <trkpt lat="48.79002" lon="1.96942">
        <ele>182.19999694824</ele>
        <time>2014-06-07T08:22:40.000Z</time>
      </trkpt>
      <trkpt lat="48.78999" lon="1.96949">
        <ele>183.39999389648</ele>
        <time>2014-06-07T08:22:45.000Z</time>
      </trkpt>
      <trkpt lat="48.78994" lon="1.9696">
        <ele>185</ele>
        <time>2014-06-07T08:22:52.000Z</time>
      </trkpt>
      <trkpt lat="48.78994" lon="1.96967">
        <ele>184.60000610352</ele>
        <time>2014-06-07T08:22:57.000Z</time>
      </trkpt>
      <trkpt lat="48.78987" lon="1.96975">
        <ele>186</ele>
        <time>2014-06-07T08:23:03.000Z</time>
      </trkpt>
      <trkpt lat="48.78984" lon="1.96978">
        <ele>186.80000305176</ele>
        <time>2014-06-07T08:23:06.000Z</time>
      </trkpt>
      <trkpt lat="48.78981" lon="1.96981">
        <ele>187.19999694824</ele>
        <time>2014-06-07T08:23:09.000Z</time>
      </trkpt>
      <trkpt lat="48.78974" lon="1.96987">
        <ele>188.80000305176</ele>
        <time>2014-06-07T08:23:14.000Z</time>
      </trkpt>
      <trkpt lat="48.78965" lon="1.96998">
        <ele>190.80000305176</ele>
        <time>2014-06-07T08:23:21.000Z</time>
      </trkpt>
      <trkpt lat="48.78966" lon="1.97">
        <ele>190.39999389648</ele>
        <time>2014-06-07T08:23:23.000Z</time>
      </trkpt>
      <trkpt lat="48.7897" lon="1.97016">
        <ele>188.80000305176</ele>
        <time>2014-06-07T08:23:32.000Z</time>
      </trkpt>
      <trkpt lat="48.7897" lon="1.9702">
        <ele>188.60000610352</ele>
        <time>2014-06-07T08:23:34.000Z</time>
      </trkpt>
      <trkpt lat="48.78973" lon="1.97034">
        <ele>186.60000610352</ele>
        <time>2014-06-07T08:23:41.000Z</time>
      </trkpt>
      <trkpt lat="48.78972" lon="1.97038">
        <ele>186.39999389648</ele>
        <time>2014-06-07T08:23:44.000Z</time>
      </trkpt>
      <trkpt lat="48.78972" lon="1.97046">
        <ele>185.60000610352</ele>
        <time>2014-06-07T08:23:57.000Z</time>
      </trkpt>
      <trkpt lat="48.78965" lon="1.97049">
        <ele>186.80000305176</ele>
        <time>2014-06-07T08:24:28.000Z</time>
      </trkpt>
      <trkpt lat="48.78969" lon="1.9705">
        <ele>185.80000305176</ele>
        <time>2014-06-07T08:24:33.000Z</time>
      </trkpt>
      <trkpt lat="48.78974" lon="1.97052">
        <ele>184.60000610352</ele>
        <time>2014-06-07T08:25:11.000Z</time>
      </trkpt>
      <trkpt lat="48.78975" lon="1.97049">
        <ele>184.80000305176</ele>
        <time>2014-06-07T08:25:20.000Z</time>
      </trkpt>
      <trkpt lat="48.78975" lon="1.97055">
        <ele>184</ele>
        <time>2014-06-07T08:25:33.000Z</time>
      </trkpt>
      <trkpt lat="48.78975" lon="1.97064">
        <ele>183</ele>
        <time>2014-06-07T08:25:39.000Z</time>
      </trkpt>
      <trkpt lat="48.78976" lon="1.97074">
        <ele>181.80000305176</ele>
        <time>2014-06-07T08:25:46.000Z</time>
      </trkpt>
      <trkpt lat="48.78976" lon="1.97076">
        <ele>181.80000305176</ele>
        <time>2014-06-07T08:25:47.000Z</time>
      </trkpt>
      <trkpt lat="48.78975" lon="1.97086">
        <ele>182.39999389648</ele>
        <time>2014-06-07T08:25:53.000Z</time>
      </trkpt>
      <trkpt lat="48.78978" lon="1.97093">
        <ele>182.19999694824</ele>
        <time>2014-06-07T08:25:57.000Z</time>
      </trkpt>
      <trkpt lat="48.78978" lon="1.97105">
        <ele>182.39999389648</ele>
        <time>2014-06-07T08:26:03.000Z</time>
      </trkpt>
      <trkpt lat="48.78978" lon="1.97107">
        <ele>182.39999389648</ele>
        <time>2014-06-07T08:26:04.000Z</time>
      </trkpt>
      <trkpt lat="48.78977" lon="1.97121">
        <ele>183</ele>
        <time>2014-06-07T08:26:10.000Z</time>
      </trkpt>
      <trkpt lat="48.78976" lon="1.97123">
        <ele>183</ele>
        <time>2014-06-07T08:26:11.000Z</time>
      </trkpt>
      <trkpt lat="48.78981" lon="1.97133">
        <ele>182</ele>
        <time>2014-06-07T08:26:16.000Z</time>
      </trkpt>
      <trkpt lat="48.78976" lon="1.9714">
        <ele>182.80000305176</ele>
        <time>2014-06-07T08:26:20.000Z</time>
      </trkpt>
      <trkpt lat="48.7897" lon="1.97148">
        <ele>183.60000610352</ele>
        <time>2014-06-07T08:26:25.000Z</time>
      </trkpt>
      <trkpt lat="48.78969" lon="1.97152">
        <ele>183.60000610352</ele>
        <time>2014-06-07T08:26:28.000Z</time>
      </trkpt>
      <trkpt lat="48.78968" lon="1.9716">
        <ele>183.60000610352</ele>
        <time>2014-06-07T08:26:32.000Z</time>
      </trkpt>
      <trkpt lat="48.78968" lon="1.97167">
        <ele>183.19999694824</ele>
        <time>2014-06-07T08:26:36.000Z</time>
      </trkpt>
      <trkpt lat="48.78967" lon="1.97177">
        <ele>183.19999694824</ele>
        <time>2014-06-07T08:26:42.000Z</time>
      </trkpt>
      <trkpt lat="48.78967" lon="1.97178">
        <ele>183.19999694824</ele>
        <time>2014-06-07T08:26:43.000Z</time>
      </trkpt>
      <trkpt lat="48.78964" lon="1.9719">
        <ele>183</ele>
        <time>2014-06-07T08:26:50.000Z</time>
      </trkpt>
      <trkpt lat="48.78956" lon="1.97195">
        <ele>183.80000305176</ele>
        <time>2014-06-07T08:26:55.000Z</time>
      </trkpt>
      <trkpt lat="48.78948" lon="1.97201">
        <ele>184.60000610352</ele>
        <time>2014-06-07T08:27:16.000Z</time>
      </trkpt>
      <trkpt lat="48.78948" lon="1.97201">
        <ele>184.60000610352</ele>
        <time>2014-06-07T08:27:17.000Z</time>
      </trkpt>
      <trkpt lat="48.78943" lon="1.97202">
        <ele>185.19999694824</ele>
        <time>2014-06-07T08:27:21.000Z</time>
      </trkpt>
      <trkpt lat="48.78939" lon="1.9721">
        <ele>185.39999389648</ele>
        <time>2014-06-07T08:27:33.000Z</time>
      </trkpt>
      <trkpt lat="48.78951" lon="1.97198">
        <ele>184.39999389648</ele>
        <time>2014-06-07T08:27:48.000Z</time>
      </trkpt>
      <trkpt lat="48.78955" lon="1.97211">
        <ele>183.19999694824</ele>
        <time>2014-06-07T08:27:54.000Z</time>
      </trkpt>
      <trkpt lat="48.78953" lon="1.97213">
        <ele>183.39999389648</ele>
        <time>2014-06-07T08:27:55.000Z</time>
      </trkpt>
      <trkpt lat="48.78942" lon="1.97225">
        <ele>184.19999694824</ele>
        <time>2014-06-07T08:28:00.000Z</time>
      </trkpt>
      <trkpt lat="48.78929" lon="1.97241">
        <ele>184.39999389648</ele>
        <time>2014-06-07T08:28:08.000Z</time>
      </trkpt>
      <trkpt lat="48.78923" lon="1.97245">
        <ele>184.19999694824</ele>
        <time>2014-06-07T08:28:13.000Z</time>
      </trkpt>
      <trkpt lat="48.78912" lon="1.97253">
        <ele>183.60000610352</ele>
        <time>2014-06-07T08:28:18.000Z</time>
      </trkpt>
      <trkpt lat="48.78901" lon="1.97257">
        <ele>183.60000610352</ele>
        <time>2014-06-07T08:28:24.000Z</time>
      </trkpt>
      <trkpt lat="48.78894" lon="1.97265">
        <ele>183</ele>
        <time>2014-06-07T08:28:30.000Z</time>
      </trkpt>
      <trkpt lat="48.78887" lon="1.97269">
        <ele>182.80000305176</ele>
        <time>2014-06-07T08:28:36.000Z</time>
      </trkpt>
      <trkpt lat="48.78883" lon="1.97271">
        <ele>182.60000610352</ele>
        <time>2014-06-07T08:28:38.000Z</time>
      </trkpt>
      <trkpt lat="48.78875" lon="1.97278">
        <ele>182</ele>
        <time>2014-06-07T08:28:44.000Z</time>
      </trkpt>
      <trkpt lat="48.78868" lon="1.97278">
        <ele>182.19999694824</ele>
        <time>2014-06-07T08:28:50.000Z</time>
      </trkpt>
      <trkpt lat="48.78856" lon="1.97279">
        <ele>182.60000610352</ele>
        <time>2014-06-07T08:29:12.000Z</time>
      </trkpt>
      <trkpt lat="48.78848" lon="1.97276">
        <ele>182</ele>
        <time>2014-06-07T08:29:17.000Z</time>
      </trkpt>
      <trkpt lat="48.78841" lon="1.97272">
        <ele>181.19999694824</ele>
        <time>2014-06-07T08:29:22.000Z</time>
      </trkpt>
      <trkpt lat="48.78836" lon="1.9727">
        <ele>180.80000305176</ele>
        <time>2014-06-07T08:29:27.000Z</time>
      </trkpt>
      <trkpt lat="48.78834" lon="1.97267">
        <ele>180.80000305176</ele>
        <time>2014-06-07T08:29:30.000Z</time>
      </trkpt>
      <trkpt lat="48.78825" lon="1.97255">
        <ele>181</ele>
        <time>2014-06-07T08:29:37.000Z</time>
      </trkpt>
      <trkpt lat="48.7882" lon="1.97245">
        <ele>181.60000610352</ele>
        <time>2014-06-07T08:29:43.000Z</time>
      </trkpt>
      <trkpt lat="48.78818" lon="1.97242">
        <ele>181.60000610352</ele>
        <time>2014-06-07T08:29:45.000Z</time>
      </trkpt>
      <trkpt lat="48.7881" lon="1.9724">
        <ele>180.60000610352</ele>
        <time>2014-06-07T08:29:51.000Z</time>
      </trkpt>
      <trkpt lat="48.78797" lon="1.97242">
        <ele>178.19999694824</ele>
        <time>2014-06-07T08:30:00.000Z</time>
      </trkpt>
      <trkpt lat="48.78788" lon="1.97244">
        <ele>176.39999389648</ele>
        <time>2014-06-07T08:30:05.000Z</time>
      </trkpt>
      <trkpt lat="48.78784" lon="1.97244">
        <ele>175.60000610352</ele>
        <time>2014-06-07T08:30:10.000Z</time>
      </trkpt>
      <trkpt lat="48.78789" lon="1.97235">
        <ele>177.39999389648</ele>
        <time>2014-06-07T08:30:19.000Z</time>
      </trkpt>
      <trkpt lat="48.78796" lon="1.97232">
        <ele>178.60000610352</ele>
        <time>2014-06-07T08:30:24.000Z</time>
      </trkpt>
      <trkpt lat="48.78802" lon="1.97229">
        <ele>179.80000305176</ele>
        <time>2014-06-07T08:30:29.000Z</time>
      </trkpt>
      <trkpt lat="48.78803" lon="1.97226">
        <ele>180.19999694824</ele>
        <time>2014-06-07T08:30:33.000Z</time>
      </trkpt>
      <trkpt lat="48.78796" lon="1.97219">
        <ele>179.39999389648</ele>
        <time>2014-06-07T08:30:40.000Z</time>
      </trkpt>
      <trkpt lat="48.78794" lon="1.97217">
        <ele>179.19999694824</ele>
        <time>2014-06-07T08:30:44.000Z</time>
      </trkpt>
      <trkpt lat="48.7879" lon="1.97218">
        <ele>178.60000610352</ele>
        <time>2014-06-07T08:30:47.000Z</time>
      </trkpt>
      <trkpt lat="48.78789" lon="1.97214">
        <ele>178.60000610352</ele>
        <time>2014-06-07T08:30:51.000Z</time>
      </trkpt>
      <trkpt lat="48.78786" lon="1.97208">
        <ele>178.39999389648</ele>
        <time>2014-06-07T08:30:55.000Z</time>
      </trkpt>
      <trkpt lat="48.78785" lon="1.97207">
        <ele>178.19999694824</ele>
        <time>2014-06-07T08:30:56.000Z</time>
      </trkpt>
      <trkpt lat="48.7878" lon="1.97201">
        <ele>177.80000305176</ele>
        <time>2014-06-07T08:31:02.000Z</time>
      </trkpt>
      <trkpt lat="48.78776" lon="1.97199">
        <ele>177.39999389648</ele>
        <time>2014-06-07T08:31:06.000Z</time>
      </trkpt>
      <trkpt lat="48.78776" lon="1.97196">
        <ele>177.39999389648</ele>
        <time>2014-06-07T08:31:08.000Z</time>
      </trkpt>
      <trkpt lat="48.78774" lon="1.97194">
        <ele>177.39999389648</ele>
        <time>2014-06-07T08:31:10.000Z</time>
      </trkpt>
      <trkpt lat="48.78772" lon="1.97192">
        <ele>177</ele>
        <time>2014-06-07T08:31:12.000Z</time>
      </trkpt>
      <trkpt lat="48.78777" lon="1.97183">
        <ele>178.39999389648</ele>
        <time>2014-06-07T08:31:18.000Z</time>
      </trkpt>
      <trkpt lat="48.78784" lon="1.97174">
        <ele>180</ele>
        <time>2014-06-07T08:31:23.000Z</time>
      </trkpt>
      <trkpt lat="48.78789" lon="1.97169">
        <ele>181.39999389648</ele>
        <time>2014-06-07T08:31:29.000Z</time>
      </trkpt>
      <trkpt lat="48.78794" lon="1.9716">
        <ele>182.80000305176</ele>
        <time>2014-06-07T08:31:34.000Z</time>
      </trkpt>
      <trkpt lat="48.78799" lon="1.9715">
        <ele>184.39999389648</ele>
        <time>2014-06-07T08:31:41.000Z</time>
      </trkpt>
      <trkpt lat="48.78802" lon="1.97147">
        <ele>185</ele>
        <time>2014-06-07T08:31:46.000Z</time>
      </trkpt>
      <trkpt lat="48.78807" lon="1.97141">
        <ele>186.19999694824</ele>
        <time>2014-06-07T08:31:52.000Z</time>
      </trkpt>
      <trkpt lat="48.78807" lon="1.9714">
        <ele>186.39999389648</ele>
        <time>2014-06-07T08:31:53.000Z</time>
      </trkpt>
      <trkpt lat="48.78808" lon="1.97131">
        <ele>186.80000305176</ele>
        <time>2014-06-07T08:31:59.000Z</time>
      </trkpt>
      <trkpt lat="48.78807" lon="1.9713">
        <ele>186.80000305176</ele>
        <time>2014-06-07T08:32:00.000Z</time>
      </trkpt>
      <trkpt lat="48.78807" lon="1.97126">
        <ele>187</ele>
        <time>2014-06-07T08:32:04.000Z</time>
      </trkpt>
      <trkpt lat="48.7881" lon="1.97123">
        <ele>187.60000610352</ele>
        <time>2014-06-07T08:32:10.000Z</time>
      </trkpt>
      <trkpt lat="48.78817" lon="1.97112">
        <ele>189.19999694824</ele>
        <time>2014-06-07T08:32:17.000Z</time>
      </trkpt>
      <trkpt lat="48.78819" lon="1.97109">
        <ele>189.60000610352</ele>
        <time>2014-06-07T08:32:21.000Z</time>
      </trkpt>
      <trkpt lat="48.78822" lon="1.97103">
        <ele>190.39999389648</ele>
        <time>2014-06-07T08:32:26.000Z</time>
      </trkpt>
      <trkpt lat="48.78822" lon="1.97094">
        <ele>190.80000305176</ele>
        <time>2014-06-07T08:32:33.000Z</time>
      </trkpt>
      <trkpt lat="48.78825" lon="1.97089">
        <ele>191.39999389648</ele>
        <time>2014-06-07T08:32:37.000Z</time>
      </trkpt>
      <trkpt lat="48.7883" lon="1.9708">
        <ele>192.60000610352</ele>
        <time>2014-06-07T08:32:45.000Z</time>
      </trkpt>
      <trkpt lat="48.78832" lon="1.97074">
        <ele>193.19999694824</ele>
        <time>2014-06-07T08:32:51.000Z</time>
      </trkpt>
      <trkpt lat="48.78837" lon="1.97066">
        <ele>194.19999694824</ele>
        <time>2014-06-07T08:32:58.000Z</time>
      </trkpt>
      <trkpt lat="48.78841" lon="1.97059">
        <ele>195.19999694824</ele>
        <time>2014-06-07T08:33:04.000Z</time>
      </trkpt>
      <trkpt lat="48.78842" lon="1.97052">
        <ele>196</ele>
        <time>2014-06-07T08:33:09.000Z</time>
      </trkpt>
      <trkpt lat="48.78845" lon="1.97047">
        <ele>197.19999694824</ele>
        <time>2014-06-07T08:33:14.000Z</time>
      </trkpt>
      <trkpt lat="48.78848" lon="1.97043">
        <ele>198</ele>
        <time>2014-06-07T08:33:18.000Z</time>
      </trkpt>
      <trkpt lat="48.78852" lon="1.97034">
        <ele>199.80000305176</ele>
        <time>2014-06-07T08:33:25.000Z</time>
      </trkpt>
      <trkpt lat="48.78854" lon="1.97025">
        <ele>201</ele>
        <time>2014-06-07T08:33:32.000Z</time>
      </trkpt>
      <trkpt lat="48.78856" lon="1.97013">
        <ele>202</ele>
        <time>2014-06-07T08:33:41.000Z</time>
      </trkpt>
      <trkpt lat="48.78859" lon="1.97003">
        <ele>202.60000610352</ele>
        <time>2014-06-07T08:33:48.000Z</time>
      </trkpt>
      <trkpt lat="48.78861" lon="1.96996">
        <ele>203.19999694824</ele>
        <time>2014-06-07T08:33:54.000Z</time>
      </trkpt>
      <trkpt lat="48.78861" lon="1.96984">
        <ele>204.39999389648</ele>
        <time>2014-06-07T08:34:01.000Z</time>
      </trkpt>
      <trkpt lat="48.78862" lon="1.96978">
        <ele>204.80000305176</ele>
        <time>2014-06-07T08:34:06.000Z</time>
      </trkpt>
      <trkpt lat="48.78861" lon="1.96971">
        <ele>205.80000305176</ele>
        <time>2014-06-07T08:34:11.000Z</time>
      </trkpt>
      <trkpt lat="48.78861" lon="1.96967">
        <ele>206.19999694824</ele>
        <time>2014-06-07T08:34:15.000Z</time>
      </trkpt>
      <trkpt lat="48.78861" lon="1.9696">
        <ele>206.80000305176</ele>
        <time>2014-06-07T08:34:21.000Z</time>
      </trkpt>
      <trkpt lat="48.78862" lon="1.96954">
        <ele>207.39999389648</ele>
        <time>2014-06-07T08:34:26.000Z</time>
      </trkpt>
      <trkpt lat="48.78862" lon="1.96949">
        <ele>208</ele>
        <time>2014-06-07T08:34:30.000Z</time>
      </trkpt>
      <trkpt lat="48.78862" lon="1.96942">
        <ele>208.80000305176</ele>
        <time>2014-06-07T08:34:35.000Z</time>
      </trkpt>
      <trkpt lat="48.78861" lon="1.96934">
        <ele>209.80000305176</ele>
        <time>2014-06-07T08:34:42.000Z</time>
      </trkpt>
      <trkpt lat="48.78861" lon="1.96932">
        <ele>210</ele>
        <time>2014-06-07T08:34:43.000Z</time>
      </trkpt>
      <trkpt lat="48.7886" lon="1.96922">
        <ele>211</ele>
        <time>2014-06-07T08:34:50.000Z</time>
      </trkpt>
      <trkpt lat="48.7886" lon="1.96911">
        <ele>212.19999694824</ele>
        <time>2014-06-07T08:34:57.000Z</time>
      </trkpt>
      <trkpt lat="48.78859" lon="1.96902">
        <ele>212.80000305176</ele>
        <time>2014-06-07T08:35:03.000Z</time>
      </trkpt>
      <trkpt lat="48.78857" lon="1.96891">
        <ele>213.39999389648</ele>
        <time>2014-06-07T08:35:09.000Z</time>
      </trkpt>
      <trkpt lat="48.78856" lon="1.96882">
        <ele>214.19999694824</ele>
        <time>2014-06-07T08:35:15.000Z</time>
      </trkpt>
      <trkpt lat="48.78854" lon="1.96867">
        <ele>215</ele>
        <time>2014-06-07T08:35:23.000Z</time>
      </trkpt>
      <trkpt lat="48.78853" lon="1.96862">
        <ele>215</ele>
        <time>2014-06-07T08:35:26.000Z</time>
      </trkpt>
      <trkpt lat="48.78852" lon="1.96853">
        <ele>215.19999694824</ele>
        <time>2014-06-07T08:35:31.000Z</time>
      </trkpt>
      <trkpt lat="48.78851" lon="1.96841">
        <ele>215.60000610352</ele>
        <time>2014-06-07T08:35:38.000Z</time>
      </trkpt>
      <trkpt lat="48.7885" lon="1.9683">
        <ele>216</ele>
        <time>2014-06-07T08:35:45.000Z</time>
      </trkpt>
      <trkpt lat="48.78848" lon="1.96827">
        <ele>215.80000305176</ele>
        <time>2014-06-07T08:35:48.000Z</time>
      </trkpt>
      <trkpt lat="48.78845" lon="1.96819">
        <ele>215.60000610352</ele>
        <time>2014-06-07T08:35:54.000Z</time>
      </trkpt>
      <trkpt lat="48.78844" lon="1.96818">
        <ele>215.39999389648</ele>
        <time>2014-06-07T08:35:55.000Z</time>
      </trkpt>
      <trkpt lat="48.78843" lon="1.96817">
        <ele>215.39999389648</ele>
        <time>2014-06-07T08:35:57.000Z</time>
      </trkpt>
      <trkpt lat="48.78839" lon="1.9681">
        <ele>215</ele>
        <time>2014-06-07T08:36:03.000Z</time>
      </trkpt>
      <trkpt lat="48.78834" lon="1.96806">
        <ele>214.19999694824</ele>
        <time>2014-06-07T08:36:08.000Z</time>
      </trkpt>
      <trkpt lat="48.7883" lon="1.96798">
        <ele>213.60000610352</ele>
        <time>2014-06-07T08:36:15.000Z</time>
      </trkpt>
      <trkpt lat="48.78829" lon="1.96795">
        <ele>213.39999389648</ele>
        <time>2014-06-07T08:36:17.000Z</time>
      </trkpt>
      <trkpt lat="48.78826" lon="1.9679">
        <ele>212.80000305176</ele>
        <time>2014-06-07T08:36:22.000Z</time>
      </trkpt>
      <trkpt lat="48.78823" lon="1.96782">
        <ele>212</ele>
        <time>2014-06-07T08:36:28.000Z</time>
      </trkpt>
      <trkpt lat="48.78817" lon="1.96772">
        <ele>211</ele>
        <time>2014-06-07T08:36:35.000Z</time>
      </trkpt>
      <trkpt lat="48.78812" lon="1.96765">
        <ele>210.19999694824</ele>
        <time>2014-06-07T08:36:41.000Z</time>
      </trkpt>
      <trkpt lat="48.78805" lon="1.96759">
        <ele>209.39999389648</ele>
        <time>2014-06-07T08:36:47.000Z</time>
      </trkpt>
      <trkpt lat="48.78799" lon="1.96755">
        <ele>208.60000610352</ele>
        <time>2014-06-07T08:36:53.000Z</time>
      </trkpt>
      <trkpt lat="48.78795" lon="1.96748">
        <ele>208</ele>
        <time>2014-06-07T08:36:58.000Z</time>
      </trkpt>
      <trkpt lat="48.7879" lon="1.96739">
        <ele>207.19999694824</ele>
        <time>2014-06-07T08:37:05.000Z</time>
      </trkpt>
      <trkpt lat="48.78783" lon="1.96727">
        <ele>206.80000305176</ele>
        <time>2014-06-07T08:37:12.000Z</time>
      </trkpt>
      <trkpt lat="48.78775" lon="1.96719">
        <ele>206.39999389648</ele>
        <time>2014-06-07T08:37:18.000Z</time>
      </trkpt>
      <trkpt lat="48.78768" lon="1.9671">
        <ele>205.60000610352</ele>
        <time>2014-06-07T08:37:24.000Z</time>
      </trkpt>
      <trkpt lat="48.78761" lon="1.96701">
        <ele>204.60000610352</ele>
        <time>2014-06-07T08:37:30.000Z</time>
      </trkpt>
      <trkpt lat="48.78761" lon="1.96701">
        <ele>204.60000610352</ele>
        <time>2014-06-07T08:37:32.000Z</time>
      </trkpt>
      <trkpt lat="48.78756" lon="1.96696">
        <ele>203.80000305176</ele>
        <time>2014-06-07T08:37:37.000Z</time>
      </trkpt>
      <trkpt lat="48.78748" lon="1.96684">
        <ele>202.39999389648</ele>
        <time>2014-06-07T08:37:43.000Z</time>
      </trkpt>
      <trkpt lat="48.78742" lon="1.96673">
        <ele>201.60000610352</ele>
        <time>2014-06-07T08:37:48.000Z</time>
      </trkpt>
      <trkpt lat="48.78734" lon="1.96666">
        <ele>200.19999694824</ele>
        <time>2014-06-07T08:37:54.000Z</time>
      </trkpt>
      <trkpt lat="48.78728" lon="1.96654">
        <ele>199</ele>
        <time>2014-06-07T08:38:00.000Z</time>
      </trkpt>
      <trkpt lat="48.78727" lon="1.96652">
        <ele>198.60000610352</ele>
        <time>2014-06-07T08:38:01.000Z</time>
      </trkpt>
      <trkpt lat="48.78722" lon="1.96647">
        <ele>197.39999389648</ele>
        <time>2014-06-07T08:38:05.000Z</time>
      </trkpt>
      <trkpt lat="48.78716" lon="1.96638">
        <ele>195.60000610352</ele>
        <time>2014-06-07T08:38:10.000Z</time>
      </trkpt>
      <trkpt lat="48.78712" lon="1.9663">
        <ele>194.19999694824</ele>
        <time>2014-06-07T08:38:15.000Z</time>
      </trkpt>
      <trkpt lat="48.78707" lon="1.96618">
        <ele>192.39999389648</ele>
        <time>2014-06-07T08:38:21.000Z</time>
      </trkpt>
      <trkpt lat="48.78706" lon="1.96617">
        <ele>192.19999694824</ele>
        <time>2014-06-07T08:38:22.000Z</time>
      </trkpt>
      <trkpt lat="48.78703" lon="1.96613">
        <ele>191.39999389648</ele>
        <time>2014-06-07T08:38:26.000Z</time>
      </trkpt>
      <trkpt lat="48.78697" lon="1.96609">
        <ele>190.19999694824</ele>
        <time>2014-06-07T08:38:31.000Z</time>
      </trkpt>
      <trkpt lat="48.7869" lon="1.96606">
        <ele>188.60000610352</ele>
        <time>2014-06-07T08:38:37.000Z</time>
      </trkpt>
      <trkpt lat="48.78688" lon="1.96605">
        <ele>188.19999694824</ele>
        <time>2014-06-07T08:38:39.000Z</time>
      </trkpt>
      <trkpt lat="48.78685" lon="1.96602">
        <ele>187.60000610352</ele>
        <time>2014-06-07T08:38:42.000Z</time>
      </trkpt>
      <trkpt lat="48.78675" lon="1.96597">
        <ele>186</ele>
        <time>2014-06-07T08:38:50.000Z</time>
      </trkpt>
      <trkpt lat="48.78669" lon="1.9659">
        <ele>185</ele>
        <time>2014-06-07T08:38:57.000Z</time>
      </trkpt>
      <trkpt lat="48.78669" lon="1.96589">
        <ele>184.80000305176</ele>
        <time>2014-06-07T08:38:58.000Z</time>
      </trkpt>
      <trkpt lat="48.78664" lon="1.9659">
        <ele>184.19999694824</ele>
        <time>2014-06-07T08:39:02.000Z</time>
      </trkpt>
      <trkpt lat="48.78664" lon="1.96595">
        <ele>184.60000610352</ele>
        <time>2014-06-07T08:39:07.000Z</time>
      </trkpt>
      <trkpt lat="48.78662" lon="1.96599">
        <ele>184.60000610352</ele>
        <time>2014-06-07T08:39:10.000Z</time>
      </trkpt>
      <trkpt lat="48.7866" lon="1.96601">
        <ele>184.60000610352</ele>
        <time>2014-06-07T08:39:13.000Z</time>
      </trkpt>
      <trkpt lat="48.78659" lon="1.96599">
        <ele>184.19999694824</ele>
        <time>2014-06-07T08:39:24.000Z</time>
      </trkpt>
      <trkpt lat="48.78663" lon="1.96584">
        <ele>183.60000610352</ele>
        <time>2014-06-07T08:39:31.000Z</time>
      </trkpt>
      <trkpt lat="48.78669" lon="1.96573">
        <ele>183.60000610352</ele>
        <time>2014-06-07T08:39:38.000Z</time>
      </trkpt>
      <trkpt lat="48.78676" lon="1.96562">
        <ele>184.19999694824</ele>
        <time>2014-06-07T08:39:46.000Z</time>
      </trkpt>
      <trkpt lat="48.7868" lon="1.96558">
        <ele>183.80000305176</ele>
        <time>2014-06-07T08:39:49.000Z</time>
      </trkpt>
      <trkpt lat="48.78688" lon="1.96552">
        <ele>183</ele>
        <time>2014-06-07T08:39:56.000Z</time>
      </trkpt>
      <trkpt lat="48.78691" lon="1.96547">
        <ele>182.39999389648</ele>
        <time>2014-06-07T08:39:59.000Z</time>
      </trkpt>
      <trkpt lat="48.787" lon="1.96536">
        <ele>181.60000610352</ele>
        <time>2014-06-07T08:40:06.000Z</time>
      </trkpt>
      <trkpt lat="48.78709" lon="1.96532">
        <ele>181.39999389648</ele>
        <time>2014-06-07T08:40:12.000Z</time>
      </trkpt>
      <trkpt lat="48.78717" lon="1.96527">
        <ele>181</ele>
        <time>2014-06-07T08:40:18.000Z</time>
      </trkpt>
      <trkpt lat="48.78726" lon="1.96526">
        <ele>181.39999389648</ele>
        <time>2014-06-07T08:40:24.000Z</time>
      </trkpt>
      <trkpt lat="48.78736" lon="1.96529">
        <ele>181.80000305176</ele>
        <time>2014-06-07T08:40:30.000Z</time>
      </trkpt>
      <trkpt lat="48.78747" lon="1.96536">
        <ele>183.19999694824</ele>
        <time>2014-06-07T08:40:36.000Z</time>
      </trkpt>
      <trkpt lat="48.78754" lon="1.96542">
        <ele>184.39999389648</ele>
        <time>2014-06-07T08:40:42.000Z</time>
      </trkpt>
      <trkpt lat="48.78755" lon="1.96543">
        <ele>184.60000610352</ele>
        <time>2014-06-07T08:40:43.000Z</time>
      </trkpt>
      <trkpt lat="48.78765" lon="1.9655">
        <ele>185.80000305176</ele>
        <time>2014-06-07T08:40:51.000Z</time>
      </trkpt>
      <trkpt lat="48.78768" lon="1.96551">
        <ele>186</ele>
        <time>2014-06-07T08:40:57.000Z</time>
      </trkpt>
      <trkpt lat="48.7877" lon="1.96551">
        <ele>186.19999694824</ele>
        <time>2014-06-07T08:41:01.000Z</time>
      </trkpt>
      <trkpt lat="48.78772" lon="1.96555">
        <ele>186.60000610352</ele>
        <time>2014-06-07T08:41:12.000Z</time>
      </trkpt>
      <trkpt lat="48.78777" lon="1.96557">
        <ele>186.19999694824</ele>
        <time>2014-06-07T08:41:17.000Z</time>
      </trkpt>
      <trkpt lat="48.78781" lon="1.96562">
        <ele>186.60000610352</ele>
        <time>2014-06-07T08:41:24.000Z</time>
      </trkpt>
      <trkpt lat="48.78785" lon="1.96565">
        <ele>186.39999389648</ele>
        <time>2014-06-07T08:41:29.000Z</time>
      </trkpt>
      <trkpt lat="48.78788" lon="1.96569">
        <ele>186.80000305176</ele>
        <time>2014-06-07T08:41:34.000Z</time>
      </trkpt>
      <trkpt lat="48.7879" lon="1.96574">
        <ele>187.19999694824</ele>
        <time>2014-06-07T08:41:39.000Z</time>
      </trkpt>
      <trkpt lat="48.78789" lon="1.96575">
        <ele>187.60000610352</ele>
        <time>2014-06-07T08:41:42.000Z</time>
      </trkpt>
      <trkpt lat="48.78791" lon="1.96577">
        <ele>188</ele>
        <time>2014-06-07T08:41:45.000Z</time>
      </trkpt>
      <trkpt lat="48.78791" lon="1.96578">
        <ele>188.19999694824</ele>
        <time>2014-06-07T08:41:47.000Z</time>
      </trkpt>
      <trkpt lat="48.7879" lon="1.96578">
        <ele>188.19999694824</ele>
        <time>2014-06-07T08:41:58.000Z</time>
      </trkpt>
      <trkpt lat="48.78785" lon="1.96572">
        <ele>187.60000610352</ele>
        <time>2014-06-07T08:42:04.000Z</time>
      </trkpt>
      <trkpt lat="48.78784" lon="1.96571">
        <ele>187.60000610352</ele>
        <time>2014-06-07T08:42:06.000Z</time>
      </trkpt>
      <trkpt lat="48.78782" lon="1.96569">
        <ele>187.60000610352</ele>
        <time>2014-06-07T08:42:09.000Z</time>
      </trkpt>
      <trkpt lat="48.78781" lon="1.96566">
        <ele>187</ele>
        <time>2014-06-07T08:42:12.000Z</time>
      </trkpt>
      <trkpt lat="48.78776" lon="1.96566">
        <ele>187.80000305176</ele>
        <time>2014-06-07T08:42:16.000Z</time>
      </trkpt>
      <trkpt lat="48.78773" lon="1.96564">
        <ele>188</ele>
        <time>2014-06-07T08:42:19.000Z</time>
      </trkpt>
      <trkpt lat="48.78769" lon="1.96565">
        <ele>188.39999389648</ele>
        <time>2014-06-07T08:42:22.000Z</time>
      </trkpt>
      <trkpt lat="48.78763" lon="1.96561">
        <ele>187.60000610352</ele>
        <time>2014-06-07T08:42:29.000Z</time>
      </trkpt>
      <trkpt lat="48.78758" lon="1.96556">
        <ele>186.60000610352</ele>
        <time>2014-06-07T08:42:34.000Z</time>
      </trkpt>
      <trkpt lat="48.78752" lon="1.96551">
        <ele>185.80000305176</ele>
        <time>2014-06-07T08:42:40.000Z</time>
      </trkpt>
      <trkpt lat="48.78745" lon="1.96545">
        <ele>184.80000305176</ele>
        <time>2014-06-07T08:42:46.000Z</time>
      </trkpt>
      <trkpt lat="48.78744" lon="1.96544">
        <ele>184.60000610352</ele>
        <time>2014-06-07T08:42:47.000Z</time>
      </trkpt>
      <trkpt lat="48.7874" lon="1.9654">
        <ele>183.80000305176</ele>
        <time>2014-06-07T08:42:50.000Z</time>
      </trkpt>
      <trkpt lat="48.78733" lon="1.96537">
        <ele>183.19999694824</ele>
        <time>2014-06-07T08:42:55.000Z</time>
      </trkpt>
      <trkpt lat="48.78723" lon="1.96536">
        <ele>182.60000610352</ele>
        <time>2014-06-07T08:43:01.000Z</time>
      </trkpt>
      <trkpt lat="48.7871" lon="1.96537">
        <ele>182.19999694824</ele>
        <time>2014-06-07T08:43:09.000Z</time>
      </trkpt>
      <trkpt lat="48.78701" lon="1.96542">
        <ele>182.19999694824</ele>
        <time>2014-06-07T08:43:16.000Z</time>
      </trkpt>
      <trkpt lat="48.78693" lon="1.96546">
        <ele>182.60000610352</ele>
        <time>2014-06-07T08:43:22.000Z</time>
      </trkpt>
      <trkpt lat="48.78687" lon="1.96551">
        <ele>183</ele>
        <time>2014-06-07T08:43:28.000Z</time>
      </trkpt>
      <trkpt lat="48.78685" lon="1.96554">
        <ele>183.19999694824</ele>
        <time>2014-06-07T08:43:32.000Z</time>
      </trkpt>
      <trkpt lat="48.78682" lon="1.96558">
        <ele>183.80000305176</ele>
        <time>2014-06-07T08:43:36.000Z</time>
      </trkpt>
      <trkpt lat="48.78674" lon="1.96569">
        <ele>184.19999694824</ele>
        <time>2014-06-07T08:43:44.000Z</time>
      </trkpt>
      <trkpt lat="48.78669" lon="1.96581">
        <ele>184.19999694824</ele>
        <time>2014-06-07T08:43:50.000Z</time>
      </trkpt>
      <trkpt lat="48.78665" lon="1.96589">
        <ele>184.19999694824</ele>
        <time>2014-06-07T08:43:55.000Z</time>
      </trkpt>
      <trkpt lat="48.78659" lon="1.96603">
        <ele>184.60000610352</ele>
        <time>2014-06-07T08:44:01.000Z</time>
      </trkpt>
      <trkpt lat="48.78657" lon="1.96606">
        <ele>184.39999389648</ele>
        <time>2014-06-07T08:44:04.000Z</time>
      </trkpt>
      <trkpt lat="48.78648" lon="1.96605">
        <ele>183.39999389648</ele>
        <time>2014-06-07T08:44:11.000Z</time>
      </trkpt>
      <trkpt lat="48.78646" lon="1.96606">
        <ele>183.19999694824</ele>
        <time>2014-06-07T08:44:13.000Z</time>
      </trkpt>
      <trkpt lat="48.78637" lon="1.96606">
        <ele>182.19999694824</ele>
        <time>2014-06-07T08:44:20.000Z</time>
      </trkpt>
      <trkpt lat="48.7863" lon="1.96607">
        <ele>180.80000305176</ele>
        <time>2014-06-07T08:44:26.000Z</time>
      </trkpt>
      <trkpt lat="48.78627" lon="1.96605">
        <ele>180.39999389648</ele>
        <time>2014-06-07T08:44:30.000Z</time>
      </trkpt>
      <trkpt lat="48.78624" lon="1.96603">
        <ele>179.80000305176</ele>
        <time>2014-06-07T08:44:34.000Z</time>
      </trkpt>
      <trkpt lat="48.78621" lon="1.96603">
        <ele>179.19999694824</ele>
        <time>2014-06-07T08:44:36.000Z</time>
      </trkpt>
      <trkpt lat="48.78619" lon="1.96604">
        <ele>178.80000305176</ele>
        <time>2014-06-07T08:44:38.000Z</time>
      </trkpt>
      <trkpt lat="48.78612" lon="1.96604">
        <ele>177.39999389648</ele>
        <time>2014-06-07T08:44:47.000Z</time>
      </trkpt>
      <trkpt lat="48.78603" lon="1.96602">
        <ele>175.80000305176</ele>
        <time>2014-06-07T08:44:55.000Z</time>
      </trkpt>
      <trkpt lat="48.78595" lon="1.96601">
        <ele>175.19999694824</ele>
        <time>2014-06-07T08:45:01.000Z</time>
      </trkpt>
      <trkpt lat="48.78588" lon="1.96601">
        <ele>174.80000305176</ele>
        <time>2014-06-07T08:45:07.000Z</time>
      </trkpt>
      <trkpt lat="48.78588" lon="1.96602">
        <ele>174.80000305176</ele>
        <time>2014-06-07T08:45:09.000Z</time>
      </trkpt>
      <trkpt lat="48.78583" lon="1.96602">
        <ele>174.39999389648</ele>
        <time>2014-06-07T08:45:14.000Z</time>
      </trkpt>
      <trkpt lat="48.78576" lon="1.966">
        <ele>174</ele>
        <time>2014-06-07T08:45:20.000Z</time>
      </trkpt>
      <trkpt lat="48.78569" lon="1.96598">
        <ele>173.39999389648</ele>
        <time>2014-06-07T08:45:26.000Z</time>
      </trkpt>
      <trkpt lat="48.78562" lon="1.966">
        <ele>173</ele>
        <time>2014-06-07T08:45:32.000Z</time>
      </trkpt>
      <trkpt lat="48.7856" lon="1.966">
        <ele>172.80000305176</ele>
        <time>2014-06-07T08:45:33.000Z</time>
      </trkpt>
      <trkpt lat="48.78557" lon="1.9661">
        <ele>172.60000610352</ele>
        <time>2014-06-07T08:45:40.000Z</time>
      </trkpt>
      <trkpt lat="48.78557" lon="1.96612">
        <ele>172.60000610352</ele>
        <time>2014-06-07T08:45:41.000Z</time>
      </trkpt>
      <trkpt lat="48.78553" lon="1.96625">
        <ele>172.80000305176</ele>
        <time>2014-06-07T08:45:48.000Z</time>
      </trkpt>
      <trkpt lat="48.7855" lon="1.9663">
        <ele>172.80000305176</ele>
        <time>2014-06-07T08:45:51.000Z</time>
      </trkpt>
      <trkpt lat="48.78543" lon="1.96637">
        <ele>172.60000610352</ele>
        <time>2014-06-07T08:45:57.000Z</time>
      </trkpt>
      <trkpt lat="48.78533" lon="1.96648">
        <ele>172.39999389648</ele>
        <time>2014-06-07T08:46:04.000Z</time>
      </trkpt>
      <trkpt lat="48.78532" lon="1.96649">
        <ele>172.39999389648</ele>
        <time>2014-06-07T08:46:05.000Z</time>
      </trkpt>
      <trkpt lat="48.7853" lon="1.96659">
        <ele>172.39999389648</ele>
        <time>2014-06-07T08:46:11.000Z</time>
      </trkpt>
      <trkpt lat="48.78528" lon="1.96666">
        <ele>172.39999389648</ele>
        <time>2014-06-07T08:46:15.000Z</time>
      </trkpt>
      <trkpt lat="48.78517" lon="1.96678">
        <ele>172.19999694824</ele>
        <time>2014-06-07T08:46:22.000Z</time>
      </trkpt>
      <trkpt lat="48.78512" lon="1.96687">
        <ele>171.80000305176</ele>
        <time>2014-06-07T08:46:28.000Z</time>
      </trkpt>
      <trkpt lat="48.7851" lon="1.96693">
        <ele>171.80000305176</ele>
        <time>2014-06-07T08:46:32.000Z</time>
      </trkpt>
      <trkpt lat="48.78503" lon="1.96703">
        <ele>171.19999694824</ele>
        <time>2014-06-07T08:46:38.000Z</time>
      </trkpt>
      <trkpt lat="48.78495" lon="1.9671">
        <ele>170.39999389648</ele>
        <time>2014-06-07T08:46:44.000Z</time>
      </trkpt>
      <trkpt lat="48.78491" lon="1.96716">
        <ele>170.19999694824</ele>
        <time>2014-06-07T08:46:48.000Z</time>
      </trkpt>
      <trkpt lat="48.78482" lon="1.96724">
        <ele>170</ele>
        <time>2014-06-07T08:46:54.000Z</time>
      </trkpt>
      <trkpt lat="48.78479" lon="1.96727">
        <ele>170</ele>
        <time>2014-06-07T08:46:58.000Z</time>
      </trkpt>
      <trkpt lat="48.78473" lon="1.96734">
        <ele>169.80000305176</ele>
        <time>2014-06-07T08:47:03.000Z</time>
      </trkpt>
      <trkpt lat="48.78466" lon="1.96742">
        <ele>169.60000610352</ele>
        <time>2014-06-07T08:47:08.000Z</time>
      </trkpt>
      <trkpt lat="48.78459" lon="1.96749">
        <ele>168.60000610352</ele>
        <time>2014-06-07T08:47:14.000Z</time>
      </trkpt>
      <trkpt lat="48.78448" lon="1.96757">
        <ele>167.39999389648</ele>
        <time>2014-06-07T08:47:21.000Z</time>
      </trkpt>
      <trkpt lat="48.78445" lon="1.9676">
        <ele>167.19999694824</ele>
        <time>2014-06-07T08:47:24.000Z</time>
      </trkpt>
      <trkpt lat="48.78437" lon="1.96766">
        <ele>167</ele>
        <time>2014-06-07T08:47:31.000Z</time>
      </trkpt>
      <trkpt lat="48.7843" lon="1.96773">
        <ele>166</ele>
        <time>2014-06-07T08:47:37.000Z</time>
      </trkpt>
      <trkpt lat="48.78423" lon="1.96779">
        <ele>165.19999694824</ele>
        <time>2014-06-07T08:47:42.000Z</time>
      </trkpt>
      <trkpt lat="48.78414" lon="1.9679">
        <ele>164</ele>
        <time>2014-06-07T08:47:49.000Z</time>
      </trkpt>
      <trkpt lat="48.78408" lon="1.96799">
        <ele>163.80000305176</ele>
        <time>2014-06-07T08:47:54.000Z</time>
      </trkpt>
      <trkpt lat="48.784" lon="1.96808">
        <ele>164</ele>
        <time>2014-06-07T08:48:01.000Z</time>
      </trkpt>
      <trkpt lat="48.78394" lon="1.96814">
        <ele>164.19999694824</ele>
        <time>2014-06-07T08:48:07.000Z</time>
      </trkpt>
      <trkpt lat="48.78388" lon="1.9682">
        <ele>164.19999694824</ele>
        <time>2014-06-07T08:48:12.000Z</time>
      </trkpt>
      <trkpt lat="48.78387" lon="1.96821">
        <ele>164.19999694824</ele>
        <time>2014-06-07T08:48:15.000Z</time>
      </trkpt>
      <trkpt lat="48.78382" lon="1.96824">
        <ele>164.19999694824</ele>
        <time>2014-06-07T08:48:26.000Z</time>
      </trkpt>
      <trkpt lat="48.78376" lon="1.96827">
        <ele>164</ele>
        <time>2014-06-07T08:48:30.000Z</time>
      </trkpt>
      <trkpt lat="48.78371" lon="1.96827">
        <ele>163.80000305176</ele>
        <time>2014-06-07T08:48:35.000Z</time>
      </trkpt>
      <trkpt lat="48.78364" lon="1.9683">
        <ele>163.60000610352</ele>
        <time>2014-06-07T08:48:41.000Z</time>
      </trkpt>
      <trkpt lat="48.78362" lon="1.9683">
        <ele>163.39999389648</ele>
        <time>2014-06-07T08:48:42.000Z</time>
      </trkpt>
      <trkpt lat="48.78358" lon="1.96828">
        <ele>163.19999694824</ele>
        <time>2014-06-07T08:48:48.000Z</time>
      </trkpt>
      <trkpt lat="48.78355" lon="1.96827">
        <ele>163.19999694824</ele>
        <time>2014-06-07T08:48:50.000Z</time>
      </trkpt>
      <trkpt lat="48.78349" lon="1.96829">
        <ele>163</ele>
        <time>2014-06-07T08:48:55.000Z</time>
      </trkpt>
      <trkpt lat="48.78348" lon="1.96831">
        <ele>163.19999694824</ele>
        <time>2014-06-07T08:49:19.000Z</time>
      </trkpt>
      <trkpt lat="48.78348" lon="1.96829">
        <ele>163</ele>
        <time>2014-06-07T08:49:21.000Z</time>
      </trkpt>
      <trkpt lat="48.78339" lon="1.96826">
        <ele>162.80000305176</ele>
        <time>2014-06-07T08:49:58.000Z</time>
      </trkpt>
      <trkpt lat="48.78335" lon="1.96823">
        <ele>162.60000610352</ele>
        <time>2014-06-07T08:50:05.000Z</time>
      </trkpt>
      <trkpt lat="48.78334" lon="1.96821">
        <ele>162.19999694824</ele>
        <time>2014-06-07T08:50:06.000Z</time>
      </trkpt>
      <trkpt lat="48.78334" lon="1.96807">
        <ele>159.80000305176</ele>
        <time>2014-06-07T08:50:13.000Z</time>
      </trkpt>
      <trkpt lat="48.78332" lon="1.96808">
        <ele>160</ele>
        <time>2014-06-07T08:50:15.000Z</time>
      </trkpt>
      <trkpt lat="48.7833" lon="1.96807">
        <ele>159.80000305176</ele>
        <time>2014-06-07T08:50:22.000Z</time>
      </trkpt>
      <trkpt lat="48.7832" lon="1.9681">
        <ele>160.19999694824</ele>
        <time>2014-06-07T08:50:49.000Z</time>
      </trkpt>
      <trkpt lat="48.78316" lon="1.9681">
        <ele>160</ele>
        <time>2014-06-07T08:50:54.000Z</time>
      </trkpt>
      <trkpt lat="48.7831" lon="1.96813">
        <ele>160.60000610352</ele>
        <time>2014-06-07T08:51:01.000Z</time>
      </trkpt>
      <trkpt lat="48.78307" lon="1.96819">
        <ele>161.60000610352</ele>
        <time>2014-06-07T08:51:06.000Z</time>
      </trkpt>
      <trkpt lat="48.78303" lon="1.96823">
        <ele>162.19999694824</ele>
        <time>2014-06-07T08:51:10.000Z</time>
      </trkpt>
      <trkpt lat="48.78301" lon="1.96824">
        <ele>162.19999694824</ele>
        <time>2014-06-07T08:51:11.000Z</time>
      </trkpt>
      <trkpt lat="48.78295" lon="1.96829">
        <ele>162.39999389648</ele>
        <time>2014-06-07T08:51:18.000Z</time>
      </trkpt>
      <trkpt lat="48.78291" lon="1.96835">
        <ele>162.60000610352</ele>
        <time>2014-06-07T08:51:23.000Z</time>
      </trkpt>
      <trkpt lat="48.78288" lon="1.96844">
        <ele>163</ele>
        <time>2014-06-07T08:51:29.000Z</time>
      </trkpt>
      <trkpt lat="48.78286" lon="1.96845">
        <ele>163</ele>
        <time>2014-06-07T08:51:32.000Z</time>
      </trkpt>
      <trkpt lat="48.78282" lon="1.96846">
        <ele>163</ele>
        <time>2014-06-07T08:51:38.000Z</time>
      </trkpt>
      <trkpt lat="48.78275" lon="1.96842">
        <ele>162.80000305176</ele>
        <time>2014-06-07T08:51:42.000Z</time>
      </trkpt>
      <trkpt lat="48.78263" lon="1.96837">
        <ele>162.39999389648</ele>
        <time>2014-06-07T08:51:48.000Z</time>
      </trkpt>
      <trkpt lat="48.78256" lon="1.96831">
        <ele>162</ele>
        <time>2014-06-07T08:51:54.000Z</time>
      </trkpt>
      <trkpt lat="48.78255" lon="1.96821">
        <ele>161</ele>
        <time>2014-06-07T08:52:00.000Z</time>
      </trkpt>
      <trkpt lat="48.78254" lon="1.9682">
        <ele>160.80000305176</ele>
        <time>2014-06-07T08:52:02.000Z</time>
      </trkpt>
      <trkpt lat="48.7825" lon="1.96808">
        <ele>158.60000610352</ele>
        <time>2014-06-07T08:52:11.000Z</time>
      </trkpt>
      <trkpt lat="48.78244" lon="1.968">
        <ele>157</ele>
        <time>2014-06-07T08:52:15.000Z</time>
      </trkpt>
      <trkpt lat="48.78243" lon="1.96781">
        <ele>153.80000305176</ele>
        <time>2014-06-07T08:52:22.000Z</time>
      </trkpt>
      <trkpt lat="48.78241" lon="1.96767">
        <ele>151.19999694824</ele>
        <time>2014-06-07T08:52:26.000Z</time>
      </trkpt>
      <trkpt lat="48.78233" lon="1.96746">
        <ele>147.39999389648</ele>
        <time>2014-06-07T08:52:33.000Z</time>
      </trkpt>
      <trkpt lat="48.78231" lon="1.96739">
        <ele>146.39999389648</ele>
        <time>2014-06-07T08:52:35.000Z</time>
      </trkpt>
      <trkpt lat="48.78226" lon="1.9673">
        <ele>145.19999694824</ele>
        <time>2014-06-07T08:52:40.000Z</time>
      </trkpt>
      <trkpt lat="48.78225" lon="1.96725">
        <ele>144.80000305176</ele>
        <time>2014-06-07T08:52:42.000Z</time>
      </trkpt>
      <trkpt lat="48.7822" lon="1.96703">
        <ele>142.60000610352</ele>
        <time>2014-06-07T08:52:47.000Z</time>
      </trkpt>
      <trkpt lat="48.78216" lon="1.96691">
        <ele>141.19999694824</ele>
        <time>2014-06-07T08:52:51.000Z</time>
      </trkpt>
      <trkpt lat="48.78211" lon="1.96685">
        <ele>140.60000610352</ele>
        <time>2014-06-07T08:52:56.000Z</time>
      </trkpt>
      <trkpt lat="48.78204" lon="1.96687">
        <ele>140.39999389648</ele>
        <time>2014-06-07T08:53:01.000Z</time>
      </trkpt>
      <trkpt lat="48.78198" lon="1.96686">
        <ele>140</ele>
        <time>2014-06-07T08:53:06.000Z</time>
      </trkpt>
      <trkpt lat="48.78187" lon="1.96691">
        <ele>140.19999694824</ele>
        <time>2014-06-07T08:53:14.000Z</time>
      </trkpt>
      <trkpt lat="48.78172" lon="1.96697">
        <ele>141.19999694824</ele>
        <time>2014-06-07T08:53:24.000Z</time>
      </trkpt>
      <trkpt lat="48.78162" lon="1.96702">
        <ele>141.80000305176</ele>
        <time>2014-06-07T08:53:31.000Z</time>
      </trkpt>
      <trkpt lat="48.78155" lon="1.96704">
        <ele>142.19999694824</ele>
        <time>2014-06-07T08:53:36.000Z</time>
      </trkpt>
      <trkpt lat="48.78145" lon="1.9671">
        <ele>142</ele>
        <time>2014-06-07T08:53:41.000Z</time>
      </trkpt>
      <trkpt lat="48.78138" lon="1.96712">
        <ele>141.39999389648</ele>
        <time>2014-06-07T08:53:46.000Z</time>
      </trkpt>
      <trkpt lat="48.78136" lon="1.96712">
        <ele>141.19999694824</ele>
        <time>2014-06-07T08:53:47.000Z</time>
      </trkpt>
      <trkpt lat="48.78131" lon="1.96715">
        <ele>141</ele>
        <time>2014-06-07T08:53:53.000Z</time>
      </trkpt>
      <trkpt lat="48.78121" lon="1.96717">
        <ele>140.19999694824</ele>
        <time>2014-06-07T08:53:59.000Z</time>
      </trkpt>
      <trkpt lat="48.78111" lon="1.96717">
        <ele>139.39999389648</ele>
        <time>2014-06-07T08:54:05.000Z</time>
      </trkpt>
      <trkpt lat="48.78105" lon="1.96726">
        <ele>139</ele>
        <time>2014-06-07T08:54:10.000Z</time>
      </trkpt>
      <trkpt lat="48.78099" lon="1.96735">
        <ele>139.19999694824</ele>
        <time>2014-06-07T08:54:16.000Z</time>
      </trkpt>
      <trkpt lat="48.78093" lon="1.96752">
        <ele>140.19999694824</ele>
        <time>2014-06-07T08:54:23.000Z</time>
      </trkpt>
      <trkpt lat="48.78092" lon="1.96758">
        <ele>140.60000610352</ele>
        <time>2014-06-07T08:54:25.000Z</time>
      </trkpt>
      <trkpt lat="48.78088" lon="1.96777">
        <ele>142</ele>
        <time>2014-06-07T08:54:33.000Z</time>
      </trkpt>
      <trkpt lat="48.78087" lon="1.96779">
        <ele>142</ele>
        <time>2014-06-07T08:54:34.000Z</time>
      </trkpt>
      <trkpt lat="48.78084" lon="1.96789">
        <ele>143</ele>
        <time>2014-06-07T08:54:40.000Z</time>
      </trkpt>
      <trkpt lat="48.78083" lon="1.96794">
        <ele>143.19999694824</ele>
        <time>2014-06-07T08:54:42.000Z</time>
      </trkpt>
      <trkpt lat="48.7808" lon="1.96806">
        <ele>143.60000610352</ele>
        <time>2014-06-07T08:54:48.000Z</time>
      </trkpt>
      <trkpt lat="48.78075" lon="1.96822">
        <ele>143</ele>
        <time>2014-06-07T08:54:55.000Z</time>
      </trkpt>
      <trkpt lat="48.78072" lon="1.96838">
        <ele>144.19999694824</ele>
        <time>2014-06-07T08:55:01.000Z</time>
      </trkpt>
      <trkpt lat="48.78068" lon="1.96849">
        <ele>145.39999389648</ele>
        <time>2014-06-07T08:55:07.000Z</time>
      </trkpt>
      <trkpt lat="48.78063" lon="1.96861">
        <ele>146.39999389648</ele>
        <time>2014-06-07T08:55:13.000Z</time>
      </trkpt>
      <trkpt lat="48.78058" lon="1.96871">
        <ele>146.39999389648</ele>
        <time>2014-06-07T08:55:19.000Z</time>
      </trkpt>
      <trkpt lat="48.78052" lon="1.96884">
        <ele>145.80000305176</ele>
        <time>2014-06-07T08:55:27.000Z</time>
      </trkpt>
      <trkpt lat="48.78046" lon="1.96893">
        <ele>145.19999694824</ele>
        <time>2014-06-07T08:55:32.000Z</time>
      </trkpt>
      <trkpt lat="48.78042" lon="1.96907">
        <ele>144.80000305176</ele>
        <time>2014-06-07T08:55:38.000Z</time>
      </trkpt>
      <trkpt lat="48.7804" lon="1.96918">
        <ele>145.39999389648</ele>
        <time>2014-06-07T08:55:43.000Z</time>
      </trkpt>
      <trkpt lat="48.78037" lon="1.96928">
        <ele>145.80000305176</ele>
        <time>2014-06-07T08:55:49.000Z</time>
      </trkpt>
      <trkpt lat="48.78035" lon="1.96936">
        <ele>145.80000305176</ele>
        <time>2014-06-07T08:55:53.000Z</time>
      </trkpt>
      <trkpt lat="48.78032" lon="1.96949">
        <ele>146.19999694824</ele>
        <time>2014-06-07T08:55:59.000Z</time>
      </trkpt>
      <trkpt lat="48.78029" lon="1.96965">
        <ele>146.60000610352</ele>
        <time>2014-06-07T08:56:06.000Z</time>
      </trkpt>
      <trkpt lat="48.78029" lon="1.96967">
        <ele>146.60000610352</ele>
        <time>2014-06-07T08:56:07.000Z</time>
      </trkpt>
      <trkpt lat="48.78027" lon="1.9698">
        <ele>147.19999694824</ele>
        <time>2014-06-07T08:56:14.000Z</time>
      </trkpt>
      <trkpt lat="48.78027" lon="1.96991">
        <ele>147.80000305176</ele>
        <time>2014-06-07T08:56:20.000Z</time>
      </trkpt>
      <trkpt lat="48.78027" lon="1.96993">
        <ele>148</ele>
        <time>2014-06-07T08:56:21.000Z</time>
      </trkpt>
      <trkpt lat="48.78024" lon="1.97011">
        <ele>149</ele>
        <time>2014-06-07T08:56:29.000Z</time>
      </trkpt>
      <trkpt lat="48.78025" lon="1.97028">
        <ele>150.39999389648</ele>
        <time>2014-06-07T08:56:36.000Z</time>
      </trkpt>
      <trkpt lat="48.78025" lon="1.9703">
        <ele>150.60000610352</ele>
        <time>2014-06-07T08:56:37.000Z</time>
      </trkpt>
      <trkpt lat="48.78025" lon="1.97041">
        <ele>151.60000610352</ele>
        <time>2014-06-07T08:56:43.000Z</time>
      </trkpt>
      <trkpt lat="48.78026" lon="1.97046">
        <ele>152.19999694824</ele>
        <time>2014-06-07T08:56:45.000Z</time>
      </trkpt>
      <trkpt lat="48.78026" lon="1.97062">
        <ele>153.60000610352</ele>
        <time>2014-06-07T08:56:52.000Z</time>
      </trkpt>
      <trkpt lat="48.78028" lon="1.97075">
        <ele>154.80000305176</ele>
        <time>2014-06-07T08:56:56.000Z</time>
      </trkpt>
      <trkpt lat="48.78026" lon="1.97094">
        <ele>156.60000610352</ele>
        <time>2014-06-07T08:57:03.000Z</time>
      </trkpt>
      <trkpt lat="48.78025" lon="1.97096">
        <ele>156.80000305176</ele>
        <time>2014-06-07T08:57:04.000Z</time>
      </trkpt>
      <trkpt lat="48.78027" lon="1.97105">
        <ele>158</ele>
        <time>2014-06-07T08:57:10.000Z</time>
      </trkpt>
      <trkpt lat="48.78026" lon="1.97108">
        <ele>158.39999389648</ele>
        <time>2014-06-07T08:57:12.000Z</time>
      </trkpt>
      <trkpt lat="48.78024" lon="1.97114">
        <ele>159</ele>
        <time>2014-06-07T08:57:15.000Z</time>
      </trkpt>
      <trkpt lat="48.78009" lon="1.97123">
        <ele>159</ele>
        <time>2014-06-07T08:57:21.000Z</time>
      </trkpt>
      <trkpt lat="48.78008" lon="1.97126">
        <ele>159.19999694824</ele>
        <time>2014-06-07T08:57:23.000Z</time>
      </trkpt>
      <trkpt lat="48.78004" lon="1.97135">
        <ele>160</ele>
        <time>2014-06-07T08:57:30.000Z</time>
      </trkpt>
      <trkpt lat="48.78003" lon="1.97137">
        <ele>160.19999694824</ele>
        <time>2014-06-07T08:57:32.000Z</time>
      </trkpt>
      <trkpt lat="48.78002" lon="1.97143">
        <ele>160.80000305176</ele>
        <time>2014-06-07T08:57:36.000Z</time>
      </trkpt>
      <trkpt lat="48.78" lon="1.97152">
        <ele>161.39999389648</ele>
        <time>2014-06-07T08:57:41.000Z</time>
      </trkpt>
      <trkpt lat="48.78" lon="1.97156">
        <ele>161.80000305176</ele>
        <time>2014-06-07T08:57:43.000Z</time>
      </trkpt>
      <trkpt lat="48.77996" lon="1.97162">
        <ele>161.80000305176</ele>
        <time>2014-06-07T08:57:48.000Z</time>
      </trkpt>
      <trkpt lat="48.77987" lon="1.97164">
        <ele>161</ele>
        <time>2014-06-07T08:57:53.000Z</time>
      </trkpt>
      <trkpt lat="48.77983" lon="1.97163">
        <ele>160.39999389648</ele>
        <time>2014-06-07T08:57:56.000Z</time>
      </trkpt>
      <trkpt lat="48.77973" lon="1.97159">
        <ele>159.39999389648</ele>
        <time>2014-06-07T08:58:03.000Z</time>
      </trkpt>
      <trkpt lat="48.77973" lon="1.97158">
        <ele>159.39999389648</ele>
        <time>2014-06-07T08:58:05.000Z</time>
      </trkpt>
      <trkpt lat="48.7797" lon="1.97156">
        <ele>159</ele>
        <time>2014-06-07T08:58:10.000Z</time>
      </trkpt>
      <trkpt lat="48.77961" lon="1.97148">
        <ele>157.39999389648</ele>
        <time>2014-06-07T08:58:16.000Z</time>
      </trkpt>
      <trkpt lat="48.77957" lon="1.97144">
        <ele>156.60000610352</ele>
        <time>2014-06-07T08:58:20.000Z</time>
      </trkpt>
      <trkpt lat="48.7795" lon="1.97139">
        <ele>155.39999389648</ele>
        <time>2014-06-07T08:58:26.000Z</time>
      </trkpt>
      <trkpt lat="48.7795" lon="1.97138">
        <ele>155.19999694824</ele>
        <time>2014-06-07T08:58:27.000Z</time>
      </trkpt>
      <trkpt lat="48.77948" lon="1.97137">
        <ele>155</ele>
        <time>2014-06-07T08:58:29.000Z</time>
      </trkpt>
      <trkpt lat="48.77943" lon="1.9713">
        <ele>153.80000305176</ele>
        <time>2014-06-07T08:58:34.000Z</time>
      </trkpt>
      <trkpt lat="48.77932" lon="1.97125">
        <ele>153</ele>
        <time>2014-06-07T08:58:40.000Z</time>
      </trkpt>
      <trkpt lat="48.77926" lon="1.97122">
        <ele>153.19999694824</ele>
        <time>2014-06-07T08:58:45.000Z</time>
      </trkpt>
      <trkpt lat="48.77919" lon="1.97116">
        <ele>153</ele>
        <time>2014-06-07T08:58:50.000Z</time>
      </trkpt>
      <trkpt lat="48.7791" lon="1.97108">
        <ele>152.60000610352</ele>
        <time>2014-06-07T08:58:57.000Z</time>
      </trkpt>
      <trkpt lat="48.77904" lon="1.971">
        <ele>152.19999694824</ele>
        <time>2014-06-07T08:59:02.000Z</time>
      </trkpt>
      <trkpt lat="48.77897" lon="1.97094">
        <ele>151.80000305176</ele>
        <time>2014-06-07T08:59:08.000Z</time>
      </trkpt>
      <trkpt lat="48.77896" lon="1.97093">
        <ele>151.80000305176</ele>
        <time>2014-06-07T08:59:09.000Z</time>
      </trkpt>
      <trkpt lat="48.77892" lon="1.97087">
        <ele>151.39999389648</ele>
        <time>2014-06-07T08:59:13.000Z</time>
      </trkpt>
      <trkpt lat="48.77885" lon="1.97084">
        <ele>151.39999389648</ele>
        <time>2014-06-07T08:59:19.000Z</time>
      </trkpt>
      <trkpt lat="48.77877" lon="1.97083">
        <ele>151.80000305176</ele>
        <time>2014-06-07T08:59:25.000Z</time>
      </trkpt>
      <trkpt lat="48.77873" lon="1.97083">
        <ele>151.80000305176</ele>
        <time>2014-06-07T08:59:27.000Z</time>
      </trkpt>
      <trkpt lat="48.77863" lon="1.97078">
        <ele>152</ele>
        <time>2014-06-07T08:59:34.000Z</time>
      </trkpt>
      <trkpt lat="48.77857" lon="1.97077">
        <ele>152</ele>
        <time>2014-06-07T08:59:39.000Z</time>
      </trkpt>
      <trkpt lat="48.77855" lon="1.97085">
        <ele>151.60000610352</ele>
        <time>2014-06-07T08:59:45.000Z</time>
      </trkpt>
      <trkpt lat="48.77843" lon="1.97097">
        <ele>151.80000305176</ele>
        <time>2014-06-07T08:59:53.000Z</time>
      </trkpt>
      <trkpt lat="48.77838" lon="1.97104">
        <ele>151.80000305176</ele>
        <time>2014-06-07T08:59:58.000Z</time>
      </trkpt>
      <trkpt lat="48.77838" lon="1.97104">
        <ele>151.80000305176</ele>
        <time>2014-06-07T09:00:00.000Z</time>
      </trkpt>
      <trkpt lat="48.77832" lon="1.97109">
        <ele>151.80000305176</ele>
        <time>2014-06-07T09:00:04.000Z</time>
      </trkpt>
      <trkpt lat="48.77822" lon="1.97117">
        <ele>152</ele>
        <time>2014-06-07T09:00:10.000Z</time>
      </trkpt>
      <trkpt lat="48.77812" lon="1.97126">
        <ele>152</ele>
        <time>2014-06-07T09:00:17.000Z</time>
      </trkpt>
      <trkpt lat="48.77803" lon="1.9713">
        <ele>151.80000305176</ele>
        <time>2014-06-07T09:00:24.000Z</time>
      </trkpt>
      <trkpt lat="48.77799" lon="1.97135">
        <ele>151.80000305176</ele>
        <time>2014-06-07T09:00:28.000Z</time>
      </trkpt>
      <trkpt lat="48.7779" lon="1.97142">
        <ele>151.60000610352</ele>
        <time>2014-06-07T09:00:34.000Z</time>
      </trkpt>
      <trkpt lat="48.77781" lon="1.97149">
        <ele>151.39999389648</ele>
        <time>2014-06-07T09:00:41.000Z</time>
      </trkpt>
      <trkpt lat="48.77775" lon="1.97154">
        <ele>151.19999694824</ele>
        <time>2014-06-07T09:00:45.000Z</time>
      </trkpt>
      <trkpt lat="48.7777" lon="1.97158">
        <ele>151</ele>
        <time>2014-06-07T09:00:49.000Z</time>
      </trkpt>
      <trkpt lat="48.77762" lon="1.97162">
        <ele>151.60000610352</ele>
        <time>2014-06-07T09:00:54.000Z</time>
      </trkpt>
      <trkpt lat="48.77751" lon="1.97167">
        <ele>152.19999694824</ele>
        <time>2014-06-07T09:01:00.000Z</time>
      </trkpt>
      <trkpt lat="48.77746" lon="1.9717">
        <ele>152.39999389648</ele>
        <time>2014-06-07T09:01:04.000Z</time>
      </trkpt>
      <trkpt lat="48.77738" lon="1.9718">
        <ele>153.19999694824</ele>
        <time>2014-06-07T09:01:11.000Z</time>
      </trkpt>
      <trkpt lat="48.7773" lon="1.97186">
        <ele>153.60000610352</ele>
        <time>2014-06-07T09:01:18.000Z</time>
      </trkpt>
      <trkpt lat="48.77723" lon="1.97191">
        <ele>154.19999694824</ele>
        <time>2014-06-07T09:01:23.000Z</time>
      </trkpt>
      <trkpt lat="48.77716" lon="1.97197">
        <ele>154.39999389648</ele>
        <time>2014-06-07T09:01:29.000Z</time>
      </trkpt>
      <trkpt lat="48.77715" lon="1.97198">
        <ele>154.39999389648</ele>
        <time>2014-06-07T09:01:30.000Z</time>
      </trkpt>
      <trkpt lat="48.77708" lon="1.97199">
        <ele>154.60000610352</ele>
        <time>2014-06-07T09:01:35.000Z</time>
      </trkpt>
      <trkpt lat="48.77694" lon="1.972">
        <ele>154.80000305176</ele>
        <time>2014-06-07T09:01:43.000Z</time>
      </trkpt>
      <trkpt lat="48.77692" lon="1.97202">
        <ele>154.80000305176</ele>
        <time>2014-06-07T09:01:45.000Z</time>
      </trkpt>
      <trkpt lat="48.77684" lon="1.97203">
        <ele>155.19999694824</ele>
        <time>2014-06-07T09:01:53.000Z</time>
      </trkpt>
      <trkpt lat="48.77671" lon="1.972">
        <ele>155.60000610352</ele>
        <time>2014-06-07T09:02:00.000Z</time>
      </trkpt>
      <trkpt lat="48.77669" lon="1.972">
        <ele>155.60000610352</ele>
        <time>2014-06-07T09:02:01.000Z</time>
      </trkpt>
      <trkpt lat="48.77654" lon="1.972">
        <ele>156.19999694824</ele>
        <time>2014-06-07T09:02:09.000Z</time>
      </trkpt>
      <trkpt lat="48.77647" lon="1.97203">
        <ele>156.60000610352</ele>
        <time>2014-06-07T09:02:16.000Z</time>
      </trkpt>
      <trkpt lat="48.77644" lon="1.97206">
        <ele>156.80000305176</ele>
        <time>2014-06-07T09:02:20.000Z</time>
      </trkpt>
      <trkpt lat="48.77641" lon="1.97212">
        <ele>157.39999389648</ele>
        <time>2014-06-07T09:02:24.000Z</time>
      </trkpt>
      <trkpt lat="48.7764" lon="1.97213">
        <ele>157.39999389648</ele>
        <time>2014-06-07T09:02:26.000Z</time>
      </trkpt>
      <trkpt lat="48.77635" lon="1.97218">
        <ele>158</ele>
        <time>2014-06-07T09:02:32.000Z</time>
      </trkpt>
      <trkpt lat="48.77631" lon="1.97221">
        <ele>158.39999389648</ele>
        <time>2014-06-07T09:02:36.000Z</time>
      </trkpt>
      <trkpt lat="48.77627" lon="1.97222">
        <ele>158.60000610352</ele>
        <time>2014-06-07T09:02:38.000Z</time>
      </trkpt>
      <trkpt lat="48.77594" lon="1.97219">
        <ele>161</ele>
        <time>2014-06-07T09:02:50.000Z</time>
      </trkpt>
      <trkpt lat="48.77591" lon="1.9722">
        <ele>161.39999389648</ele>
        <time>2014-06-07T09:02:54.000Z</time>
      </trkpt>
      <trkpt lat="48.77585" lon="1.97223">
        <ele>162</ele>
        <time>2014-06-07T09:03:00.000Z</time>
      </trkpt>
      <trkpt lat="48.77582" lon="1.97229">
        <ele>162.39999389648</ele>
        <time>2014-06-07T09:03:05.000Z</time>
      </trkpt>
      <trkpt lat="48.77579" lon="1.97232">
        <ele>162.60000610352</ele>
        <time>2014-06-07T09:03:12.000Z</time>
      </trkpt>
      <trkpt lat="48.77575" lon="1.97238">
        <ele>163</ele>
        <time>2014-06-07T09:03:18.000Z</time>
      </trkpt>
      <trkpt lat="48.77574" lon="1.97248">
        <ele>163.19999694824</ele>
        <time>2014-06-07T09:03:23.000Z</time>
      </trkpt>
      <trkpt lat="48.77574" lon="1.97252">
        <ele>163.19999694824</ele>
        <time>2014-06-07T09:03:25.000Z</time>
      </trkpt>
      <trkpt lat="48.77571" lon="1.97265">
        <ele>163.19999694824</ele>
        <time>2014-06-07T09:03:32.000Z</time>
      </trkpt>
      <trkpt lat="48.77569" lon="1.97272">
        <ele>163.19999694824</ele>
        <time>2014-06-07T09:03:36.000Z</time>
      </trkpt>
      <trkpt lat="48.77569" lon="1.97286">
        <ele>163</ele>
        <time>2014-06-07T09:03:43.000Z</time>
      </trkpt>
      <trkpt lat="48.77562" lon="1.97304">
        <ele>163</ele>
        <time>2014-06-07T09:03:51.000Z</time>
      </trkpt>
      <trkpt lat="48.77559" lon="1.97305">
        <ele>163.19999694824</ele>
        <time>2014-06-07T09:03:52.000Z</time>
      </trkpt>
      <trkpt lat="48.77543" lon="1.97301">
        <ele>164.19999694824</ele>
        <time>2014-06-07T09:03:59.000Z</time>
      </trkpt>
      <trkpt lat="48.7754" lon="1.97304">
        <ele>164.39999389648</ele>
        <time>2014-06-07T09:04:03.000Z</time>
      </trkpt>
      <trkpt lat="48.77535" lon="1.97299">
        <ele>164.80000305176</ele>
        <time>2014-06-07T09:04:08.000Z</time>
      </trkpt>
      <trkpt lat="48.77527" lon="1.97288">
        <ele>165.39999389648</ele>
        <time>2014-06-07T09:04:14.000Z</time>
      </trkpt>
      <trkpt lat="48.77527" lon="1.97283">
        <ele>165.60000610352</ele>
        <time>2014-06-07T09:04:16.000Z</time>
      </trkpt>
      <trkpt lat="48.77524" lon="1.97273">
        <ele>166</ele>
        <time>2014-06-07T09:04:20.000Z</time>
      </trkpt>
      <trkpt lat="48.7753" lon="1.97249">
        <ele>166.19999694824</ele>
        <time>2014-06-07T09:04:27.000Z</time>
      </trkpt>
      <trkpt lat="48.77533" lon="1.97232">
        <ele>166</ele>
        <time>2014-06-07T09:04:33.000Z</time>
      </trkpt>
      <trkpt lat="48.7753" lon="1.97218">
        <ele>165.80000305176</ele>
        <time>2014-06-07T09:04:39.000Z</time>
      </trkpt>
      <trkpt lat="48.77531" lon="1.97206">
        <ele>165.39999389648</ele>
        <time>2014-06-07T09:04:46.000Z</time>
      </trkpt>
      <trkpt lat="48.77531" lon="1.97201">
        <ele>165.39999389648</ele>
        <time>2014-06-07T09:04:49.000Z</time>
      </trkpt>
      <trkpt lat="48.77534" lon="1.97192">
        <ele>164.80000305176</ele>
        <time>2014-06-07T09:04:55.000Z</time>
      </trkpt>
      <trkpt lat="48.77533" lon="1.97186">
        <ele>164.80000305176</ele>
        <time>2014-06-07T09:05:00.000Z</time>
      </trkpt>
      <trkpt lat="48.77533" lon="1.97183">
        <ele>164.80000305176</ele>
        <time>2014-06-07T09:05:05.000Z</time>
      </trkpt>
      <trkpt lat="48.77529" lon="1.97173">
        <ele>164.80000305176</ele>
        <time>2014-06-07T09:05:11.000Z</time>
      </trkpt>
      <trkpt lat="48.77526" lon="1.97166">
        <ele>164.80000305176</ele>
        <time>2014-06-07T09:05:15.000Z</time>
      </trkpt>
      <trkpt lat="48.77516" lon="1.97156">
        <ele>165.19999694824</ele>
        <time>2014-06-07T09:05:22.000Z</time>
      </trkpt>
      <trkpt lat="48.77516" lon="1.97153">
        <ele>165.19999694824</ele>
        <time>2014-06-07T09:05:24.000Z</time>
      </trkpt>
      <trkpt lat="48.77518" lon="1.97137">
        <ele>165</ele>
        <time>2014-06-07T09:05:29.000Z</time>
      </trkpt>
      <trkpt lat="48.77513" lon="1.97126">
        <ele>165</ele>
        <time>2014-06-07T09:05:35.000Z</time>
      </trkpt>
      <trkpt lat="48.7751" lon="1.97121">
        <ele>165.19999694824</ele>
        <time>2014-06-07T09:05:37.000Z</time>
      </trkpt>
      <trkpt lat="48.77504" lon="1.97111">
        <ele>165.39999389648</ele>
        <time>2014-06-07T09:05:43.000Z</time>
      </trkpt>
      <trkpt lat="48.77497" lon="1.97098">
        <ele>165.80000305176</ele>
        <time>2014-06-07T09:05:50.000Z</time>
      </trkpt>
      <trkpt lat="48.77491" lon="1.97089">
        <ele>166</ele>
        <time>2014-06-07T09:05:56.000Z</time>
      </trkpt>
      <trkpt lat="48.77487" lon="1.97084">
        <ele>166.19999694824</ele>
        <time>2014-06-07T09:06:00.000Z</time>
      </trkpt>
      <trkpt lat="48.77481" lon="1.97077">
        <ele>166.39999389648</ele>
        <time>2014-06-07T09:06:07.000Z</time>
      </trkpt>
      <trkpt lat="48.77481" lon="1.97074">
        <ele>166.39999389648</ele>
        <time>2014-06-07T09:06:09.000Z</time>
      </trkpt>
      <trkpt lat="48.77477" lon="1.97068">
        <ele>166.39999389648</ele>
        <time>2014-06-07T09:06:14.000Z</time>
      </trkpt>
      <trkpt lat="48.77473" lon="1.97061">
        <ele>166.39999389648</ele>
        <time>2014-06-07T09:06:20.000Z</time>
      </trkpt>
      <trkpt lat="48.77465" lon="1.97048">
        <ele>166.39999389648</ele>
        <time>2014-06-07T09:06:27.000Z</time>
      </trkpt>
      <trkpt lat="48.77457" lon="1.9704">
        <ele>166.60000610352</ele>
        <time>2014-06-07T09:06:33.000Z</time>
      </trkpt>
      <trkpt lat="48.77454" lon="1.97032">
        <ele>166.60000610352</ele>
        <time>2014-06-07T09:06:36.000Z</time>
      </trkpt>
      <trkpt lat="48.7745" lon="1.97023">
        <ele>166.39999389648</ele>
        <time>2014-06-07T09:06:41.000Z</time>
      </trkpt>
      <trkpt lat="48.77444" lon="1.97008">
        <ele>166.19999694824</ele>
        <time>2014-06-07T09:06:48.000Z</time>
      </trkpt>
      <trkpt lat="48.7744" lon="1.97003">
        <ele>166.19999694824</ele>
        <time>2014-06-07T09:06:51.000Z</time>
      </trkpt>
      <trkpt lat="48.77434" lon="1.96996">
        <ele>166.19999694824</ele>
        <time>2014-06-07T09:06:55.000Z</time>
      </trkpt>
      <trkpt lat="48.77428" lon="1.96985">
        <ele>166</ele>
        <time>2014-06-07T09:07:01.000Z</time>
      </trkpt>
      <trkpt lat="48.77424" lon="1.9698">
        <ele>166</ele>
        <time>2014-06-07T09:07:06.000Z</time>
      </trkpt>
      <trkpt lat="48.77423" lon="1.96979">
        <ele>166</ele>
        <time>2014-06-07T09:07:07.000Z</time>
      </trkpt>
      <trkpt lat="48.77413" lon="1.96978">
        <ele>166.19999694824</ele>
        <time>2014-06-07T09:07:13.000Z</time>
      </trkpt>
      <trkpt lat="48.77408" lon="1.96974">
        <ele>166.19999694824</ele>
        <time>2014-06-07T09:07:17.000Z</time>
      </trkpt>
      <trkpt lat="48.77395" lon="1.96962">
        <ele>166</ele>
        <time>2014-06-07T09:07:25.000Z</time>
      </trkpt>
      <trkpt lat="48.77394" lon="1.96952">
        <ele>165.60000610352</ele>
        <time>2014-06-07T09:07:29.000Z</time>
      </trkpt>
      <trkpt lat="48.77388" lon="1.96941">
        <ele>165.39999389648</ele>
        <time>2014-06-07T09:07:35.000Z</time>
      </trkpt>
      <trkpt lat="48.77386" lon="1.96934">
        <ele>165.19999694824</ele>
        <time>2014-06-07T09:07:38.000Z</time>
      </trkpt>
      <trkpt lat="48.7738" lon="1.96923">
        <ele>164.80000305176</ele>
        <time>2014-06-07T09:07:45.000Z</time>
      </trkpt>
      <trkpt lat="48.77374" lon="1.96914">
        <ele>164.60000610352</ele>
        <time>2014-06-07T09:07:50.000Z</time>
      </trkpt>
      <trkpt lat="48.7737" lon="1.96902">
        <ele>164.39999389648</ele>
        <time>2014-06-07T09:07:55.000Z</time>
      </trkpt>
      <trkpt lat="48.77366" lon="1.9689">
        <ele>164.60000610352</ele>
        <time>2014-06-07T09:08:01.000Z</time>
      </trkpt>
      <trkpt lat="48.77364" lon="1.96889">
        <ele>164.60000610352</ele>
        <time>2014-06-07T09:08:02.000Z</time>
      </trkpt>
      <trkpt lat="48.77356" lon="1.96883">
        <ele>165</ele>
        <time>2014-06-07T09:08:09.000Z</time>
      </trkpt>
      <trkpt lat="48.77353" lon="1.96877">
        <ele>165</ele>
        <time>2014-06-07T09:08:14.000Z</time>
      </trkpt>
      <trkpt lat="48.77353" lon="1.96875">
        <ele>165</ele>
        <time>2014-06-07T09:08:15.000Z</time>
      </trkpt>
      <trkpt lat="48.7736" lon="1.96864">
        <ele>164.80000305176</ele>
        <time>2014-06-07T09:08:21.000Z</time>
      </trkpt>
      <trkpt lat="48.77361" lon="1.96863">
        <ele>164.80000305176</ele>
        <time>2014-06-07T09:08:22.000Z</time>
      </trkpt>
      <trkpt lat="48.77366" lon="1.96858">
        <ele>164.60000610352</ele>
        <time>2014-06-07T09:08:27.000Z</time>
      </trkpt>
      <trkpt lat="48.77374" lon="1.96849">
        <ele>164.39999389648</ele>
        <time>2014-06-07T09:08:33.000Z</time>
      </trkpt>
      <trkpt lat="48.77374" lon="1.96847">
        <ele>164.19999694824</ele>
        <time>2014-06-07T09:08:34.000Z</time>
      </trkpt>
      <trkpt lat="48.77378" lon="1.96838">
        <ele>164.39999389648</ele>
        <time>2014-06-07T09:08:39.000Z</time>
      </trkpt>
      <trkpt lat="48.77379" lon="1.96828">
        <ele>164.60000610352</ele>
        <time>2014-06-07T09:08:45.000Z</time>
      </trkpt>
      <trkpt lat="48.77379" lon="1.96818">
        <ele>164.80000305176</ele>
        <time>2014-06-07T09:08:51.000Z</time>
      </trkpt>
      <trkpt lat="48.77376" lon="1.9681">
        <ele>165</ele>
        <time>2014-06-07T09:08:55.000Z</time>
      </trkpt>
      <trkpt lat="48.77375" lon="1.96804">
        <ele>165</ele>
        <time>2014-06-07T09:08:58.000Z</time>
      </trkpt>
      <trkpt lat="48.77372" lon="1.9679">
        <ele>165.19999694824</ele>
        <time>2014-06-07T09:09:05.000Z</time>
      </trkpt>
      <trkpt lat="48.7737" lon="1.96779">
        <ele>165.39999389648</ele>
        <time>2014-06-07T09:09:10.000Z</time>
      </trkpt>
      <trkpt lat="48.77369" lon="1.96777">
        <ele>165.39999389648</ele>
        <time>2014-06-07T09:09:11.000Z</time>
      </trkpt>
      <trkpt lat="48.77362" lon="1.96765">
        <ele>165.60000610352</ele>
        <time>2014-06-07T09:09:18.000Z</time>
      </trkpt>
      <trkpt lat="48.77358" lon="1.96757">
        <ele>165.80000305176</ele>
        <time>2014-06-07T09:09:22.000Z</time>
      </trkpt>
      <trkpt lat="48.77352" lon="1.96744">
        <ele>166</ele>
        <time>2014-06-07T09:09:29.000Z</time>
      </trkpt>
      <trkpt lat="48.77346" lon="1.96734">
        <ele>166</ele>
        <time>2014-06-07T09:09:35.000Z</time>
      </trkpt>
      <trkpt lat="48.77339" lon="1.9672">
        <ele>166</ele>
        <time>2014-06-07T09:09:43.000Z</time>
      </trkpt>
      <trkpt lat="48.77331" lon="1.96714">
        <ele>166</ele>
        <time>2014-06-07T09:09:49.000Z</time>
      </trkpt>
      <trkpt lat="48.77326" lon="1.96707">
        <ele>166</ele>
        <time>2014-06-07T09:09:54.000Z</time>
      </trkpt>
      <trkpt lat="48.77325" lon="1.96706">
        <ele>166</ele>
        <time>2014-06-07T09:09:55.000Z</time>
      </trkpt>
      <trkpt lat="48.77322" lon="1.96698">
        <ele>166.19999694824</ele>
        <time>2014-06-07T09:09:59.000Z</time>
      </trkpt>
      <trkpt lat="48.77321" lon="1.96693">
        <ele>166.19999694824</ele>
        <time>2014-06-07T09:10:01.000Z</time>
      </trkpt>
      <trkpt lat="48.77314" lon="1.96684">
        <ele>166.19999694824</ele>
        <time>2014-06-07T09:10:08.000Z</time>
      </trkpt>
      <trkpt lat="48.77312" lon="1.96683">
        <ele>166.19999694824</ele>
        <time>2014-06-07T09:10:09.000Z</time>
      </trkpt>
      <trkpt lat="48.77306" lon="1.96672">
        <ele>166.19999694824</ele>
        <time>2014-06-07T09:10:15.000Z</time>
      </trkpt>
      <trkpt lat="48.77298" lon="1.96661">
        <ele>166.19999694824</ele>
        <time>2014-06-07T09:10:23.000Z</time>
      </trkpt>
      <trkpt lat="48.7729" lon="1.96649">
        <ele>166.39999389648</ele>
        <time>2014-06-07T09:10:30.000Z</time>
      </trkpt>
      <trkpt lat="48.77287" lon="1.96643">
        <ele>166.39999389648</ele>
        <time>2014-06-07T09:10:33.000Z</time>
      </trkpt>
      <trkpt lat="48.77277" lon="1.96633">
        <ele>166.39999389648</ele>
        <time>2014-06-07T09:10:41.000Z</time>
      </trkpt>
      <trkpt lat="48.77268" lon="1.96624">
        <ele>166.39999389648</ele>
        <time>2014-06-07T09:10:49.000Z</time>
      </trkpt>
      <trkpt lat="48.77257" lon="1.96619">
        <ele>166.39999389648</ele>
        <time>2014-06-07T09:10:56.000Z</time>
      </trkpt>
      <trkpt lat="48.77249" lon="1.96611">
        <ele>166.60000610352</ele>
        <time>2014-06-07T09:11:03.000Z</time>
      </trkpt>
      <trkpt lat="48.7724" lon="1.96605">
        <ele>166.60000610352</ele>
        <time>2014-06-07T09:11:11.000Z</time>
      </trkpt>
      <trkpt lat="48.77233" lon="1.96597">
        <ele>166.80000305176</ele>
        <time>2014-06-07T09:11:17.000Z</time>
      </trkpt>
      <trkpt lat="48.77228" lon="1.96597">
        <ele>166.80000305176</ele>
        <time>2014-06-07T09:11:20.000Z</time>
      </trkpt>
      <trkpt lat="48.77221" lon="1.96598">
        <ele>166.80000305176</ele>
        <time>2014-06-07T09:11:27.000Z</time>
      </trkpt>
      <trkpt lat="48.77217" lon="1.96595">
        <ele>166.80000305176</ele>
        <time>2014-06-07T09:11:31.000Z</time>
      </trkpt>
      <trkpt lat="48.77204" lon="1.96597">
        <ele>166.80000305176</ele>
        <time>2014-06-07T09:11:38.000Z</time>
      </trkpt>
      <trkpt lat="48.77197" lon="1.96604">
        <ele>166.60000610352</ele>
        <time>2014-06-07T09:11:44.000Z</time>
      </trkpt>
      <trkpt lat="48.77193" lon="1.96607">
        <ele>166.60000610352</ele>
        <time>2014-06-07T09:11:46.000Z</time>
      </trkpt>
      <trkpt lat="48.77188" lon="1.96611">
        <ele>166.60000610352</ele>
        <time>2014-06-07T09:11:50.000Z</time>
      </trkpt>
      <trkpt lat="48.77182" lon="1.96618">
        <ele>166.60000610352</ele>
        <time>2014-06-07T09:11:56.000Z</time>
      </trkpt>
      <trkpt lat="48.77175" lon="1.96626">
        <ele>166.60000610352</ele>
        <time>2014-06-07T09:12:02.000Z</time>
      </trkpt>
      <trkpt lat="48.77174" lon="1.96628">
        <ele>166.80000305176</ele>
        <time>2014-06-07T09:12:04.000Z</time>
      </trkpt>
      <trkpt lat="48.77168" lon="1.96641">
        <ele>166.60000610352</ele>
        <time>2014-06-07T09:12:12.000Z</time>
      </trkpt>
      <trkpt lat="48.77162" lon="1.96651">
        <ele>166.39999389648</ele>
        <time>2014-06-07T09:12:18.000Z</time>
      </trkpt>
      <trkpt lat="48.77156" lon="1.96655">
        <ele>166.39999389648</ele>
        <time>2014-06-07T09:12:23.000Z</time>
      </trkpt>
      <trkpt lat="48.77143" lon="1.9666">
        <ele>166.60000610352</ele>
        <time>2014-06-07T09:12:32.000Z</time>
      </trkpt>
      <trkpt lat="48.77133" lon="1.96662">
        <ele>166.80000305176</ele>
        <time>2014-06-07T09:12:38.000Z</time>
      </trkpt>
      <trkpt lat="48.7712" lon="1.96665">
        <ele>166.80000305176</ele>
        <time>2014-06-07T09:12:46.000Z</time>
      </trkpt>
      <trkpt lat="48.77112" lon="1.96664">
        <ele>167</ele>
        <time>2014-06-07T09:12:52.000Z</time>
      </trkpt>
      <trkpt lat="48.77102" lon="1.96666">
        <ele>167.19999694824</ele>
        <time>2014-06-07T09:13:00.000Z</time>
      </trkpt>
      <trkpt lat="48.77094" lon="1.96666">
        <ele>167.39999389648</ele>
        <time>2014-06-07T09:13:06.000Z</time>
      </trkpt>
      <trkpt lat="48.77084" lon="1.96665">
        <ele>167.60000610352</ele>
        <time>2014-06-07T09:13:12.000Z</time>
      </trkpt>
      <trkpt lat="48.77082" lon="1.96665">
        <ele>167.80000305176</ele>
        <time>2014-06-07T09:13:13.000Z</time>
      </trkpt>
      <trkpt lat="48.77074" lon="1.9667">
        <ele>168</ele>
        <time>2014-06-07T09:13:18.000Z</time>
      </trkpt>
      <trkpt lat="48.77067" lon="1.96671">
        <ele>168.19999694824</ele>
        <time>2014-06-07T09:13:22.000Z</time>
      </trkpt>
      <trkpt lat="48.77057" lon="1.96674">
        <ele>168.60000610352</ele>
        <time>2014-06-07T09:13:28.000Z</time>
      </trkpt>
      <trkpt lat="48.77056" lon="1.96674">
        <ele>168.60000610352</ele>
        <time>2014-06-07T09:13:29.000Z</time>
      </trkpt>
      <trkpt lat="48.77045" lon="1.96674">
        <ele>168.80000305176</ele>
        <time>2014-06-07T09:13:37.000Z</time>
      </trkpt>
      <trkpt lat="48.77037" lon="1.96677">
        <ele>169</ele>
        <time>2014-06-07T09:13:43.000Z</time>
      </trkpt>
      <trkpt lat="48.77031" lon="1.96676">
        <ele>169.19999694824</ele>
        <time>2014-06-07T09:13:48.000Z</time>
      </trkpt>
      <trkpt lat="48.77022" lon="1.96675">
        <ele>169.19999694824</ele>
        <time>2014-06-07T09:13:55.000Z</time>
      </trkpt>
      <trkpt lat="48.77011" lon="1.96674">
        <ele>169.39999389648</ele>
        <time>2014-06-07T09:14:03.000Z</time>
      </trkpt>
      <trkpt lat="48.77002" lon="1.96673">
        <ele>169.60000610352</ele>
        <time>2014-06-07T09:14:09.000Z</time>
      </trkpt>
      <trkpt lat="48.76994" lon="1.96676">
        <ele>169.80000305176</ele>
        <time>2014-06-07T09:14:15.000Z</time>
      </trkpt>
      <trkpt lat="48.76981" lon="1.96674">
        <ele>170.19999694824</ele>
        <time>2014-06-07T09:14:22.000Z</time>
      </trkpt>
      <trkpt lat="48.76971" lon="1.96667">
        <ele>170.39999389648</ele>
        <time>2014-06-07T09:14:29.000Z</time>
      </trkpt>
      <trkpt lat="48.76969" lon="1.96665">
        <ele>170.39999389648</ele>
        <time>2014-06-07T09:14:32.000Z</time>
      </trkpt>
      <trkpt lat="48.76965" lon="1.96658">
        <ele>170.39999389648</ele>
        <time>2014-06-07T09:14:36.000Z</time>
      </trkpt>
      <trkpt lat="48.76963" lon="1.96647">
        <ele>170.19999694824</ele>
        <time>2014-06-07T09:14:42.000Z</time>
      </trkpt>
      <trkpt lat="48.76961" lon="1.96637">
        <ele>170.19999694824</ele>
        <time>2014-06-07T09:14:48.000Z</time>
      </trkpt>
      <trkpt lat="48.76956" lon="1.96627">
        <ele>170.19999694824</ele>
        <time>2014-06-07T09:14:53.000Z</time>
      </trkpt>
      <trkpt lat="48.76956" lon="1.96627">
        <ele>170.19999694824</ele>
        <time>2014-06-07T09:14:54.000Z</time>
      </trkpt>
      <trkpt lat="48.7695" lon="1.96628">
        <ele>170.39999389648</ele>
        <time>2014-06-07T09:14:59.000Z</time>
      </trkpt>
      <trkpt lat="48.76948" lon="1.96629">
        <ele>170.39999389648</ele>
        <time>2014-06-07T09:15:01.000Z</time>
      </trkpt>
      <trkpt lat="48.76944" lon="1.96636">
        <ele>170.60000610352</ele>
        <time>2014-06-07T09:15:06.000Z</time>
      </trkpt>
      <trkpt lat="48.76941" lon="1.9664">
        <ele>170.80000305176</ele>
        <time>2014-06-07T09:15:11.000Z</time>
      </trkpt>
      <trkpt lat="48.76937" lon="1.96641">
        <ele>170.80000305176</ele>
        <time>2014-06-07T09:15:15.000Z</time>
      </trkpt>
      <trkpt lat="48.76931" lon="1.96648">
        <ele>171.19999694824</ele>
        <time>2014-06-07T09:15:20.000Z</time>
      </trkpt>
      <trkpt lat="48.76929" lon="1.96651">
        <ele>171.19999694824</ele>
        <time>2014-06-07T09:15:22.000Z</time>
      </trkpt>
      <trkpt lat="48.76921" lon="1.96657">
        <ele>171.39999389648</ele>
        <time>2014-06-07T09:15:27.000Z</time>
      </trkpt>
      <trkpt lat="48.76912" lon="1.96665">
        <ele>171.80000305176</ele>
        <time>2014-06-07T09:15:34.000Z</time>
      </trkpt>
      <trkpt lat="48.76911" lon="1.96665">
        <ele>171.80000305176</ele>
        <time>2014-06-07T09:15:35.000Z</time>
      </trkpt>
      <trkpt lat="48.76907" lon="1.96667">
        <ele>172</ele>
        <time>2014-06-07T09:15:38.000Z</time>
      </trkpt>
      <trkpt lat="48.76901" lon="1.96673">
        <ele>172.19999694824</ele>
        <time>2014-06-07T09:15:43.000Z</time>
      </trkpt>
      <trkpt lat="48.76888" lon="1.96672">
        <ele>172.60000610352</ele>
        <time>2014-06-07T09:15:51.000Z</time>
      </trkpt>
      <trkpt lat="48.76881" lon="1.96671">
        <ele>172.60000610352</ele>
        <time>2014-06-07T09:15:58.000Z</time>
      </trkpt>
      <trkpt lat="48.7688" lon="1.96671">
        <ele>172.80000305176</ele>
        <time>2014-06-07T09:15:59.000Z</time>
      </trkpt>
      <trkpt lat="48.76872" lon="1.96666">
        <ele>172.80000305176</ele>
        <time>2014-06-07T09:16:06.000Z</time>
      </trkpt>
      <trkpt lat="48.76868" lon="1.96661">
        <ele>172.80000305176</ele>
        <time>2014-06-07T09:16:10.000Z</time>
      </trkpt>
      <trkpt lat="48.76864" lon="1.96659">
        <ele>172.80000305176</ele>
        <time>2014-06-07T09:16:13.000Z</time>
      </trkpt>
      <trkpt lat="48.7686" lon="1.96651">
        <ele>173</ele>
        <time>2014-06-07T09:16:18.000Z</time>
      </trkpt>
      <trkpt lat="48.76854" lon="1.96644">
        <ele>173.19999694824</ele>
        <time>2014-06-07T09:16:23.000Z</time>
      </trkpt>
      <trkpt lat="48.76847" lon="1.96639">
        <ele>173</ele>
        <time>2014-06-07T09:16:29.000Z</time>
      </trkpt>
      <trkpt lat="48.76838" lon="1.96638">
        <ele>172.60000610352</ele>
        <time>2014-06-07T09:16:36.000Z</time>
      </trkpt>
      <trkpt lat="48.76833" lon="1.96635">
        <ele>172.60000610352</ele>
        <time>2014-06-07T09:16:40.000Z</time>
      </trkpt>
      <trkpt lat="48.76831" lon="1.96636">
        <ele>172.39999389648</ele>
        <time>2014-06-07T09:16:42.000Z</time>
      </trkpt>
      <trkpt lat="48.76829" lon="1.96639">
        <ele>172.60000610352</ele>
        <time>2014-06-07T09:16:45.000Z</time>
      </trkpt>
      <trkpt lat="48.7682" lon="1.96637">
        <ele>172.60000610352</ele>
        <time>2014-06-07T09:16:52.000Z</time>
      </trkpt>
      <trkpt lat="48.76816" lon="1.96638">
        <ele>172.60000610352</ele>
        <time>2014-06-07T09:16:54.000Z</time>
      </trkpt>
      <trkpt lat="48.76805" lon="1.9664">
        <ele>172.60000610352</ele>
        <time>2014-06-07T09:17:00.000Z</time>
      </trkpt>
      <trkpt lat="48.76802" lon="1.96641">
        <ele>172.60000610352</ele>
        <time>2014-06-07T09:17:02.000Z</time>
      </trkpt>
      <trkpt lat="48.7679" lon="1.9664">
        <ele>172.60000610352</ele>
        <time>2014-06-07T09:17:10.000Z</time>
      </trkpt>
      <trkpt lat="48.76786" lon="1.96639">
        <ele>172.60000610352</ele>
        <time>2014-06-07T09:17:15.000Z</time>
      </trkpt>
      <trkpt lat="48.76782" lon="1.96639">
        <ele>172.60000610352</ele>
        <time>2014-06-07T09:17:20.000Z</time>
      </trkpt>
      <trkpt lat="48.76777" lon="1.96645">
        <ele>172.60000610352</ele>
        <time>2014-06-07T09:17:25.000Z</time>
      </trkpt>
      <trkpt lat="48.76772" lon="1.96647">
        <ele>172.80000305176</ele>
        <time>2014-06-07T09:17:28.000Z</time>
      </trkpt>
      <trkpt lat="48.76765" lon="1.96656">
        <ele>173</ele>
        <time>2014-06-07T09:17:35.000Z</time>
      </trkpt>
      <trkpt lat="48.76762" lon="1.96663">
        <ele>173</ele>
        <time>2014-06-07T09:17:39.000Z</time>
      </trkpt>
      <trkpt lat="48.76762" lon="1.96664">
        <ele>173</ele>
        <time>2014-06-07T09:17:40.000Z</time>
      </trkpt>
      <trkpt lat="48.7676" lon="1.96666">
        <ele>173.19999694824</ele>
        <time>2014-06-07T09:17:42.000Z</time>
      </trkpt>
      <trkpt lat="48.7675" lon="1.96664">
        <ele>173</ele>
        <time>2014-06-07T09:17:49.000Z</time>
      </trkpt>
      <trkpt lat="48.76742" lon="1.96657">
        <ele>173</ele>
        <time>2014-06-07T09:17:56.000Z</time>
      </trkpt>
      <trkpt lat="48.76733" lon="1.96654">
        <ele>173</ele>
        <time>2014-06-07T09:18:02.000Z</time>
      </trkpt>
      <trkpt lat="48.76731" lon="1.96652">
        <ele>173</ele>
        <time>2014-06-07T09:18:04.000Z</time>
      </trkpt>
      <trkpt lat="48.76725" lon="1.96645">
        <ele>173</ele>
        <time>2014-06-07T09:18:11.000Z</time>
      </trkpt>
      <trkpt lat="48.76721" lon="1.96644">
        <ele>173</ele>
        <time>2014-06-07T09:18:15.000Z</time>
      </trkpt>
      <trkpt lat="48.76717" lon="1.96634">
        <ele>173</ele>
        <time>2014-06-07T09:18:21.000Z</time>
      </trkpt>
      <trkpt lat="48.76713" lon="1.96622">
        <ele>173</ele>
        <time>2014-06-07T09:18:27.000Z</time>
      </trkpt>
      <trkpt lat="48.76708" lon="1.9661">
        <ele>173</ele>
        <time>2014-06-07T09:18:33.000Z</time>
      </trkpt>
      <trkpt lat="48.76706" lon="1.96604">
        <ele>173</ele>
        <time>2014-06-07T09:18:37.000Z</time>
      </trkpt>
      <trkpt lat="48.76703" lon="1.96596">
        <ele>173</ele>
        <time>2014-06-07T09:18:42.000Z</time>
      </trkpt>
      <trkpt lat="48.767" lon="1.96588">
        <ele>173</ele>
        <time>2014-06-07T09:18:46.000Z</time>
      </trkpt>
      <trkpt lat="48.76697" lon="1.96578">
        <ele>172.80000305176</ele>
        <time>2014-06-07T09:18:54.000Z</time>
      </trkpt>
      <trkpt lat="48.76693" lon="1.96571">
        <ele>172.80000305176</ele>
        <time>2014-06-07T09:19:00.000Z</time>
      </trkpt>
      <trkpt lat="48.76684" lon="1.96565">
        <ele>172.80000305176</ele>
        <time>2014-06-07T09:19:08.000Z</time>
      </trkpt>
      <trkpt lat="48.76679" lon="1.96567">
        <ele>173</ele>
        <time>2014-06-07T09:19:12.000Z</time>
      </trkpt>
      <trkpt lat="48.76671" lon="1.96565">
        <ele>172.80000305176</ele>
        <time>2014-06-07T09:19:19.000Z</time>
      </trkpt>
      <trkpt lat="48.76665" lon="1.96566">
        <ele>172.80000305176</ele>
        <time>2014-06-07T09:19:25.000Z</time>
      </trkpt>
      <trkpt lat="48.76662" lon="1.96566">
        <ele>173</ele>
        <time>2014-06-07T09:19:27.000Z</time>
      </trkpt>
      <trkpt lat="48.76653" lon="1.9657">
        <ele>173</ele>
        <time>2014-06-07T09:19:33.000Z</time>
      </trkpt>
      <trkpt lat="48.76645" lon="1.9657">
        <ele>173</ele>
        <time>2014-06-07T09:19:40.000Z</time>
      </trkpt>
      <trkpt lat="48.76636" lon="1.96575">
        <ele>173</ele>
        <time>2014-06-07T09:19:48.000Z</time>
      </trkpt>
      <trkpt lat="48.76629" lon="1.96578">
        <ele>173</ele>
        <time>2014-06-07T09:19:53.000Z</time>
      </trkpt>
      <trkpt lat="48.76626" lon="1.96578">
        <ele>173</ele>
        <time>2014-06-07T09:19:55.000Z</time>
      </trkpt>
      <trkpt lat="48.76621" lon="1.96582">
        <ele>173</ele>
        <time>2014-06-07T09:20:00.000Z</time>
      </trkpt>
      <trkpt lat="48.76615" lon="1.96586">
        <ele>173</ele>
        <time>2014-06-07T09:20:04.000Z</time>
      </trkpt>
      <trkpt lat="48.76608" lon="1.96586">
        <ele>173</ele>
        <time>2014-06-07T09:20:09.000Z</time>
      </trkpt>
      <trkpt lat="48.76605" lon="1.96577">
        <ele>173</ele>
        <time>2014-06-07T09:20:15.000Z</time>
      </trkpt>
      <trkpt lat="48.766" lon="1.96571">
        <ele>172.80000305176</ele>
        <time>2014-06-07T09:20:21.000Z</time>
      </trkpt>
      <trkpt lat="48.76598" lon="1.96566">
        <ele>172.80000305176</ele>
        <time>2014-06-07T09:20:24.000Z</time>
      </trkpt>
      <trkpt lat="48.76594" lon="1.9656">
        <ele>172.60000610352</ele>
        <time>2014-06-07T09:20:28.000Z</time>
      </trkpt>
      <trkpt lat="48.7659" lon="1.96548">
        <ele>172.60000610352</ele>
        <time>2014-06-07T09:20:34.000Z</time>
      </trkpt>
      <trkpt lat="48.76585" lon="1.96537">
        <ele>172.39999389648</ele>
        <time>2014-06-07T09:20:41.000Z</time>
      </trkpt>
      <trkpt lat="48.76577" lon="1.96529">
        <ele>172.19999694824</ele>
        <time>2014-06-07T09:20:48.000Z</time>
      </trkpt>
      <trkpt lat="48.76576" lon="1.96528">
        <ele>172</ele>
        <time>2014-06-07T09:20:49.000Z</time>
      </trkpt>
      <trkpt lat="48.76567" lon="1.96517">
        <ele>171.80000305176</ele>
        <time>2014-06-07T09:20:56.000Z</time>
      </trkpt>
      <trkpt lat="48.76565" lon="1.96504">
        <ele>171.60000610352</ele>
        <time>2014-06-07T09:21:03.000Z</time>
      </trkpt>
      <trkpt lat="48.76565" lon="1.96498">
        <ele>171.60000610352</ele>
        <time>2014-06-07T09:21:06.000Z</time>
      </trkpt>
      <trkpt lat="48.76563" lon="1.96485">
        <ele>171.60000610352</ele>
        <time>2014-06-07T09:21:11.000Z</time>
      </trkpt>
      <trkpt lat="48.76563" lon="1.96471">
        <ele>172</ele>
        <time>2014-06-07T09:21:17.000Z</time>
      </trkpt>
      <trkpt lat="48.76563" lon="1.96458">
        <ele>172.19999694824</ele>
        <time>2014-06-07T09:21:23.000Z</time>
      </trkpt>
      <trkpt lat="48.76563" lon="1.96456">
        <ele>172.39999389648</ele>
        <time>2014-06-07T09:21:24.000Z</time>
      </trkpt>
      <trkpt lat="48.76565" lon="1.9645">
        <ele>172.39999389648</ele>
        <time>2014-06-07T09:21:29.000Z</time>
      </trkpt>
      <trkpt lat="48.76566" lon="1.96448">
        <ele>172.39999389648</ele>
        <time>2014-06-07T09:21:30.000Z</time>
      </trkpt>
      <trkpt lat="48.76565" lon="1.96446">
        <ele>172.39999389648</ele>
        <time>2014-06-07T09:21:32.000Z</time>
      </trkpt>
      <trkpt lat="48.7656" lon="1.96438">
        <ele>172.39999389648</ele>
        <time>2014-06-07T09:21:39.000Z</time>
      </trkpt>
      <trkpt lat="48.76556" lon="1.96434">
        <ele>172.39999389648</ele>
        <time>2014-06-07T09:21:42.000Z</time>
      </trkpt>
      <trkpt lat="48.76541" lon="1.96424">
        <ele>172.80000305176</ele>
        <time>2014-06-07T09:21:53.000Z</time>
      </trkpt>
      <trkpt lat="48.76528" lon="1.96415">
        <ele>172.80000305176</ele>
        <time>2014-06-07T09:22:04.000Z</time>
      </trkpt>
      <trkpt lat="48.76513" lon="1.9641">
        <ele>173.19999694824</ele>
        <time>2014-06-07T09:22:15.000Z</time>
      </trkpt>
      <trkpt lat="48.76512" lon="1.9641">
        <ele>173.19999694824</ele>
        <time>2014-06-07T09:22:16.000Z</time>
      </trkpt>
      <trkpt lat="48.76509" lon="1.96405">
        <ele>173.39999389648</ele>
        <time>2014-06-07T09:22:21.000Z</time>
      </trkpt>
      <trkpt lat="48.76501" lon="1.96402">
        <ele>173.60000610352</ele>
        <time>2014-06-07T09:22:28.000Z</time>
      </trkpt>
      <trkpt lat="48.76492" lon="1.96398">
        <ele>173.60000610352</ele>
        <time>2014-06-07T09:22:34.000Z</time>
      </trkpt>
      <trkpt lat="48.7648" lon="1.96394">
        <ele>174</ele>
        <time>2014-06-07T09:22:42.000Z</time>
      </trkpt>
      <trkpt lat="48.76467" lon="1.96387">
        <ele>174.19999694824</ele>
        <time>2014-06-07T09:22:51.000Z</time>
      </trkpt>
      <trkpt lat="48.7646" lon="1.96385">
        <ele>174.39999389648</ele>
        <time>2014-06-07T09:22:56.000Z</time>
      </trkpt>
      <trkpt lat="48.76452" lon="1.96382">
        <ele>174.60000610352</ele>
        <time>2014-06-07T09:23:01.000Z</time>
      </trkpt>
      <trkpt lat="48.76445" lon="1.96372">
        <ele>174.39999389648</ele>
        <time>2014-06-07T09:23:07.000Z</time>
      </trkpt>
      <trkpt lat="48.76442" lon="1.96365">
        <ele>174.19999694824</ele>
        <time>2014-06-07T09:23:11.000Z</time>
      </trkpt>
      <trkpt lat="48.76437" lon="1.96352">
        <ele>174</ele>
        <time>2014-06-07T09:23:18.000Z</time>
      </trkpt>
      <trkpt lat="48.76433" lon="1.96337">
        <ele>173.60000610352</ele>
        <time>2014-06-07T09:23:26.000Z</time>
      </trkpt>
      <trkpt lat="48.76429" lon="1.96325">
        <ele>173.19999694824</ele>
        <time>2014-06-07T09:23:33.000Z</time>
      </trkpt>
      <trkpt lat="48.76427" lon="1.96321">
        <ele>173.19999694824</ele>
        <time>2014-06-07T09:23:35.000Z</time>
      </trkpt>
      <trkpt lat="48.76425" lon="1.96312">
        <ele>173.19999694824</ele>
        <time>2014-06-07T09:23:42.000Z</time>
      </trkpt>
      <trkpt lat="48.76423" lon="1.96304">
        <ele>173.39999389648</ele>
        <time>2014-06-07T09:23:46.000Z</time>
      </trkpt>
      <trkpt lat="48.76419" lon="1.96296">
        <ele>173.39999389648</ele>
        <time>2014-06-07T09:23:51.000Z</time>
      </trkpt>
      <trkpt lat="48.76415" lon="1.96278">
        <ele>173.60000610352</ele>
        <time>2014-06-07T09:24:00.000Z</time>
      </trkpt>
      <trkpt lat="48.76415" lon="1.96274">
        <ele>173.60000610352</ele>
        <time>2014-06-07T09:24:03.000Z</time>
      </trkpt>
      <trkpt lat="48.76415" lon="1.9627">
        <ele>173.60000610352</ele>
        <time>2014-06-07T09:24:05.000Z</time>
      </trkpt>
      <trkpt lat="48.76412" lon="1.96258">
        <ele>173.60000610352</ele>
        <time>2014-06-07T09:24:12.000Z</time>
      </trkpt>
      <trkpt lat="48.76405" lon="1.9624">
        <ele>173.80000305176</ele>
        <time>2014-06-07T09:24:18.000Z</time>
      </trkpt>
      <trkpt lat="48.76401" lon="1.96233">
        <ele>173.80000305176</ele>
        <time>2014-06-07T09:24:21.000Z</time>
      </trkpt>
      <trkpt lat="48.76394" lon="1.96216">
        <ele>173.80000305176</ele>
        <time>2014-06-07T09:24:28.000Z</time>
      </trkpt>
      <trkpt lat="48.76393" lon="1.96204">
        <ele>173.60000610352</ele>
        <time>2014-06-07T09:24:33.000Z</time>
      </trkpt>
      <trkpt lat="48.76393" lon="1.96202">
        <ele>173.60000610352</ele>
        <time>2014-06-07T09:24:34.000Z</time>
      </trkpt>
      <trkpt lat="48.76389" lon="1.96191">
        <ele>173.60000610352</ele>
        <time>2014-06-07T09:24:39.000Z</time>
      </trkpt>
      <trkpt lat="48.76386" lon="1.96184">
        <ele>173.60000610352</ele>
        <time>2014-06-07T09:24:42.000Z</time>
      </trkpt>
      <trkpt lat="48.76384" lon="1.96175">
        <ele>173.80000305176</ele>
        <time>2014-06-07T09:24:46.000Z</time>
      </trkpt>
      <trkpt lat="48.76379" lon="1.96161">
        <ele>174</ele>
        <time>2014-06-07T09:24:52.000Z</time>
      </trkpt>
      <trkpt lat="48.76378" lon="1.96154">
        <ele>174</ele>
        <time>2014-06-07T09:24:56.000Z</time>
      </trkpt>
      <trkpt lat="48.76375" lon="1.96141">
        <ele>174</ele>
        <time>2014-06-07T09:25:03.000Z</time>
      </trkpt>
      <trkpt lat="48.76374" lon="1.96133">
        <ele>174</ele>
        <time>2014-06-07T09:25:07.000Z</time>
      </trkpt>
      <trkpt lat="48.76373" lon="1.96129">
        <ele>174</ele>
        <time>2014-06-07T09:25:09.000Z</time>
      </trkpt>
      <trkpt lat="48.76374" lon="1.96124">
        <ele>174</ele>
        <time>2014-06-07T09:25:12.000Z</time>
      </trkpt>
      <trkpt lat="48.76372" lon="1.96115">
        <ele>174</ele>
        <time>2014-06-07T09:25:16.000Z</time>
      </trkpt>
      <trkpt lat="48.76372" lon="1.9611">
        <ele>174</ele>
        <time>2014-06-07T09:25:19.000Z</time>
      </trkpt>
      <trkpt lat="48.76371" lon="1.96105">
        <ele>174</ele>
        <time>2014-06-07T09:25:22.000Z</time>
      </trkpt>
      <trkpt lat="48.76366" lon="1.96091">
        <ele>174</ele>
        <time>2014-06-07T09:25:29.000Z</time>
      </trkpt>
      <trkpt lat="48.76364" lon="1.96087">
        <ele>174</ele>
        <time>2014-06-07T09:25:31.000Z</time>
      </trkpt>
      <trkpt lat="48.76359" lon="1.9607">
        <ele>174</ele>
        <time>2014-06-07T09:25:38.000Z</time>
      </trkpt>
      <trkpt lat="48.76355" lon="1.9606">
        <ele>173.80000305176</ele>
        <time>2014-06-07T09:25:42.000Z</time>
      </trkpt>
      <trkpt lat="48.76353" lon="1.96051">
        <ele>173.80000305176</ele>
        <time>2014-06-07T09:25:46.000Z</time>
      </trkpt>
      <trkpt lat="48.7635" lon="1.96036">
        <ele>173.60000610352</ele>
        <time>2014-06-07T09:25:54.000Z</time>
      </trkpt>
      <trkpt lat="48.76349" lon="1.96034">
        <ele>173.60000610352</ele>
        <time>2014-06-07T09:25:55.000Z</time>
      </trkpt>
      <trkpt lat="48.76348" lon="1.96026">
        <ele>173.60000610352</ele>
        <time>2014-06-07T09:26:01.000Z</time>
      </trkpt>
      <trkpt lat="48.76338" lon="1.96027">
        <ele>173.80000305176</ele>
        <time>2014-06-07T09:26:08.000Z</time>
      </trkpt>
      <trkpt lat="48.76337" lon="1.96027">
        <ele>173.80000305176</ele>
        <time>2014-06-07T09:26:09.000Z</time>
      </trkpt>
      <trkpt lat="48.76331" lon="1.9603">
        <ele>174</ele>
        <time>2014-06-07T09:26:13.000Z</time>
      </trkpt>
      <trkpt lat="48.76329" lon="1.96031">
        <ele>174</ele>
        <time>2014-06-07T09:26:15.000Z</time>
      </trkpt>
      <trkpt lat="48.76319" lon="1.96036">
        <ele>174.39999389648</ele>
        <time>2014-06-07T09:26:22.000Z</time>
      </trkpt>
      <trkpt lat="48.76316" lon="1.9604">
        <ele>174.39999389648</ele>
        <time>2014-06-07T09:26:25.000Z</time>
      </trkpt>
      <trkpt lat="48.76313" lon="1.96045">
        <ele>174.39999389648</ele>
        <time>2014-06-07T09:26:29.000Z</time>
      </trkpt>
      <trkpt lat="48.7631" lon="1.96049">
        <ele>174.60000610352</ele>
        <time>2014-06-07T09:26:32.000Z</time>
      </trkpt>
      <trkpt lat="48.76304" lon="1.96059">
        <ele>174.60000610352</ele>
        <time>2014-06-07T09:26:40.000Z</time>
      </trkpt>
      <trkpt lat="48.763" lon="1.96063">
        <ele>174.60000610352</ele>
        <time>2014-06-07T09:26:44.000Z</time>
      </trkpt>
      <trkpt lat="48.76294" lon="1.96058">
        <ele>174.80000305176</ele>
        <time>2014-06-07T09:26:50.000Z</time>
      </trkpt>
      <trkpt lat="48.76293" lon="1.96056">
        <ele>174.80000305176</ele>
        <time>2014-06-07T09:26:53.000Z</time>
      </trkpt>
      <trkpt lat="48.76281" lon="1.9604">
        <ele>174.80000305176</ele>
        <time>2014-06-07T09:27:03.000Z</time>
      </trkpt>
      <trkpt lat="48.76277" lon="1.96032">
        <ele>175</ele>
        <time>2014-06-07T09:27:06.000Z</time>
      </trkpt>
      <trkpt lat="48.76274" lon="1.96024">
        <ele>175</ele>
        <time>2014-06-07T09:27:09.000Z</time>
      </trkpt>
      <trkpt lat="48.76278" lon="1.96013">
        <ele>175</ele>
        <time>2014-06-07T09:27:14.000Z</time>
      </trkpt>
      <trkpt lat="48.76279" lon="1.96008">
        <ele>175</ele>
        <time>2014-06-07T09:27:16.000Z</time>
      </trkpt>
      <trkpt lat="48.76277" lon="1.95998">
        <ele>175</ele>
        <time>2014-06-07T09:27:20.000Z</time>
      </trkpt>
      <trkpt lat="48.76277" lon="1.95985">
        <ele>174.80000305176</ele>
        <time>2014-06-07T09:27:26.000Z</time>
      </trkpt>
      <trkpt lat="48.76279" lon="1.95978">
        <ele>174.60000610352</ele>
        <time>2014-06-07T09:27:30.000Z</time>
      </trkpt>
      <trkpt lat="48.76279" lon="1.95975">
        <ele>174.60000610352</ele>
        <time>2014-06-07T09:27:31.000Z</time>
      </trkpt>
      <trkpt lat="48.7628" lon="1.9597">
        <ele>174.60000610352</ele>
        <time>2014-06-07T09:27:33.000Z</time>
      </trkpt>
      <trkpt lat="48.76278" lon="1.95958">
        <ele>174.39999389648</ele>
        <time>2014-06-07T09:27:38.000Z</time>
      </trkpt>
      <trkpt lat="48.76275" lon="1.95949">
        <ele>174.39999389648</ele>
        <time>2014-06-07T09:27:42.000Z</time>
      </trkpt>
      <trkpt lat="48.76271" lon="1.95939">
        <ele>174.39999389648</ele>
        <time>2014-06-07T09:27:46.000Z</time>
      </trkpt>
      <trkpt lat="48.76271" lon="1.95938">
        <ele>174.39999389648</ele>
        <time>2014-06-07T09:27:47.000Z</time>
      </trkpt>
      <trkpt lat="48.76273" lon="1.95931">
        <ele>174.19999694824</ele>
        <time>2014-06-07T09:27:53.000Z</time>
      </trkpt>
      <trkpt lat="48.76274" lon="1.95924">
        <ele>174.19999694824</ele>
        <time>2014-06-07T09:27:57.000Z</time>
      </trkpt>
      <trkpt lat="48.76276" lon="1.95909">
        <ele>174</ele>
        <time>2014-06-07T09:28:04.000Z</time>
      </trkpt>
      <trkpt lat="48.76278" lon="1.95902">
        <ele>174</ele>
        <time>2014-06-07T09:28:07.000Z</time>
      </trkpt>
      <trkpt lat="48.76276" lon="1.9589">
        <ele>174</ele>
        <time>2014-06-07T09:28:12.000Z</time>
      </trkpt>
      <trkpt lat="48.76276" lon="1.95879">
        <ele>174</ele>
        <time>2014-06-07T09:28:17.000Z</time>
      </trkpt>
      <trkpt lat="48.76276" lon="1.95869">
        <ele>174</ele>
        <time>2014-06-07T09:28:21.000Z</time>
      </trkpt>
      <trkpt lat="48.76276" lon="1.95859">
        <ele>174</ele>
        <time>2014-06-07T09:28:26.000Z</time>
      </trkpt>
      <trkpt lat="48.76277" lon="1.95853">
        <ele>174</ele>
        <time>2014-06-07T09:28:29.000Z</time>
      </trkpt>
      <trkpt lat="48.76276" lon="1.95844">
        <ele>174</ele>
        <time>2014-06-07T09:28:33.000Z</time>
      </trkpt>
    </trkseg>
  </trk>
</gpx>